GFSMW_850_temp_000.txt.gz
Temp
15 15 15 15 15 13 13 14 14 12 11 10 10 10 11 11 12 11 11 11 11 11 10 10 9 9 8 7 7 7 7 7 6 6 7 7 6 6 6 5 4 4 4
14 14 13 13 13 12 13 13 13 12 11 11 11 12 12 12 11 11 11 11 10 10 9 9 8 7 6 6 6 6 5 5 4 4 3 4 3 4 4 4 3 3 2
14 13 13 13 14 14 13 13 12 12 12 12 12 11 11 11 11 10 10 10 9 8 8 7 6 5 5 5 5 5 5 3 3 2 1 1 0 0 1 1 2 1 0
14 14 14 14 14 13 13 12 12 12 12 12 11 11 10 10 10 9 9 8 7 6 6 5 5 6 5 5 4 3 3 2 1 0 -0 -1 -2 -2 -1 -1 -1 -1 -0
13 14 13 13 13 12 12 12 11 11 11 10 10 10 9 9 8 7 7 6 5 5 5 5 5 4 4 4 3 3 2 1 -1 -1 -1 -2 -2 -3 -3 -3 -4 -4 -3
13 13 13 13 12 12 12 11 11 11 10 10 9 9 8 7 6 5 5 5 5 4 4 4 4 3 2 1 1 1 0 -1 -2 -2 -3 -3 -4 -4 -4 -5 -5 -5 -4
13 12 12 12 12 12 11 11 10 10 9 9 8 7 6 5 4 4 4 4 3 3 3 3 2 1 0 -1 -1 -2 -2 -2 -3 -3 -4 -4 -4 -4 -5 -5 -5 -5 -5
11 11 11 12 11 11 10 10 9 9 8 7 6 6 5 5 5 4 4 4 3 3 3 2 2 2 1 -0 -2 -3 -2 -3 -3 -4 -4 -4 -4 -5 -5 -5 -5 -5 -6
11 11 11 11 11 10 10 10 9 8 7 6 6 5 5 5 4 4 4 4 3 3 2 1 1 -1 -1 -3 -4 -3 -3 -3 -4 -4 -4 -4 -5 -5 -5 -5 -6 -6 -7
10 10 10 10 10 10 10 9 8 7 6 6 6 5 4 4 4 4 3 3 3 1 1 -0 -0 -2 -2 -3 -3 -3 -3 -3 -4 -4 -4 -5 -5 -5 -6 -6 -6 -7 -7
10 9 9 9 10 9 9 9 7 6 6 5 5 4 3 3 3 3 2 2 1 0 0 -0 -1 -2 -3 -3 -3 -3 -3 -4 -4 -4 -5 -5 -6 -6 -7 -7 -8 -8 -8
8 8 9 9 8 8 7 7 6 5 5 5 4 3 2 2 2 1 1 0 -1 -1 -1 -2 -2 -3 -2 -3 -3 -3 -4 -4 -4 -5 -6 -6 -6 -7 -8 -9 -9 -9 -9
8 8 8 7 7 7 6 5 5 5 5 4 3 2 2 1 1 0 -0 -1 -2 -2 -3 -3 -2 -2 -3 -3 -3 -4 -4 -4 -5 -5 -6 -6 -7 -9 -9 -10 -10 -10 -10
8 7 7 6 6 6 5 5 5 4 4 3 2 2 1 1 0 -0 -1 -2 -3 -3 -3 -3 -3 -3 -3 -3 -3 -4 -4 -5 -5 -6 -7 -8 -9 -10 -10 -10 -11 -11 -11
7 7 7 6 6 5 5 5 4 4 3 2 2 1 0 0 -1 -1 -2 -2 -3 -4 -3 -3 -3 -3 -3 -3 -4 -4 -5 -5 -6 -7 -8 -9 -10 -11 -11 -11 -11 -12 -11
7 6 6 6 6 5 5 4 4 3 2 2 1 0 -0 -1 -1 -2 -2 -3 -4 -4 -3 -3 -3 -3 -3 -4 -4 -5 -5 -6 -7 -7 -9 -10 -11 -11 -12 -12 -12 -12 -12
7 7 6 6 6 5 4 3 3 2 2 1 1 -0 -1 -2 -2 -3 -3 -3 -4 -4 -4 -4 -4 -3 -4 -4 -5 -5 -6 -7 -8 -9 -10 -11 -11 -12 -12 -12 -12 -12 -12
7 6 6 6 5 4 3 3 2 2 1 0 -0 -1 -2 -2 -2 -3 -3 -4 -4 -3 -3 -3 -4 -4 -5 -5 -6 -6 -6 -7 -8 -10 -11 -11 -12 -12 -13 -12 -12 -12 -12
7 6 6 5 4 4 3 2 2 1 0 -0 -1 -2 -2 -3 -3 -3 -3 -3 -3 -3 -4 -4 -5 -5 -6 -6 -6 -7 -8 -8 -9 -10 -11 -12 -12 -12 -13 -13 -13 -12 -12
6 6 5 5 4 3 2 2 1 0 -0 -1 -2 -2 -3 -3 -3 -3 -4 -3 -3 -4 -4 -4 -5 -5 -6 -7 -8 -8 -8 -9 -10 -11 -11 -12 -12 -14 -13 -13 -13 -12 -12
5 5 5 4 3 2 2 1 0 -0 -1 -1 -2 -2 -3 -3 -3 -3 -4 -3 -3 -4 -4 -5 -6 -6 -7 -8 -9 -9 -9 -10 -11 -12 -12 -12 -13 -14 -14 -13 -13 -13 -13
5 5 4 3 2 2 1 0 -0 -1 -1 -1 -2 -2 -3 -4 -4 -4 -4 -4 -4 -5 -5 -6 -6 -7 -8 -9 -9 -9 -10 -11 -11 -11 -12 -12 -13 -13 -13 -14 -14 -13 -13
4 3 3 2 2 1 0 -0 -1 -1 -1 -2 -2 -3 -3 -4 -4 -4 -4 -4 -5 -5 -6 -6 -7 -8 -9 -9 -10 -10 -10 -10 -11 -11 -12 -12 -12 -12 -13 -14 -14 -13 -13
2 3 3 2 1 0 -0 -1 -1 -1 -2 -2 -3 -4 -4 -4 -5 -5 -5 -5 -6 -6 -7 -7 -8 -9 -9 -10 -10 -10 -10 -11 -11 -11 -11 -12 -12 -12 -13 -13 -13 -13 -13
2 2 2 1 0 -1 -1 -1 -2 -2 -2 -3 -4 -5 -5 -5 -5 -6 -6 -6 -6 -7 -8 -8 -9 -9 -10 -10 -10 -10 -11 -11 -11 -11 -11 -11 -11 -11 -11 -12 -13 -13 -13
2 1 1 -0 -1 -1 -1 -2 -2 -2 -3 -4 -5 -5 -5 -6 -6 -6 -6 -6 -7 -7 -8 -9 -9 -9 -10 -10 -10 -11 -11 -11 -11 -11 -11 -11 -11 -12 -12 -12 -12 -13 -13

GFSMW_850_temp_003.txt.gz
Temp
15 15 15 15 15 13 13 13 13 12 12 12 11 11 11 11 12 12 12 12 11 11 10 10 9 8 7 7 6 6 6 6 6 5 4 5 6 5 5 4 4 4 4
13 13 14 13 13 13 13 13 12 12 12 11 11 11 11 12 11 11 11 11 10 10 9 8 7 6 6 6 6 5 5 4 4 3 2 4 4 3 3 2 2 2 2
12 12 13 13 14 13 13 12 12 11 11 11 11 11 11 11 10 10 10 9 9 7 6 5 5 6 6 5 5 3 3 2 2 2 1 2 2 -0 1 0 -0 -1 -1
12 12 12 12 12 12 12 12 11 11 11 11 11 10 10 9 9 9 8 7 6 6 5 5 5 5 5 4 3 2 2 2 -0 -0 -2 -1 -2 -1 -1 -0 -1 -2 -2
12 12 12 13 12 12 11 11 11 11 11 10 10 9 9 8 7 6 5 5 5 5 5 5 4 4 4 2 2 1 0 0 0 -0 -2 -3 -3 -3 -3 -2 -2 -3 -3
13 13 12 12 12 12 11 11 11 10 10 9 9 8 8 7 6 6 5 5 5 5 4 4 3 3 3 2 2 1 -1 -1 -2 -2 -3 -3 -3 -3 -4 -4 -3 -3 -3
12 12 12 12 11 11 11 11 10 10 9 8 7 7 6 6 6 5 5 5 5 4 4 3 3 2 2 1 -1 -2 -2 -2 -3 -3 -4 -4 -4 -4 -5 -5 -4 -4 -4
11 11 12 12 12 11 11 10 10 9 8 7 7 6 5 5 4 4 4 4 4 4 3 3 2 1 0 -1 -1 -2 -2 -3 -3 -4 -4 -4 -4 -4 -5 -5 -5 -5 -5
11 11 11 11 10 10 10 10 9 9 7 6 6 5 5 4 4 4 4 3 3 3 2 2 1 0 -1 -1 -2 -2 -3 -3 -3 -3 -4 -4 -4 -5 -5 -6 -6 -6 -6
11 11 10 9 9 9 9 8 8 7 7 6 5 5 4 4 4 3 3 3 2 2 1 0 -0 -2 -1 -2 -2 -3 -3 -3 -3 -4 -4 -5 -5 -6 -6 -7 -7 -7 -7
10 9 8 8 9 9 8 8 7 7 6 5 5 4 4 3 3 2 2 1 1 0 -1 -1 -2 -2 -2 -3 -3 -3 -3 -3 -4 -4 -5 -5 -6 -7 -7 -8 -8 -8 -8
9 8 8 8 8 8 7 8 6 6 5 5 4 4 3 2 2 1 1 -0 -1 -1 -2 -2 -2 -3 -3 -2 -3 -3 -3 -4 -4 -5 -6 -7 -7 -8 -8 -8 -8 -9 -9
7 8 8 8 8 7 7 6 6 5 5 4 4 3 2 1 0 0 -0 -1 -1 -2 -3 -3 -3 -3 -3 -3 -3 -3 -4 -4 -5 -5 -6 -7 -8 -8 -8 -9 -9 -9 -10
8 8 8 8 8 7 7 6 5 5 4 4 3 2 1 0 -0 -1 -1 -1 -2 -2 -3 -3 -3 -3 -3 -3 -3 -3 -4 -4 -5 -6 -6 -7 -9 -9 -10 -10 -10 -10 -10
8 8 8 8 8 7 6 6 5 4 4 3 2 1 0 0 -1 -1 -1 -2 -2 -3 -4 -4 -3 -3 -3 -3 -3 -4 -4 -5 -6 -6 -6 -7 -8 -9 -11 -11 -11 -11 -11
8 8 8 8 7 6 6 5 4 4 3 2 2 1 0 -1 -1 -2 -2 -2 -3 -3 -4 -3 -3 -3 -3 -5 -4 -5 -5 -5 -6 -7 -7 -8 -9 -11 -11 -11 -12 -12 -12
9 8 8 8 7 6 5 4 4 3 3 2 1 1 -0 -1 -2 -2 -2 -3 -3 -4 -4 -3 -3 -4 -4 -5 -5 -5 -5 -6 -7 -7 -8 -9 -11 -12 -13 -12 -12 -12 -12
9 8 8 7 6 5 5 4 3 3 2 2 1 -0 -1 -2 -2 -3 -3 -3 -3 -3 -3 -4 -4 -4 -5 -5 -5 -6 -6 -7 -7 -8 -10 -11 -13 -13 -13 -12 -12 -12 -12
9 8 8 7 6 5 4 4 3 2 2 1 0 -1 -1 -2 -2 -3 -3 -3 -3 -3 -3 -4 -4 -4 -5 -5 -6 -6 -7 -7 -8 -9 -10 -12 -13 -13 -13 -12 -12 -12 -12
8 7 6 6 6 5 4 3 3 2 1 0 -0 -1 -2 -2 -3 -3 -3 -3 -3 -3 -4 -4 -4 -5 -6 -6 -7 -7 -8 -8 -9 -9 -11 -11 -12 -13 -13 -13 -13 -13 -12
7 6 6 6 5 4 3 3 2 1 0 -1 -1 -1 -2 -2 -3 -3 -3 -3 -4 -4 -4 -4 -5 -6 -6 -7 -8 -8 -9 -9 -10 -10 -10 -11 -11 -13 -13 -13 -14 -13 -13
6 6 5 5 4 3 3 2 1 0 -1 -1 -1 -1 -1 -2 -2 -3 -3 -4 -4 -4 -5 -5 -6 -6 -7 -8 -8 -9 -9 -10 -10 -10 -10 -10 -11 -11 -12 -12 -12 -13 -13
5 4 4 4 3 3 2 1 0 -1 -1 -1 -1 -1 -2 -3 -3 -3 -4 -4 -4 -5 -6 -6 -7 -7 -8 -9 -9 -9 -10 -10 -10 -10 -11 -10 -11 -11 -11 -12 -12 -13 -13
3 2 2 3 3 2 1 -0 -1 -1 -1 -1 -1 -2 -3 -4 -4 -4 -5 -5 -5 -6 -6 -7 -7 -8 -9 -9 -9 -10 -10 -10 -10 -10 -11 -11 -11 -11 -11 -12 -12 -13 -13
1 1 2 2 1 1 -0 -1 -1 -1 -1 -2 -3 -3 -5 -5 -5 -5 -6 -6 -6 -6 -7 -7 -8 -9 -9 -9 -10 -10 -10 -11 -11 -11 -11 -11 -11 -11 -11 -11 -12 -12 -13
1 2 1 1 0 -0 -1 -1 -1 -1 -2 -3 -5 -6 -6 -6 -6 -6 -6 -6 -6 -7 -7 -7 -8 -9 -9 -10 -10 -10 -10 -11 -11 -11 -11 -11 -11 -11 -11 -11 -12 -12 -12

GFSMW_850_temp_006.txt.gz
Temp
13 13 14 13 13 12 12 14 13 13 12 13 12 11 11 11 11 11 11 10 10 10 9 7 7 6 6 5 5 5 6 5 5 4 6 6 6 6 5 5 4 4 3
13 12 12 12 12 12 12 12 12 11 11 11 11 11 10 11 11 11 11 10 9 8 7 7 6 6 5 5 4 4 4 5 4 2 3 5 5 6 5 3 3 3 2
14 13 12 12 12 12 12 12 12 11 10 11 11 11 11 10 9 8 8 8 8 7 6 5 5 5 5 5 4 3 3 3 3 2 2 3 4 3 3 3 3 2 1
14 13 13 13 12 12 11 11 11 11 11 11 10 10 9 9 9 7 7 6 6 6 6 5 5 4 4 4 3 2 2 1 2 2 2 1 1 1 1 2 1 1 1
14 13 13 13 12 11 11 11 11 11 10 10 10 9 8 7 6 6 6 5 5 5 4 4 4 3 3 3 2 1 1 1 1 1 0 0 -0 -0 -0 -0 -0 -0 -0
13 13 13 12 11 10 11 11 11 10 10 10 9 8 8 7 6 5 5 5 5 4 4 4 3 2 2 1 1 -0 -0 -1 -1 -1 -1 -1 -1 -1 -1 -1 -1 -1 -1
13 13 12 12 10 9 10 10 10 10 9 9 8 8 7 6 5 5 4 4 3 3 3 3 2 2 1 -0 -1 -1 -1 -1 -2 -2 -2 -2 -2 -2 -2 -2 -2 -2 -2
13 13 12 12 10 9 8 9 9 9 8 8 7 6 6 5 4 3 3 2 2 2 1 1 1 0 -0 -2 -2 -1 -1 -2 -2 -2 -2 -2 -2 -2 -3 -3 -3 -3 -3
13 13 12 10 9 8 8 8 8 8 7 7 6 6 5 4 4 3 2 1 1 1 0 0 -0 -1 -1 -1 -1 -1 -2 -2 -2 -2 -2 -3 -3 -3 -3 -3 -4 -4 -4
13 12 10 9 8 7 8 8 8 7 6 6 5 5 4 4 3 3 2 1 1 0 -0 -0 -1 -1 -1 -1 -1 -1 -2 -2 -2 -2 -3 -3 -3 -4 -4 -4 -4 -4 -5
13 11 9 8 8 7 8 8 7 7 6 5 5 4 4 4 3 1 1 1 1 -1 -1 -1 -1 -1 -1 -1 -2 -2 -2 -3 -3 -3 -3 -4 -4 -4 -4 -5 -5 -5 -5
12 10 9 8 7 7 7 7 6 6 6 5 4 4 4 3 2 0 -1 -1 -1 -2 -2 -2 -2 -2 -2 -2 -2 -2 -2 -3 -3 -3 -4 -4 -4 -5 -5 -5 -5 -5 -6
11 9 8 7 7 6 7 7 5 5 5 5 4 4 3 2 0 -0 -1 -1 -2 -2 -2 -2 -2 -3 -3 -3 -3 -3 -3 -3 -4 -4 -5 -5 -6 -6 -6 -6 -6 -7 -8
10 9 8 7 7 7 7 5 6 6 5 5 4 2 2 1 -0 -1 -2 -2 -2 -3 -2 -3 -3 -3 -3 -3 -3 -4 -4 -4 -5 -5 -6 -6 -7 -7 -8 -8 -8 -9 -9
9 9 8 8 7 7 6 5 5 6 5 4 3 2 1 0 -1 -1 -2 -2 -3 -3 -3 -3 -3 -3 -4 -3 -3 -4 -5 -5 -6 -6 -7 -7 -8 -8 -9 -11 -10 -10 -10
9 9 8 8 7 7 6 5 6 5 4 4 3 2 1 0 -1 -1 -2 -2 -2 -2 -2 -3 -4 -4 -5 -4 -4 -5 -5 -6 -7 -7 -8 -8 -9 -10 -10 -11 -12 -12 -11
9 9 8 8 7 6 6 5 5 5 4 3 3 2 1 -0 -1 -1 -2 -2 -2 -3 -3 -3 -4 -4 -5 -4 -5 -5 -5 -7 -8 -8 -9 -9 -10 -10 -10 -11 -11 -11 -11
10 9 8 7 6 6 5 5 4 4 3 3 2 1 -0 -1 -1 -1 -2 -2 -2 -3 -3 -3 -4 -5 -5 -4 -5 -5 -6 -8 -8 -9 -10 -10 -10 -10 -12 -12 -11 -10 -10
10 9 8 7 6 6 5 5 4 4 3 2 1 0 -0 -1 -1 -1 -2 -2 -2 -3 -3 -4 -4 -5 -6 -5 -6 -6 -7 -8 -8 -10 -10 -10 -11 -12 -12 -12 -12 -11 -10
9 8 7 7 6 6 5 4 3 3 2 1 0 -1 -1 -1 -1 -2 -2 -2 -3 -3 -4 -4 -4 -4 -6 -6 -6 -7 -7 -8 -9 -10 -10 -11 -10 -10 -12 -13 -13 -12 -12
8 7 8 6 5 5 4 4 3 3 1 1 -0 -1 -2 -2 -2 -2 -3 -3 -3 -4 -4 -4 -4 -5 -6 -6 -7 -8 -8 -9 -9 -10 -10 -11 -10 -10 -10 -11 -13 -13 -13
6 6 5 5 5 4 3 3 2 1 1 0 -1 -2 -2 -2 -3 -3 -3 -3 -4 -4 -4 -4 -5 -6 -6 -7 -8 -8 -8 -9 -9 -10 -11 -10 -10 -10 -10 -11 -11 -11 -13
5 5 5 4 3 3 3 2 1 1 0 -0 -1 -2 -3 -3 -4 -4 -4 -4 -4 -5 -5 -6 -6 -6 -7 -9 -8 -8 -9 -9 -9 -10 -10 -10 -10 -10 -11 -12 -11 -12 -13
3 2 3 2 1 1 2 1 1 0 -0 -1 -1 -3 -3 -2 -5 -4 -4 -4 -5 -5 -6 -6 -6 -6 -7 -8 -9 -10 -10 -11 -11 -11 -11 -10 -10 -11 -12 -12 -13 -13 -14
2 1 -0 -0 0 1 1 -0 -0 -1 -1 -1 -2 -3 -4 -5 -6 -6 -5 -5 -5 -5 -5 -6 -7 -7 -8 -8 -9 -9 -10 -10 -11 -11 -12 -11 -12 -12 -12 -12 -13 -13 -14
-0 -0 -1 -1 0 0 -0 -1 -1 -1 -1 -2 -3 -4 -5 -5 -6 -6 -5 -6 -5 -6 -6 -6 -7 -7 -8 -9 -9 -9 -9 -10 -10 -11 -11 -11 -11 -12 -12 -12 -12 -13 -13

GFSMW_850_temp_009.txt.gz
Temp
19 17 17 17 17 15 14 13 13 12 13 13 13 12 12 11 10 9 10 10 9 8 8 8 8 8 8 7 7 6 6 6 6 6 5 5 6 7 7 7 6 5 5
18 17 16 16 16 15 14 14 13 13 13 13 13 13 12 11 10 9 10 8 7 8 8 7 7 7 6 6 6 6 5 5 5 5 5 5 5 6 5 4 4 5 4
18 16 15 15 15 14 14 14 14 13 13 12 12 11 12 11 11 10 9 8 7 6 6 6 6 6 5 6 5 5 4 4 4 4 4 4 4 3 3 3 3 3 3
18 16 15 15 14 14 14 14 13 12 11 12 11 11 11 11 9 9 8 7 7 6 6 6 6 5 5 5 5 5 3 3 3 3 3 2 2 2 2 2 2 2 2
17 17 16 15 15 14 14 13 12 11 10 10 10 10 10 9 8 7 7 7 6 6 5 5 5 4 4 4 4 3 3 2 2 2 1 1 1 1 1 1 1 1 1
17 17 16 15 14 13 12 11 11 10 9 9 9 9 8 7 7 6 6 6 5 5 4 4 3 3 3 3 3 2 1 0 -0 0 0 0 0 0 0 -0 -0 -0 0
17 16 15 14 13 12 11 11 10 9 8 8 7 7 6 6 6 5 5 4 4 4 3 2 2 3 3 3 1 1 0 -1 -1 -1 -0 -0 -1 -1 -1 -1 -1 -1 -0
16 16 15 14 13 11 11 10 10 9 8 7 7 6 6 6 5 4 4 4 3 3 2 2 2 2 2 1 -0 -1 -1 -1 -2 -1 -1 -2 -2 -2 -2 -2 -2 -2 -2
16 16 15 14 13 11 10 10 10 9 7 7 7 7 5 6 4 3 3 3 2 2 2 1 1 1 0 -0 -1 -1 -1 -0 -1 -1 -2 -2 -2 -2 -2 -2 -2 -2 -3
16 16 15 14 13 11 10 9 9 8 7 7 7 5 5 4 3 3 2 2 1 1 1 1 1 1 0 -0 -0 -0 -1 -2 -1 -1 -2 -2 -2 -3 -3 -3 -3 -3 -3
17 16 15 13 12 10 10 9 9 8 6 6 5 6 4 3 3 2 2 1 1 1 0 0 0 0 0 -0 -0 -1 -1 -1 -1 -2 -3 -3 -3 -3 -4 -3 -3 -3 -3
17 16 14 12 11 10 9 9 8 7 6 6 6 4 4 3 3 2 1 1 0 -0 -0 -0 -0 -0 -0 -1 -1 -1 -1 -1 -2 -3 -3 -3 -3 -4 -4 -4 -4 -4 -4
17 16 14 12 11 10 9 8 7 7 6 5 5 5 4 3 3 2 1 0 -0 -0 -1 -1 -0 -1 -2 -2 -2 -2 -2 -3 -3 -3 -4 -4 -4 -4 -4 -5 -5 -6 -6
17 16 14 12 11 9 9 8 7 6 6 6 6 5 4 3 2 1 1 0 -0 -1 -1 -1 -1 -1 -2 -2 -2 -2 -3 -3 -4 -4 -4 -5 -5 -6 -7 -8 -8 -8 -8
16 15 13 12 10 9 8 8 7 6 5 6 5 5 3 2 2 1 0 -0 -1 -1 -1 -1 -1 -2 -2 -2 -3 -3 -4 -4 -4 -5 -5 -5 -6 -7 -8 -9 -10 -10 -10
16 14 13 12 10 9 9 8 7 5 5 5 4 4 3 2 2 1 0 -0 -0 -1 -1 -1 -1 -2 -3 -4 -4 -4 -4 -5 -5 -5 -6 -6 -7 -8 -9 -10 -11 -10 -11
15 13 12 11 11 10 9 8 6 5 5 4 4 3 2 2 1 1 0 0 -0 -1 -1 -1 -1 -2 -3 -4 -4 -4 -5 -6 -6 -6 -7 -7 -7 -8 -9 -10 -10 -10 -10
14 13 12 11 11 10 8 7 6 5 4 4 3 2 2 1 1 1 1 0 -0 -0 -1 -1 -2 -2 -4 -4 -4 -5 -5 -6 -7 -7 -8 -8 -8 -9 -10 -10 -11 -10 -10
14 13 12 11 10 9 8 6 6 5 4 2 2 2 2 1 1 1 1 0 -0 -0 -1 -1 -2 -3 -3 -4 -5 -5 -6 -7 -8 -8 -8 -9 -10 -10 -10 -10 -12 -11 -10
14 13 12 11 10 8 7 6 5 4 3 3 2 2 1 1 1 0 0 -0 -0 -1 -1 -2 -3 -4 -4 -5 -5 -6 -6 -8 -8 -9 -9 -9 -10 -9 -9 -10 -11 -12 -11
13 12 11 10 9 8 6 5 4 3 3 2 1 1 0 0 -0 -1 -1 -1 -1 -1 -2 -3 -4 -5 -5 -7 -6 -6 -7 -8 -8 -9 -9 -9 -10 -9 -9 -10 -11 -12 -12
12 10 10 8 7 6 4 3 1 1 1 2 0 -0 -1 -1 -2 -2 -2 -2 -2 -2 -3 -4 -5 -6 -6 -6 -6 -7 -8 -8 -8 -9 -10 -10 -9 -9 -9 -10 -12 -12 -11
9 8 7 4 3 2 1 -0 -0 -1 1 1 -0 -1 -2 -3 -3 -3 -3 -2 -2 -3 -4 -5 -5 -5 -6 -6 -7 -7 -8 -8 -9 -9 -10 -9 -9 -9 -10 -11 -11 -11 -12
7 5 3 1 -1 -0 -1 -1 -0 1 1 -0 -1 -1 -2 -3 -3 -4 -3 -2 -3 -3 -4 -5 -5 -5 -5 -5 -7 -7 -8 -9 -9 -10 -10 -10 -10 -10 -10 -10 -11 -11 -12
1 1 -1 -1 -1 -2 -1 -0 1 0 -0 -0 -0 -2 -2 -4 -4 -4 -5 -4 -4 -4 -4 -5 -5 -5 -6 -7 -7 -8 -8 -9 -9 -9 -10 -10 -10 -10 -10 -10 -10 -11 -11
-1 -0 -1 -2 -2 -1 0 1 -0 -0 -0 -1 -2 -3 -4 -4 -4 -4 -5 -5 -5 -5 -5 -5 -5 -5 -6 -7 -7 -8 -8 -9 -9 -9 -10 -10 -10 -10 -10 -10 -10 -11 -11

GFSMW_850_temp_012.txt.gz
Temp
20 19 18 18 17 15 14 13 13 13 13 13 12 12 11 11 10 11 11 10 10 8 8 8 8 7 7 7 6 6 6 6 5 5 5 5 5 5 5 5 5 5 5
20 19 18 18 17 15 14 13 13 13 14 14 13 13 12 11 11 10 10 10 9 9 8 8 7 6 6 6 5 6 5 5 5 4 4 4 4 4 4 4 3 3 3
19 18 18 18 17 15 15 14 13 13 14 14 13 13 12 12 10 10 9 8 8 7 7 7 6 6 5 5 5 5 5 4 4 3 3 3 2 2 2 2 2 2 2
19 18 17 17 16 15 14 14 14 14 13 13 13 12 12 11 10 9 9 8 7 7 7 6 6 6 5 5 4 4 4 4 3 3 2 2 1 1 1 1 1 1 1
19 18 17 16 16 15 14 14 14 13 12 12 12 12 11 9 9 8 8 7 7 6 6 5 5 5 5 4 4 3 3 3 2 1 1 0 0 0 0 -0 -0 -0 -0
19 18 17 16 15 14 14 14 12 11 11 11 11 11 10 9 8 8 7 7 6 5 5 4 4 4 3 3 3 3 2 2 1 1 -0 -0 -0 -0 -1 -1 -1 -1 -1
18 18 16 15 15 14 13 12 11 10 10 10 10 10 10 9 8 7 7 7 5 4 4 4 3 3 2 2 2 2 1 1 0 -0 -1 -1 -1 -1 -1 -2 -2 -2 -2
18 18 17 15 14 13 12 11 11 10 9 9 9 9 9 8 7 7 7 6 5 4 3 3 3 2 2 2 1 1 0 -0 -1 -1 -1 -1 -1 -2 -2 -2 -2 -2 -2
18 17 16 15 14 12 11 11 10 9 8 8 8 9 8 8 7 6 6 5 4 3 2 3 2 1 1 1 0 0 -0 -0 -0 -1 -1 -2 -2 -2 -2 -3 -3 -3 -3
18 17 16 15 14 12 11 11 10 9 8 8 8 8 8 6 5 5 4 4 3 3 2 1 1 1 1 0 0 -0 -1 -1 -1 -2 -2 -2 -2 -3 -3 -3 -3 -4 -4
18 17 16 15 14 13 11 10 10 9 8 7 7 7 6 5 5 4 3 3 2 2 1 0 0 -0 -0 0 -0 -0 -1 -1 -1 -3 -2 -2 -3 -3 -3 -4 -4 -4 -4
18 17 17 16 14 13 11 10 10 9 8 7 6 6 5 4 4 3 3 2 1 1 0 -0 -0 -0 -0 -0 -1 -1 -1 -1 -2 -2 -3 -4 -4 -4 -4 -5 -5 -5 -5
18 18 17 16 14 13 11 10 9 9 7 6 6 5 4 4 4 3 2 1 1 0 -0 -1 -1 -0 -1 -1 -1 -1 -1 -2 -3 -3 -4 -4 -4 -5 -5 -5 -6 -6 -7
19 18 17 16 14 12 11 10 9 9 7 7 6 5 5 4 4 3 2 1 0 -0 -1 -1 -1 -1 -1 -1 -1 -2 -2 -3 -3 -4 -4 -4 -5 -5 -6 -6 -7 -8 -9
19 19 18 16 14 12 11 10 9 8 7 6 6 6 5 4 3 2 2 1 0 -0 -1 -1 -0 -1 -1 -2 -2 -2 -3 -3 -4 -4 -5 -5 -5 -6 -7 -7 -8 -9 -9
19 19 18 16 14 12 11 10 9 8 7 6 6 5 5 4 3 2 2 1 0 0 -0 -0 -0 -1 -1 -2 -2 -3 -3 -4 -4 -5 -5 -6 -6 -7 -7 -8 -9 -10 -10
17 17 16 15 14 13 11 10 9 8 6 6 5 4 3 3 3 2 1 1 1 0 0 -0 -1 -1 -2 -2 -3 -3 -4 -4 -5 -6 -6 -7 -7 -8 -8 -8 -9 -9 -10
16 16 15 14 13 12 11 10 9 8 6 5 4 3 3 1 1 2 1 1 1 1 0 -0 -1 -1 -2 -3 -3 -3 -4 -5 -6 -6 -7 -8 -8 -8 -9 -9 -9 -9 -10
15 15 15 14 13 12 11 10 9 7 6 5 3 2 0 1 1 1 1 1 0 0 -0 -0 -1 -1 -2 -3 -3 -4 -5 -5 -6 -7 -8 -8 -8 -9 -9 -9 -9 -9 -9
15 15 14 14 13 12 11 9 8 6 5 3 1 1 1 -0 1 1 0 0 -0 -0 -1 -1 -1 -2 -3 -3 -4 -5 -5 -6 -7 -8 -8 -9 -9 -9 -9 -9 -9 -9 -10
13 13 13 12 12 11 10 8 6 5 3 1 -0 -0 -1 0 -0 -0 -1 -1 -2 -2 -2 -1 -2 -2 -3 -4 -5 -5 -6 -7 -7 -8 -8 -9 -9 -9 -9 -9 -10 -10 -11
12 12 11 10 9 8 8 6 4 1 -1 -0 -1 -1 -0 -1 -2 -2 -1 -3 -3 -2 -2 -2 -3 -3 -4 -5 -5 -6 -6 -7 -7 -8 -8 -9 -9 -9 -9 -9 -10 -11 -11
10 8 7 6 5 5 3 2 -1 -2 -2 -2 -1 -0 0 0 -1 -1 -1 -2 -3 -2 -2 -3 -3 -4 -4 -5 -6 -6 -7 -7 -7 -8 -8 -9 -9 -9 -10 -10 -10 -11 -11
7 4 3 3 2 1 0 -1 -2 -2 -2 -0 1 0 -0 -1 -1 -3 -3 -3 -3 -3 -3 -3 -4 -4 -4 -5 -5 -6 -7 -7 -8 -9 -9 -9 -9 -10 -10 -10 -10 -10 -11
2 2 0 -0 -0 0 0 -0 -2 -2 0 -0 -0 -0 -1 -2 -3 -3 -4 -4 -3 -4 -4 -4 -4 -5 -5 -5 -5 -6 -7 -8 -8 -8 -9 -9 -9 -10 -10 -10 -10 -10 -10
2 1 0 0 -0 -0 -1 -1 -1 -1 -1 -0 -1 -1 -2 -2 -3 -3 -4 -4 -4 -5 -4 -5 -5 -5 -5 -5 -5 -6 -7 -8 -8 -9 -9 -9 -10 -9 -9 -10 -10 -10 -10

GFSMW_850_temp_015.txt.gz
Temp
19 18 17 17 16 15 14 13 13 13 13 13 13 12 12 12 12 11 11 10 11 10 10 9 8 8 8 7 7 6 6 5 5 5 5 4 4 4 4 4 4 4 3
19 18 17 17 16 14 14 14 14 13 13 13 13 12 12 12 11 11 10 9 9 9 9 8 8 7 7 7 6 5 5 5 4 4 4 3 3 3 3 3 4 2 2
18 18 18 17 16 15 14 14 14 14 13 12 12 11 11 11 10 9 9 9 9 8 8 7 8 7 6 6 5 5 4 4 4 3 3 2 1 1 1 1 1 1 1
19 18 18 17 16 15 14 14 14 14 13 13 13 12 11 11 10 9 9 9 9 9 9 9 8 7 6 6 5 4 4 3 3 3 2 2 1 0 0 -0 -0 -0 -0
19 18 18 17 16 15 14 14 13 13 13 13 13 13 12 11 9 9 10 10 9 9 9 8 7 6 6 5 4 3 3 3 2 2 1 1 0 -0 -0 -1 -1 -1 -1
19 18 17 17 17 16 14 14 13 13 13 13 12 12 12 11 10 10 10 9 9 8 7 7 6 5 4 3 2 2 2 2 1 1 1 -0 -1 -1 -1 -1 -1 -2 -2
19 18 17 16 16 15 14 14 13 13 13 13 12 11 11 11 10 10 10 9 8 7 7 6 6 4 3 2 2 2 2 1 0 0 -0 -1 -1 -1 -2 -2 -2 -2 -2
18 18 17 17 16 14 14 14 13 13 13 12 11 10 10 10 10 10 9 8 7 6 6 5 5 3 1 1 1 1 0 0 -1 -1 -1 -1 -2 -2 -2 -2 -3 -3 -3
18 18 17 16 15 14 13 13 13 12 12 11 10 10 10 9 9 9 7 6 6 5 4 4 3 2 1 1 1 0 -0 -1 -1 -1 -2 -2 -2 -2 -2 -3 -3 -3 -4
18 17 16 15 14 14 13 12 11 11 11 10 9 9 8 8 8 7 6 6 6 4 3 3 2 1 1 0 0 -0 -1 -1 -1 -2 -3 -2 -3 -4 -3 -4 -4 -4 -4
18 17 16 15 15 14 14 13 11 10 10 9 9 8 7 7 6 6 5 5 4 3 3 1 0 0 -0 -0 -0 -0 -1 -1 -1 -2 -2 -3 -3 -4 -4 -4 -4 -4 -5
18 17 17 16 15 15 14 13 11 10 10 9 8 7 7 6 5 4 4 4 3 2 2 1 0 -0 -1 -0 -1 -1 -1 -2 -2 -2 -2 -3 -4 -4 -4 -4 -5 -5 -6
18 17 17 16 15 14 13 12 11 10 10 9 8 7 6 5 4 3 3 3 2 2 1 1 0 -1 -1 -1 -1 -1 -2 -2 -2 -3 -3 -4 -4 -5 -5 -5 -6 -6 -6
18 18 17 17 16 15 13 12 11 10 10 9 7 7 6 5 4 3 3 3 2 1 1 0 -0 -1 -1 -1 -1 -2 -2 -2 -3 -3 -4 -4 -5 -5 -5 -6 -6 -7 -7
18 18 17 17 16 14 12 12 11 10 9 8 7 6 6 5 4 3 2 1 1 1 0 -0 -0 -0 -1 -1 -1 -2 -2 -2 -3 -3 -4 -5 -5 -5 -6 -7 -7 -7 -8
19 18 17 17 16 14 13 11 11 10 9 8 7 6 6 5 4 2 0 1 1 1 0 0 -0 -0 -1 -1 -1 -2 -2 -3 -3 -4 -5 -5 -6 -6 -7 -7 -8 -9 -9
17 17 16 15 15 14 12 12 11 10 9 8 7 6 5 4 2 1 0 1 0 1 1 0 0 -0 -1 -1 -1 -2 -3 -3 -4 -4 -5 -6 -7 -7 -8 -8 -8 -8 -8
16 15 15 15 14 13 12 12 10 9 8 7 6 5 4 3 1 -0 -0 1 1 1 0 0 0 -0 -1 -1 -2 -3 -3 -3 -4 -5 -5 -6 -7 -8 -8 -8 -8 -9 -9
14 14 14 14 14 14 13 12 10 9 7 6 5 4 3 1 -0 -1 0 0 0 0 -0 -0 -0 -0 -1 -2 -3 -4 -3 -4 -5 -5 -6 -7 -8 -8 -9 -9 -9 -9 -9
13 13 13 13 13 13 12 11 8 6 5 4 3 2 0 -1 -1 -1 1 -0 -1 -1 -1 -1 -1 -1 -1 -2 -3 -4 -4 -5 -5 -6 -7 -7 -8 -9 -9 -9 -9 -9 -9
12 12 12 12 12 11 10 8 7 6 4 3 2 -0 -2 -1 -1 1 -1 -1 -1 -1 -1 -2 -2 -2 -2 -3 -3 -4 -5 -5 -6 -6 -7 -8 -8 -8 -9 -9 -9 -10 -10
11 11 10 10 8 8 8 6 5 2 2 1 -1 -1 -1 -1 1 -2 -2 -1 -1 -2 -2 -2 -2 -2 -3 -3 -4 -4 -5 -5 -6 -7 -7 -8 -8 -9 -9 -10 -10 -10 -11
9 8 8 7 6 5 5 4 2 1 0 -0 -0 -0 -0 1 -0 -1 -1 -2 -2 -3 -3 -3 -3 -3 -3 -4 -4 -5 -5 -6 -6 -7 -7 -8 -8 -9 -9 -10 -10 -10 -10
6 5 5 5 4 3 3 2 2 2 1 0 0 0 -0 -0 -1 -1 -2 -3 -3 -4 -3 -3 -4 -4 -4 -4 -5 -5 -5 -6 -6 -7 -8 -8 -8 -9 -9 -10 -10 -10 -10
3 3 3 2 2 1 0 -0 -0 -0 -0 -0 -0 -0 -1 -1 -1 -2 -3 -3 -4 -4 -4 -4 -4 -4 -5 -5 -5 -5 -5 -6 -6 -7 -8 -8 -9 -9 -9 -10 -10 -10 -10
1 1 0 -0 -1 -1 -1 -1 -0 -0 -0 -1 -1 -1 -1 -1 -2 -2 -2 -3 -4 -4 -4 -4 -5 -5 -5 -5 -5 -5 -6 -6 -6 -7 -8 -8 -9 -9 -9 -9 -9 -10 -10

GFSMW_850_temp_018.txt.gz
Temp
17 16 15 15 15 14 14 13 13 13 13 13 13 13 13 13 12 12 12 12 12 11 11 12 11 10 10 9 8 7 7 6 5 5 4 4 4 4 4 3 3 3 3
16 16 16 15 15 15 14 13 13 13 13 13 14 14 13 12 12 12 12 12 12 12 11 11 10 10 9 8 7 6 5 5 4 4 3 3 3 3 3 2 2 2 2
16 16 15 15 15 15 15 14 13 13 13 13 13 13 12 12 11 11 11 11 11 11 11 10 9 8 7 7 6 6 5 4 3 3 3 2 1 1 1 0 1 1 0
17 17 16 15 16 15 15 15 14 13 13 13 12 12 13 12 12 12 11 11 10 10 10 9 8 7 7 7 6 6 4 3 3 2 2 1 1 0 0 0 -0 -0 -1
18 17 17 17 16 15 15 15 14 13 13 13 12 12 12 12 11 10 10 9 9 9 9 7 7 7 6 6 5 4 3 2 2 2 1 1 1 -0 -1 -1 -1 -1 -1
16 17 17 17 16 15 15 13 13 13 13 13 13 12 12 11 10 10 9 9 9 9 7 7 6 5 5 5 3 2 2 2 1 1 0 -0 -1 -1 -1 -1 -1 -2 -2
17 16 17 16 16 16 15 14 13 13 13 13 12 12 11 11 10 9 9 9 8 7 6 6 6 5 4 3 2 2 1 1 0 -0 -0 -1 -1 -1 -2 -2 -2 -2 -2
18 17 17 16 16 16 14 14 13 13 12 12 12 11 11 10 9 9 9 8 7 6 6 5 4 4 3 2 1 1 0 0 -0 -1 -1 -1 -2 -2 -2 -3 -3 -3 -3
18 18 17 17 17 15 14 15 15 13 12 12 11 10 10 10 9 9 8 7 6 5 5 5 4 4 2 1 1 0 -0 -0 -1 -1 -1 -1 -2 -2 -3 -3 -4 -4 -4
18 18 17 17 16 16 15 15 14 13 12 11 10 10 9 9 9 8 7 6 5 5 4 4 4 3 2 1 0 -0 -0 -1 -1 -1 -2 -2 -2 -3 -3 -3 -4 -4 -4
18 18 17 17 16 15 15 14 13 13 12 12 10 10 9 9 8 7 7 5 5 4 4 3 3 2 2 1 0 -0 -1 -1 -1 -2 -2 -2 -3 -3 -4 -4 -4 -5 -5
18 18 18 18 17 16 15 14 14 13 13 13 11 10 9 9 8 7 5 5 3 3 3 2 2 1 1 -0 -1 -1 -1 -1 -2 -2 -2 -2 -3 -4 -4 -5 -5 -6 -6
18 18 17 17 17 16 15 14 14 13 13 12 11 9 9 8 7 6 5 3 3 3 2 1 1 1 0 -1 -1 -1 -1 -2 -2 -2 -3 -3 -3 -4 -5 -5 -6 -6 -6
17 17 17 17 16 16 15 14 13 12 11 11 10 9 8 7 7 5 4 3 2 1 1 1 1 0 -0 -1 -1 -1 -1 -2 -2 -2 -3 -3 -4 -4 -5 -6 -6 -7 -7
17 16 15 15 15 15 14 13 13 12 11 10 9 9 7 7 6 4 3 2 1 1 1 1 1 0 -0 -0 -1 -1 -1 -2 -2 -3 -3 -4 -4 -5 -6 -6 -7 -7 -8
17 17 17 17 16 15 14 13 12 11 11 10 9 8 7 6 4 3 2 1 0 -0 1 1 1 0 0 -0 -1 -1 -1 -2 -2 -3 -3 -4 -5 -5 -6 -7 -8 -8 -8
15 15 15 15 15 15 14 13 12 11 10 9 8 7 6 5 4 3 1 0 -0 -0 -0 1 0 0 0 -0 -0 -1 -2 -3 -4 -4 -4 -5 -5 -6 -6 -7 -8 -8 -9
14 15 14 14 14 14 14 13 12 11 9 8 7 6 5 4 2 1 0 -0 0 -0 0 0 0 -0 -0 -0 -1 -1 -2 -3 -3 -4 -5 -5 -6 -6 -7 -8 -8 -8 -8
14 14 14 14 14 13 13 13 11 10 8 8 6 5 4 3 2 0 0 -0 -1 -0 -0 -0 -0 -1 -1 -1 -1 -2 -3 -4 -4 -5 -5 -6 -6 -7 -7 -7 -8 -8 -9
13 13 13 13 13 13 12 11 9 7 6 4 3 2 0 -0 -1 -0 0 -0 -1 -0 -1 -1 -1 -1 -2 -2 -2 -2 -3 -4 -4 -5 -6 -6 -7 -7 -7 -8 -8 -8 -9
11 11 11 12 11 11 10 9 7 5 3 2 1 0 -1 -0 0 -0 -1 -0 -1 -2 -1 -1 -1 -2 -2 -2 -2 -3 -4 -4 -5 -5 -6 -6 -7 -7 -7 -8 -8 -9 -10
10 9 9 8 7 7 7 6 5 3 2 0 -0 -1 -0 0 -1 -1 -1 -1 -1 -1 -1 -2 -2 -2 -2 -3 -3 -3 -4 -4 -5 -5 -6 -7 -7 -7 -7 -8 -9 -10 -10
7 6 6 6 5 4 4 4 2 1 1 0 0 0 -0 -1 -1 -1 -1 -1 -1 -2 -2 -3 -3 -3 -3 -3 -4 -4 -4 -5 -5 -5 -6 -6 -7 -7 -8 -8 -9 -10 -10
4 3 4 3 3 2 2 1 1 0 -0 -1 -1 -1 -0 -0 -0 -1 -1 -1 -1 -2 -3 -4 -4 -4 -4 -4 -5 -5 -5 -5 -5 -5 -6 -6 -7 -7 -8 -8 -9 -9 -10
2 2 2 1 1 -0 -0 -1 -0 -0 -0 -0 -0 -0 -1 -1 -1 -1 -1 -2 -2 -3 -3 -3 -4 -4 -4 -4 -5 -5 -5 -5 -5 -6 -7 -7 -7 -7 -8 -8 -9 -9 -10
0 0 0 0 -1 -1 -1 -1 -1 -1 -1 -1 -1 -1 -2 -2 -2 -2 -2 -2 -2 -3 -3 -4 -4 -4 -4 -5 -5 -5 -5 -6 -5 -6 -6 -6 -7 -7 -7 -8 -9 -9 -10

GFSMW_850_temp_021.txt.gz
Temp
16 15 15 15 14 14 13 13 13 13 13 12 12 12 13 13 12 12 12 12 12 12 12 11 11 11 11 10 10 9 8 7 7 6 5 4 4 3 3 3 3 2 2
14 14 15 15 14 14 13 13 13 13 12 12 13 13 13 12 12 11 11 11 11 11 11 11 11 11 11 10 10 9 8 7 6 5 4 3 3 3 3 2 2 1 1
16 15 15 15 14 14 14 14 13 13 13 13 13 13 12 11 11 11 11 11 11 10 10 10 10 10 10 9 8 7 7 6 4 4 3 2 2 2 2 1 0 0 0
15 15 15 15 15 14 14 15 15 14 13 13 12 13 13 12 12 12 11 11 10 9 9 10 9 9 9 8 7 6 5 4 3 2 2 1 1 0 0 0 -0 -0 -1
16 16 16 16 16 14 14 14 14 13 13 12 13 13 12 12 12 11 10 10 9 9 9 9 8 8 7 7 6 4 3 2 2 1 1 1 0 -0 -0 -1 -1 -1 -1
17 16 16 15 15 14 14 14 14 14 13 13 13 13 12 11 11 10 10 10 9 9 8 7 6 6 6 6 5 3 2 2 1 1 0 -0 -1 -1 -1 -2 -2 -2 -2
17 16 16 15 15 15 14 14 14 14 13 12 12 12 12 11 11 11 10 9 8 8 7 6 6 5 5 4 3 2 1 1 1 0 -0 -1 -1 -1 -2 -2 -2 -3 -3
17 17 17 16 16 16 15 14 14 14 13 12 12 12 12 11 10 10 9 8 8 7 6 6 4 3 3 3 2 1 1 -0 -0 -0 -1 -1 -1 -2 -2 -2 -3 -3 -3
18 17 17 17 16 16 16 15 15 14 12 12 13 12 12 10 10 10 9 8 7 7 6 5 4 3 3 2 2 1 0 -0 -0 -1 -1 -1 -2 -2 -2 -3 -3 -4 -5
18 17 17 17 17 16 16 15 15 14 15 14 13 11 11 10 10 9 8 8 7 6 5 4 4 3 3 2 2 1 -0 -0 -1 -1 -1 -2 -2 -2 -3 -3 -4 -4 -5
18 17 17 17 17 16 16 16 15 14 13 13 12 11 10 10 9 8 8 7 6 5 4 4 3 3 2 2 1 0 -0 -1 -1 -1 -2 -2 -2 -3 -3 -4 -4 -5 -5
18 19 18 17 17 17 16 16 15 15 14 12 12 11 9 9 8 8 8 7 6 5 4 3 2 2 2 2 1 0 -0 -1 -1 -1 -2 -2 -2 -3 -4 -4 -5 -5 -6
18 17 18 18 17 17 16 15 16 15 13 11 11 9 9 8 8 8 7 6 5 4 3 2 2 1 1 1 0 -0 -0 -1 -1 -1 -2 -2 -3 -3 -4 -4 -5 -6 -6
18 17 17 17 17 16 15 15 15 13 13 11 10 9 9 9 8 8 7 6 4 3 2 2 1 -0 0 0 0 -0 -0 -1 -1 -1 -2 -3 -3 -4 -4 -5 -5 -6 -7
16 16 16 16 16 15 14 14 13 13 12 11 10 10 9 9 8 7 5 4 3 2 1 0 0 0 0 0 -0 -0 -0 -1 -1 -2 -3 -4 -4 -4 -5 -5 -6 -7 -8
15 15 15 15 15 16 15 14 13 11 10 10 10 10 9 8 6 5 4 3 1 0 -0 -1 -1 0 0 0 0 -0 -0 -1 -1 -2 -3 -3 -4 -4 -5 -6 -6 -8 -8
15 15 15 14 15 15 14 14 13 12 11 11 10 9 8 7 6 4 2 1 -0 -1 -1 -0 -1 1 0 0 0 -0 -1 -1 -2 -2 -4 -4 -5 -5 -6 -6 -7 -8 -9
14 14 14 14 14 14 14 13 12 11 10 9 8 7 6 5 4 2 1 -0 -1 -1 -0 -0 0 -0 -0 -0 -0 -0 -1 -1 -2 -3 -3 -4 -5 -5 -6 -7 -8 -8 -9
13 13 13 13 13 13 13 12 11 9 8 7 6 6 5 3 0 -1 -1 -1 -0 -0 -0 -0 -1 -0 -0 -1 -1 -1 -1 -2 -2 -3 -4 -5 -5 -6 -6 -7 -8 -8 -9
12 12 12 12 12 11 11 11 9 8 7 6 4 3 1 -0 -0 -0 -1 -1 -0 -1 -0 -1 -0 -0 0 -1 -2 -2 -2 -2 -3 -4 -4 -5 -5 -6 -7 -7 -8 -8 -9
11 10 10 10 10 10 10 8 6 5 3 2 1 0 0 -0 -1 -1 -0 -0 -2 -1 -1 -0 -0 -1 -1 -1 -2 -2 -3 -3 -4 -4 -4 -5 -5 -6 -7 -7 -8 -8 -8
8 8 8 8 7 6 6 5 3 2 1 2 2 1 -0 -0 -0 -1 -1 -2 -1 -1 -1 -1 -1 -1 -1 -2 -2 -3 -3 -4 -4 -4 -4 -5 -6 -6 -7 -7 -8 -8 -9
6 5 6 5 3 2 3 2 1 1 1 1 -0 -1 -1 -1 -1 -1 -1 -1 -1 -2 -2 -2 -2 -2 -2 -3 -3 -3 -4 -4 -5 -5 -5 -6 -6 -6 -7 -7 -8 -8 -9
4 4 3 3 2 1 1 0 -0 -0 -0 -0 -0 -1 -1 -1 -1 -1 -2 -2 -2 -2 -2 -2 -2 -2 -3 -4 -4 -4 -4 -5 -5 -5 -5 -6 -6 -7 -7 -8 -8 -8 -9
2 2 1 1 -0 -1 -1 -1 -1 -1 -1 -1 -1 -2 -2 -2 -2 -2 -3 -3 -3 -3 -3 -3 -3 -3 -3 -3 -4 -5 -5 -5 -5 -5 -6 -5 -6 -7 -7 -7 -8 -8 -9
0 0 -1 -1 -1 -1 -1 -1 -1 -1 -1 -2 -2 -2 -2 -2 -2 -3 -2 -2 -3 -3 -3 -4 -4 -4 -4 -4 -4 -4 -5 -5 -6 -6 -6 -6 -6 -6 -6 -7 -7 -8 -9

GFSMW_850_temp_027.txt.gz
Temp
14 14 14 14 14 13 13 13 13 12 12 12 12 12 12 12 11 12 11 11 11 10 11 11 11 10 10 9 9 8 8 7 7 6 5 5 4 3 3 2 2 2 1
14 14 14 14 14 14 13 13 13 13 13 12 12 12 12 12 12 12 11 11 11 10 10 10 10 10 9 9 8 8 7 7 7 6 5 3 3 3 3 2 2 1 1
15 15 15 15 14 14 14 14 13 13 13 13 12 12 12 12 12 11 12 11 11 11 10 9 9 9 9 8 8 7 7 7 7 7 6 4 4 2 2 1 1 0 -0
16 16 16 15 15 15 14 14 13 13 13 13 13 13 13 13 12 12 12 11 11 11 10 9 9 8 8 8 7 6 6 6 6 6 5 4 3 2 2 0 0 0 -0
16 17 16 16 16 15 15 14 14 13 13 13 13 13 13 12 12 12 11 11 11 10 10 9 9 8 8 8 7 5 6 6 6 5 4 3 2 1 0 1 0 -1 -1
18 17 17 16 16 16 15 15 14 14 13 13 13 13 12 12 11 11 11 11 10 10 9 9 8 8 8 8 8 7 5 5 4 4 3 2 0 0 -0 -0 -1 -2 -2
18 18 17 18 17 16 16 15 15 14 14 13 13 12 12 12 11 11 11 11 11 10 9 9 8 7 7 7 7 6 5 5 4 3 2 1 0 -0 -1 -1 -1 -2 -2
17 19 19 18 18 18 17 16 16 15 14 13 13 12 12 12 12 10 10 11 11 10 9 8 7 6 6 6 5 6 5 4 3 2 1 1 -0 -1 -1 -2 -2 -2 -2
16 17 18 18 18 18 18 17 16 15 15 15 14 14 13 13 13 12 9 9 9 9 8 7 6 6 6 5 4 5 3 3 2 1 0 -0 -1 -1 -2 -2 -2 -3 -3
18 17 17 17 17 17 16 16 16 16 16 15 14 14 13 13 13 11 9 9 9 8 7 6 5 5 4 4 4 3 2 2 1 0 -0 -1 -1 -1 -2 -2 -3 -3 -4
19 19 18 17 17 16 15 16 16 15 15 15 15 14 14 13 13 12 10 9 8 7 6 5 5 4 4 4 3 2 2 1 0 -0 -1 -1 -1 -1 -2 -2 -3 -3 -4
19 19 19 18 17 17 16 16 16 15 15 14 13 14 13 13 13 13 11 9 9 7 5 6 5 4 4 3 1 1 1 1 0 -0 -1 -1 -1 -1 -2 -2 -3 -3 -4
18 18 18 18 17 16 17 16 16 16 15 14 13 12 13 13 11 10 8 8 8 6 5 4 4 3 2 1 0 1 -1 -0 -0 -0 -1 -1 -1 -1 -2 -2 -3 -4 -4
17 16 16 16 16 15 15 15 15 15 14 13 13 12 11 10 9 8 8 8 8 5 4 3 2 1 0 -0 -0 -0 -1 -0 -0 -0 -0 -1 -1 -1 -2 -3 -3 -4 -5
14 14 14 14 14 14 14 14 14 13 13 12 11 11 10 9 8 8 8 7 6 4 4 3 2 0 -1 -1 -0 -1 -1 -1 -1 -1 -0 -1 -1 -1 -2 -3 -4 -4 -5
12 13 13 13 14 14 14 14 14 14 13 12 11 10 9 8 8 7 6 5 4 3 3 2 1 0 -2 -1 -0 -2 -1 -1 -0 -0 -0 -0 -1 -1 -2 -3 -4 -4 -5
12 13 13 13 13 13 13 13 13 13 13 12 10 9 7 6 6 6 5 4 3 2 2 0 -1 -2 -1 -1 -1 -2 -2 -1 -1 -0 -1 -1 -1 -2 -3 -3 -4 -5 -5
12 12 12 12 12 12 12 12 12 12 11 10 8 7 6 5 4 4 3 2 1 1 -1 -1 -1 -1 -1 -1 -1 -2 -2 -1 -1 -1 -1 -1 -1 -2 -3 -4 -4 -5 -5
12 12 12 11 11 11 11 10 10 9 8 6 5 4 4 3 3 2 2 1 1 -0 -0 -1 -1 -1 -1 -1 -2 -2 -2 -1 -1 -1 -1 -2 -2 -2 -3 -4 -4 -5 -5
10 10 10 10 10 10 9 9 9 7 5 4 3 3 2 2 2 2 1 1 -1 -1 -1 -1 -1 -1 -2 -2 -2 -2 -2 -2 -1 -2 -2 -2 -2 -3 -4 -4 -5 -5 -5
8 8 8 9 9 8 7 8 5 4 2 1 0 0 -0 -0 -0 -1 -1 -1 -1 -1 -1 -2 -2 -2 -2 -2 -2 -3 -3 -3 -2 -3 -3 -3 -3 -3 -4 -5 -5 -5 -6
7 7 8 7 5 5 5 4 2 0 -0 -0 -0 -0 -0 -0 -0 -0 -1 -1 -1 -1 -1 -2 -2 -2 -2 -2 -2 -3 -3 -3 -4 -3 -3 -3 -3 -4 -5 -5 -5 -6 -6
6 5 6 5 3 2 2 2 -0 -0 -0 -0 0 -0 -0 -0 -1 -1 -1 -2 -2 -2 -3 -3 -3 -3 -3 -3 -3 -3 -4 -4 -4 -4 -4 -4 -4 -4 -5 -5 -5 -6 -7
4 3 3 2 1 0 0 0 -1 -1 -1 -0 -1 -1 -1 -2 -2 -2 -2 -3 -3 -3 -3 -4 -4 -4 -5 -6 -7 -7 -6 -5 -5 -5 -5 -5 -5 -5 -5 -5 -6 -6 -6
2 2 2 1 -0 -1 -0 -1 -1 -1 -1 -1 -1 -2 -2 -2 -2 -2 -3 -3 -4 -4 -5 -6 -7 -7 -7 -8 -9 -9 -9 -9 -7 -7 -6 -6 -6 -5 -5 -5 -6 -6 -6
1 1 0 -0 -1 -1 -1 -1 -1 -2 -2 -2 -2 -2 -2 -2 -3 -3 -4 -4 -5 -6 -6 -7 -8 -9 -9 -8 -8 -8 -9 -9 -9 -9 -8 -7 -7 -6 -6 -5 -6 -6 -6

GFSMW_850_temp_030.txt.gz
Temp
15 14 13 13 12 12 12 11 11 11 11 11 11 11 11 11 11 12 12 12 11 11 11 11 10 10 9 9 10 10 9 8 7 6 6 5 3 3 4 3 3 2 2
16 15 14 13 12 12 12 12 12 11 11 11 11 11 11 11 11 12 12 12 12 11 11 11 10 10 9 10 10 9 8 6 7 6 7 8 7 4 3 3 2 2 1
17 16 14 14 13 13 12 12 12 12 11 12 12 11 11 11 12 12 12 12 12 11 11 11 10 10 10 10 10 9 9 6 6 6 6 8 9 6 5 2 2 1 1
18 17 16 15 14 13 13 13 13 12 12 11 12 11 12 11 12 13 13 12 12 11 11 10 10 10 10 10 9 9 8 8 7 6 4 5 5 6 6 3 2 1 1
19 18 18 17 15 14 13 13 13 12 12 11 12 11 11 12 11 13 11 12 12 12 10 10 10 10 9 9 8 8 7 7 7 5 5 4 4 3 3 5 5 3 2
19 19 18 17 17 15 14 13 13 13 12 12 13 12 12 12 11 11 12 12 11 11 10 10 9 9 8 8 7 7 6 6 5 4 4 4 4 4 3 3 3 3 2
19 19 18 18 17 16 14 14 13 13 13 12 13 13 13 12 13 13 13 12 11 10 10 9 9 8 8 7 7 6 6 5 3 4 3 3 2 2 2 2 2 2 2
19 19 19 18 18 16 15 14 14 14 13 13 14 13 13 13 13 12 12 10 10 10 10 9 8 7 7 6 6 6 5 3 2 3 2 2 2 1 1 1 1 1 1
20 19 19 18 17 16 15 14 14 14 13 13 12 13 14 14 13 12 12 10 10 9 9 8 8 6 5 6 6 5 3 3 3 1 1 1 1 1 0 0 0 0 0
18 17 17 18 17 16 15 14 13 14 13 12 11 11 12 12 14 12 12 12 10 9 8 8 6 5 4 5 4 3 2 1 1 1 1 0 0 0 -0 -0 -0 -1 -1
19 17 16 16 16 15 15 13 13 14 13 13 11 11 11 11 12 13 12 10 9 9 8 8 7 6 3 4 4 3 1 2 1 0 0 0 -0 -0 -0 -0 -1 -1 -1
18 17 16 15 15 14 14 14 13 13 13 12 11 11 12 12 11 11 10 9 9 8 8 7 6 3 2 3 3 1 1 1 0 -0 -0 -0 -0 -1 -1 -0 -1 -1 -1
18 17 15 15 16 16 14 13 14 13 13 14 14 13 12 11 11 10 9 9 8 8 7 6 4 3 3 3 2 1 0 0 -0 -0 0 -0 -0 -0 -0 -1 -1 -1 -1
16 17 15 14 14 13 14 14 14 14 13 13 12 12 11 10 9 9 9 8 8 8 7 5 3 3 2 1 1 0 -0 0 -1 -1 -1 -0 -0 -0 -1 -0 -1 -1 -2
15 14 15 14 13 12 12 12 12 12 12 12 11 10 10 9 8 8 7 7 7 6 5 3 2 2 1 0 -1 -0 -0 -1 -1 -1 -1 -1 -1 -1 -1 -1 -1 -1 -2
13 12 12 12 11 12 11 13 13 12 12 12 11 11 9 8 8 7 7 6 6 5 4 2 2 1 -1 -1 0 -1 -1 -2 -2 -1 -1 -1 -1 -1 -0 -1 -1 -2 -2
11 11 10 10 11 13 12 12 12 12 12 11 9 8 8 7 6 6 5 4 4 3 2 2 1 -1 0 -1 -1 -1 -1 -1 -2 -2 -2 -2 -1 -1 -2 -1 -1 -2 -3
9 9 11 12 12 12 12 12 11 11 10 9 8 6 6 5 5 4 4 3 3 2 2 1 1 1 -1 -1 -1 -1 -1 -2 -3 -2 -2 -2 -2 -2 -2 -3 -3 -3 -4
8 8 9 10 11 11 11 10 10 9 8 7 6 5 4 4 3 3 3 2 2 1 1 0 0 -0 -1 -1 -1 -2 -2 -3 -3 -3 -3 -2 -2 -2 -3 -3 -4 -4 -4
7 7 9 9 10 9 9 8 7 7 6 4 3 2 2 2 1 1 0 -0 -0 -1 -0 -1 -1 -1 -1 -1 -1 -2 -3 -3 -4 -4 -3 -3 -3 -2 -2 -3 -4 -4 -4
7 7 6 7 7 6 6 6 5 4 2 1 0 0 0 -0 0 -0 -0 -1 -1 -1 -1 -2 -2 -1 -2 -2 -2 -3 -3 -4 -5 -4 -4 -4 -4 -3 -3 -3 -3 -4 -4
6 5 6 4 3 3 5 4 3 0 -0 0 1 1 -0 -0 -1 -1 -1 -2 -2 -2 -2 -2 -2 -3 -4 -4 -5 -5 -4 -5 -5 -5 -5 -5 -5 -4 -4 -4 -4 -4 -4
3 3 3 3 2 3 4 3 -0 0 0 0 0 0 0 -0 -0 -1 -1 -3 -3 -3 -4 -4 -5 -5 -6 -6 -7 -6 -5 -5 -6 -6 -7 -6 -6 -5 -5 -5 -4 -5 -5
3 2 2 3 3 2 1 1 0 -0 -0 -0 -0 -0 -1 -1 -1 -2 -2 -3 -3 -4 -5 -6 -6 -7 -8 -8 -9 -8 -8 -9 -9 -9 -8 -7 -7 -7 -6 -6 -6 -5 -5
1 1 1 1 0 -0 0 -0 -1 -1 -1 -1 -1 -1 -1 -2 -2 -3 -3 -3 -4 -4 -5 -5 -6 -8 -9 -10 -9 -10 -10 -10 -10 -9 -9 -9 -8 -8 -7 -7 -6 -6 -6
0 -1 -1 -1 -1 -0 -1 -1 -1 -1 -1 -2 -2 -2 -2 -3 -3 -5 -7 -4 -5 -6 -6 -7 -8 -8 -9 -10 -10 -10 -10 -10 -10 -10 -10 -9 -9 -8 -8 -7 -7 -6 -6

GFSMW_850_temp_033.txt.gz
Temp
17 15 15 14 13 12 11 11 11 11 11 10 12 12 12 12 12 11 12 11 11 11 12 11 10 11 10 10 9 9 9 8 9 8 9 8 6 6 6 5 5 5 4
18 16 15 15 14 13 13 13 12 12 12 12 13 13 13 13 13 12 12 11 11 11 12 10 10 11 10 9 9 9 9 9 8 9 9 9 8 6 6 5 5 4 4
19 17 16 15 14 14 14 14 13 13 13 13 14 13 13 13 13 12 11 11 11 11 10 10 10 9 10 9 10 10 9 8 7 8 7 9 10 9 7 5 4 4 3
20 19 17 16 15 15 14 14 14 14 14 14 14 14 13 13 13 12 11 10 12 12 10 10 9 9 9 9 8 8 8 8 8 7 6 6 6 7 8 6 5 3 3
21 20 19 17 16 16 15 14 14 15 14 14 13 14 13 13 13 12 11 10 10 10 10 9 9 8 8 8 8 7 8 8 7 6 6 6 6 5 5 6 7 5 4
21 21 20 19 18 17 16 15 15 15 15 14 13 13 13 13 14 13 11 11 10 11 9 9 8 8 7 7 6 6 8 7 6 7 6 6 6 6 6 6 5 5 5
22 22 21 20 20 18 17 16 15 15 15 14 14 13 13 13 13 13 12 10 10 12 11 10 9 7 7 7 8 7 6 5 5 5 4 5 5 4 4 4 4 4 4
22 22 22 21 20 19 18 16 16 15 15 15 14 13 12 12 12 12 12 12 12 11 10 11 8 8 7 7 5 5 5 4 5 4 4 4 3 3 3 3 3 3 3
23 22 22 22 21 20 19 17 16 16 16 15 14 13 12 12 12 11 12 13 13 13 11 10 8 8 7 7 5 5 4 4 3 3 2 2 2 3 3 2 2 2 2
22 22 22 22 21 21 20 18 17 17 16 15 14 13 12 11 11 11 13 12 12 10 10 9 8 7 7 7 5 5 3 3 2 2 2 1 2 2 2 2 2 2 1
22 20 20 20 20 20 19 18 17 16 16 15 14 13 12 11 11 11 12 11 11 10 8 9 7 7 7 6 5 3 2 2 2 1 1 1 1 1 1 1 1 1 1
21 20 19 18 18 18 18 18 17 16 16 15 14 13 12 11 11 11 10 10 9 8 8 7 7 6 6 4 3 2 1 1 0 2 1 0 1 1 1 1 1 1 0
21 20 19 18 17 17 17 17 15 15 15 15 15 13 12 11 11 10 9 8 8 8 7 7 6 5 3 2 1 1 1 0 1 0 -0 1 1 1 1 1 0 0 0
21 21 19 18 17 16 15 15 14 14 14 13 12 12 10 10 10 10 8 8 8 8 7 6 5 3 3 1 1 1 -0 -1 0 -0 -0 -0 0 0 0 0 -0 -0 -1
19 19 19 17 16 15 14 14 12 11 11 11 11 10 9 9 8 8 7 6 6 6 6 6 4 3 1 1 0 -0 -1 -1 -0 -0 -1 -1 -1 -1 -1 -0 -0 -0 -1
18 17 17 16 15 14 13 11 10 10 10 10 9 8 8 7 6 6 6 6 6 5 5 4 2 2 1 1 0 0 -1 -1 -1 -1 -1 -1 -1 -1 -1 -1 -1 -1 -1
16 15 14 13 13 12 11 10 10 9 9 8 7 7 7 7 7 6 6 6 5 4 4 3 3 2 2 1 0 -1 -1 -1 -1 -1 -1 -2 -1 -1 -1 -0 -0 -1 -1
14 13 12 11 11 10 10 9 9 8 8 7 7 6 5 5 4 4 4 4 3 2 2 1 1 -0 -1 -1 -1 -1 -1 -1 -2 -2 -2 -2 -1 -1 -1 -1 -1 -1 -1
13 12 11 10 10 9 9 8 8 7 6 5 5 4 4 3 3 2 1 1 1 0 0 -0 -1 -1 -1 -1 -1 -1 -2 -3 -3 -3 -2 -2 -2 -2 -2 -2 -2 -2 -2
10 10 9 9 8 8 8 7 6 6 5 4 4 3 3 2 2 1 1 1 0 0 0 0 -0 -0 -1 -1 -2 -2 -3 -3 -4 -4 -3 -3 -3 -3 -3 -4 -4 -4 -3
9 9 9 8 7 7 6 6 5 4 4 3 3 2 1 1 0 0 0 -0 -0 -0 -1 -1 -2 -2 -2 -3 -3 -3 -4 -4 -4 -4 -4 -5 -5 -5 -5 -4 -4 -4 -4
8 8 7 7 6 6 6 5 4 3 2 2 2 1 1 1 0 -0 -0 -0 -1 -1 -2 -2 -3 -3 -3 -4 -5 -5 -5 -5 -5 -5 -5 -6 -6 -5 -5 -6 -5 -5 -5
8 7 7 6 5 5 4 4 2 2 1 1 0 0 -0 -0 -0 -1 -1 -1 -1 -2 -3 -3 -4 -4 -5 -5 -6 -6 -5 -5 -5 -6 -7 -6 -7 -7 -7 -7 -7 -7 -6
7 6 5 5 4 3 3 2 1 1 0 -0 -1 -1 -1 -1 -2 -2 -2 -3 -3 -3 -4 -5 -5 -6 -6 -7 -6 -6 -6 -7 -8 -8 -8 -8 -8 -8 -8 -7 -7 -7 -7
7 5 4 3 2 2 1 1 0 -0 -1 -1 -2 -2 -2 -2 -3 -3 -3 -3 -2 -3 -4 -4 -5 -6 -6 -8 -8 -8 -9 -9 -9 -9 -9 -10 -10 -10 -9 -8 -8 -8 -7
5 4 3 2 1 0 -0 -1 -1 -1 -2 -2 -2 -2 -2 -3 -4 -5 -4 -4 -4 -4 -5 -5 -6 -7 -8 -8 -9 -9 -9 -9 -10 -12 -11 -11 -11 -11 -11 -11 -10 -9 -9

GFSMW_850_temp_036.txt.gz
Temp
14 13 12 12 11 10 10 10 10 9 10 10 9 10 11 11 12 12 12 12 12 11 11 11 11 11 10 10 10 10 10 10 10 9 9 9 8 8 7 6 6 6 5
16 14 13 12 12 11 10 11 11 11 10 10 11 11 12 12 12 12 12 11 11 12 11 11 11 11 11 10 10 10 10 9 9 9 9 9 8 7 8 7 6 6 5
17 15 14 13 13 12 11 11 11 11 12 12 12 12 12 12 13 12 13 12 11 12 11 11 11 11 11 10 10 10 9 9 8 9 8 8 8 7 8 7 6 5 6
19 17 15 15 14 13 13 12 12 12 12 12 13 13 13 13 13 13 13 13 12 11 11 10 10 10 10 10 10 9 9 9 8 8 7 7 7 7 7 6 6 6 5
20 18 17 16 15 14 14 14 13 13 13 13 13 14 14 13 13 14 13 12 12 11 12 10 10 10 9 9 9 8 7 7 8 7 7 6 6 6 6 6 6 5 5
21 20 19 17 16 15 14 14 14 14 14 14 14 14 13 14 14 14 13 13 12 12 11 11 10 9 9 9 9 8 7 6 7 6 6 6 5 6 6 6 5 6 5
21 21 20 18 17 16 16 15 14 14 14 15 14 14 14 14 13 13 13 12 12 12 11 12 11 11 9 9 10 7 6 6 5 5 5 5 4 5 5 5 5 5 5
22 21 21 20 19 18 17 16 15 15 15 15 15 14 15 14 13 13 13 13 13 14 14 12 10 9 11 10 9 6 6 6 5 5 4 4 3 4 4 4 4 3 3
22 22 22 22 20 19 18 17 16 15 15 15 15 15 14 13 13 12 12 12 12 12 12 11 11 10 10 9 8 7 6 6 5 4 4 3 3 3 2 3 3 3 2
23 23 22 22 22 21 19 19 18 17 16 16 15 15 14 13 14 13 11 12 14 12 11 10 10 10 9 8 7 6 5 5 3 3 2 2 2 1 2 2 2 2 2
22 22 21 22 22 22 21 19 18 17 17 17 16 15 15 14 12 13 12 14 12 11 10 9 9 9 8 7 6 5 5 3 2 2 1 1 1 1 1 2 2 2 1
22 21 20 20 21 21 21 20 19 18 17 17 16 15 15 14 13 14 11 11 10 9 9 9 8 8 7 6 5 4 3 2 1 1 1 0 1 1 1 1 1 1 1
22 21 20 19 19 19 19 19 19 18 17 17 16 15 14 13 14 12 11 10 9 8 8 7 7 7 6 5 3 3 2 1 0 0 0 0 0 0 0 0 1 1 0
22 22 20 19 18 18 17 17 17 16 16 16 15 14 13 12 12 10 9 9 9 8 8 7 6 6 5 4 3 2 1 -0 -0 0 0 -0 -0 0 0 -0 -0 -0 -1
22 21 21 19 18 17 16 15 15 15 15 14 12 12 11 11 10 9 9 8 7 7 7 6 6 5 4 3 2 1 1 1 -0 -0 -1 -1 -0 -1 -1 -1 -1 -1 -1
21 20 20 18 17 15 15 13 13 13 12 12 12 11 9 8 7 7 6 6 6 6 6 6 5 4 4 3 1 1 1 -0 -1 -1 -1 -1 -1 -1 -0 -1 -1 -1 -1
19 18 18 17 15 14 13 11 11 10 10 10 10 9 8 8 7 6 6 5 5 5 5 4 4 2 1 1 1 0 -0 -1 -1 -1 -1 -2 -1 -1 -1 -1 -1 -1 -1
17 16 15 14 13 12 11 10 10 9 9 8 8 7 7 7 6 5 5 5 4 3 3 2 2 1 1 -0 -1 -1 -1 -2 -1 -2 -2 -2 -2 -2 -2 -2 -2 -2 -2
16 14 13 12 11 11 10 9 9 8 8 7 6 6 5 5 4 4 4 3 3 2 1 0 -0 -0 -1 -1 -1 -1 -1 -2 -3 -3 -3 -3 -3 -3 -3 -3 -3 -3 -3
14 13 12 11 10 9 9 8 8 7 7 6 5 5 4 3 2 2 2 1 1 0 -0 -0 -0 -0 -1 -1 -2 -2 -3 -3 -2 -2 -2 -2 -3 -3 -4 -4 -5 -5 -5
13 11 10 10 9 9 8 7 7 6 6 5 4 3 3 3 3 2 2 1 0 0 -0 -0 -1 -2 -2 -2 -3 -3 -3 -2 -2 -2 -2 -3 -3 -4 -5 -6 -6 -6 -6
11 10 10 9 8 8 7 6 6 5 4 4 4 3 3 2 2 2 1 0 -0 -1 -2 -2 -2 -3 -3 -4 -4 -3 -2 -3 -4 -4 -4 -4 -5 -5 -6 -7 -7 -8 -8
10 10 9 8 7 7 6 5 4 4 4 3 2 2 1 1 0 0 0 -0 -1 -2 -2 -2 -3 -3 -4 -5 -4 -3 -4 -5 -5 -5 -5 -6 -6 -7 -7 -9 -9 -9 -8
10 9 8 7 7 6 5 4 3 2 2 1 1 0 -0 -0 -1 -1 -1 -1 -1 -2 -2 -3 -3 -4 -4 -4 -4 -4 -4 -5 -6 -6 -7 -7 -8 -10 -10 -10 -10 -10 -10
9 8 7 6 5 5 4 3 2 1 1 0 -0 -1 -1 -1 -1 -1 -1 -1 -1 -2 -3 -3 -4 -4 -4 -5 -6 -6 -6 -7 -8 -8 -9 -10 -11 -11 -11 -11 -12 -12 -12
8 7 6 5 4 3 2 1 1 0 -0 -1 -2 -1 -2 -2 -3 -2 -2 -3 -3 -3 -4 -4 -5 -5 -5 -6 -7 -8 -8 -9 -9 -10 -12 -12 -12 -12 -13 -13 -13 -13 -13

GFSMW_850_temp_039.txt.gz
Temp
13 12 11 10 9 8 9 9 9 8 8 9 9 9 10 10 10 11 11 12 12 12 12 12 11 11 11 11 11 10 10 10 10 10 9 9 9 9 8 8 7 7 7
12 12 11 11 11 9 9 9 9 9 10 10 10 10 10 11 11 12 12 12 12 12 12 12 11 11 11 11 10 10 10 10 10 10 9 9 9 8 8 8 7 6 6
13 12 12 12 11 10 10 10 10 10 11 10 11 11 11 11 11 12 12 12 12 12 12 11 11 11 11 11 10 10 10 10 10 9 9 8 8 7 7 7 7 6 6
15 14 13 12 13 13 13 12 11 11 11 11 11 11 11 11 12 12 12 12 12 12 12 12 12 12 11 10 10 10 10 9 8 8 8 8 8 7 6 6 6 6 6
16 14 14 14 13 13 13 12 12 12 12 12 12 12 12 12 13 13 12 13 12 12 12 12 12 11 10 10 10 9 9 8 8 7 7 7 6 6 5 6 6 6 5
17 16 16 15 14 13 13 13 12 12 12 12 12 12 12 12 12 13 13 13 13 12 12 12 11 11 10 10 10 10 9 9 9 7 6 6 6 5 4 4 4 5 5
18 17 16 15 15 14 14 13 13 12 12 13 13 13 13 13 13 13 13 13 12 12 12 12 12 12 10 10 10 9 10 8 8 7 5 6 5 5 4 3 4 5 5
19 18 18 17 16 16 15 14 14 14 13 13 13 13 14 13 13 13 13 13 13 13 12 12 13 12 11 10 10 9 8 7 6 6 6 5 4 4 4 4 4 4 4
20 19 19 19 18 17 16 16 16 15 14 14 14 14 14 14 14 13 13 14 14 13 13 12 12 12 10 10 9 8 8 7 5 5 4 4 4 2 3 3 3 3 3
21 20 20 19 19 19 19 18 17 17 17 16 14 14 14 14 14 14 13 13 12 12 11 11 12 10 9 9 8 8 7 5 5 4 4 3 3 2 2 2 2 2 2
21 21 21 20 19 20 19 18 16 15 15 14 14 14 15 15 14 14 13 12 11 12 12 10 9 9 8 8 8 8 6 5 4 4 3 2 2 2 1 2 1 1 1
22 22 21 21 21 19 18 16 15 17 18 18 14 14 15 14 13 13 12 11 11 10 10 9 9 8 8 8 8 6 5 4 4 3 2 1 1 1 1 0 1 0 0
22 22 21 21 20 20 20 19 17 16 17 17 14 14 14 14 13 12 14 12 11 10 10 9 9 8 8 8 6 6 4 3 3 2 1 1 0 0 0 -0 -0 0 -0
22 21 21 21 20 19 19 18 17 17 16 15 16 16 15 15 14 13 12 10 10 9 9 8 8 8 8 6 5 4 3 2 2 1 1 0 -0 -0 -0 -0 -0 -0 -0
22 21 20 20 19 18 18 17 17 16 16 16 16 15 14 13 12 10 10 10 9 8 8 7 7 6 6 5 4 3 2 2 1 0 -0 -0 -1 -1 -1 -1 -1 -0 -0
21 21 20 19 18 17 17 16 15 15 16 16 15 14 13 12 11 10 9 8 7 6 6 6 6 5 5 4 3 2 2 1 -0 -0 -1 -1 -1 -2 -2 -1 -1 -2 -2
21 20 19 18 17 17 16 16 15 14 14 13 12 12 12 11 11 9 8 6 5 5 5 5 5 4 3 2 2 1 0 0 -0 -1 -1 -1 -2 -2 -2 -2 -2 -2 -2
20 20 18 17 16 16 15 14 13 13 12 11 11 10 10 10 9 8 7 6 6 5 5 4 3 2 1 1 0 -0 -1 -1 -1 -1 -2 -3 -2 -3 -3 -3 -3 -3 -3
19 18 17 16 15 14 13 13 12 11 11 10 10 10 10 9 8 7 6 5 4 4 3 2 1 1 0 -0 -1 -1 -1 -1 -2 -3 -3 -3 -4 -4 -3 -3 -4 -3 -3
18 17 16 14 13 12 12 11 10 10 9 9 8 8 7 7 6 5 5 4 3 2 1 0 -1 -1 -0 -1 -1 -2 -2 -3 -3 -3 -3 -3 -3 -3 -4 -4 -5 -5 -5
16 15 14 13 12 11 10 10 9 8 7 7 7 6 6 6 5 4 2 2 1 0 0 -1 -1 -1 -1 -1 -2 -2 -3 -3 -3 -3 -2 -3 -4 -4 -5 -7 -8 -8 -8
14 13 12 11 10 10 9 8 7 6 6 6 5 4 4 3 3 3 1 1 1 0 -0 -1 -2 -2 -2 -3 -3 -3 -3 -3 -3 -3 -3 -4 -5 -6 -7 -8 -9 -10 -10
13 12 11 10 9 9 8 7 6 5 5 5 4 3 3 3 2 1 0 -0 -0 -0 -1 -2 -2 -3 -3 -3 -3 -3 -3 -4 -4 -4 -5 -6 -6 -7 -8 -9 -10 -10 -10
11 11 10 9 8 7 7 7 5 5 4 4 3 2 1 0 0 0 -0 -0 -1 -1 -2 -2 -3 -3 -3 -3 -4 -4 -4 -4 -5 -5 -6 -7 -8 -8 -10 -9 -10 -11 -12
10 10 9 8 7 6 6 5 4 4 3 2 1 1 0 0 -0 -0 -1 -1 -1 -2 -2 -2 -3 -3 -3 -4 -5 -5 -5 -6 -6 -7 -8 -8 -9 -9 -10 -10 -11 -12 -12
9 8 7 7 6 5 4 3 2 2 1 1 -0 -0 -1 -1 -1 -1 -1 -2 -3 -3 -3 -3 -4 -4 -4 -6 -6 -6 -7 -8 -8 -8 -9 -11 -12 -12 -12 -13 -13 -13 -13

GFSMW_850_temp_042.txt.gz
Temp
12 12 10 9 9 9 8 8 8 8 8 8 9 9 10 10 11 12 12 11 11 11 11 12 12 12 11 11 11 11 11 11 10 10 10 9 9 9 9 9 8 7 7
12 12 11 10 10 9 9 8 8 8 8 9 9 9 10 10 10 11 11 12 12 12 11 11 12 11 11 11 11 11 11 10 10 10 9 9 9 9 8 8 8 8 7
14 13 11 11 11 10 10 10 9 9 9 9 9 9 9 10 10 11 11 12 11 11 11 11 11 11 12 11 11 11 11 10 10 10 9 9 8 9 9 8 8 7 7
14 14 14 14 13 12 11 10 10 9 10 9 9 9 10 10 10 11 11 11 11 11 12 11 11 11 11 11 11 11 10 10 10 9 9 9 9 8 8 8 7 7 7
14 14 14 15 15 14 13 11 10 9 10 10 9 10 10 10 11 11 11 12 12 12 12 12 12 12 11 11 11 10 10 10 10 10 9 8 8 8 7 6 7 6 6
14 15 15 14 14 14 14 13 12 12 11 11 11 11 11 11 11 11 12 12 13 12 12 12 12 12 12 12 11 10 10 10 10 9 9 8 8 7 7 6 6 5 5
13 13 13 14 14 13 13 13 12 12 12 11 11 11 11 12 12 13 13 12 12 13 13 12 11 11 12 12 12 10 10 10 10 9 8 7 7 6 6 6 6 5 5
15 15 15 15 15 14 14 13 13 13 13 13 12 12 12 12 12 12 12 12 12 13 13 11 12 12 11 11 12 10 9 9 9 8 7 7 6 6 6 5 5 4 3
17 16 16 16 16 15 15 15 13 13 13 13 13 13 13 13 13 13 12 12 12 13 13 13 12 11 11 11 11 10 9 9 8 8 7 6 5 4 5 3 3 2 2
17 18 17 17 17 17 17 16 15 15 15 14 13 13 13 13 13 13 13 12 12 13 12 11 12 12 12 11 9 9 8 8 8 7 6 4 4 4 4 3 2 1 1
19 18 18 18 18 18 17 17 16 15 14 13 13 13 13 13 13 13 12 12 12 12 11 10 11 11 11 9 9 8 8 8 8 6 5 4 4 4 3 2 2 2 1
22 21 20 19 18 17 17 16 17 15 16 15 13 12 11 11 11 11 12 12 10 10 9 9 9 10 9 9 8 8 8 7 7 5 4 3 3 2 2 2 2 0 0
22 22 21 20 19 18 18 17 17 17 17 13 13 13 14 13 13 13 12 12 10 10 10 11 10 9 8 8 8 8 7 6 5 4 3 3 2 2 1 1 -0 -0 -0
21 21 21 20 20 19 19 19 18 18 16 14 13 14 14 15 14 13 12 12 11 10 10 10 9 9 8 8 7 7 6 6 4 3 2 2 1 1 0 -0 -0 -0 -0
21 21 21 21 20 20 19 19 19 19 17 16 16 15 14 14 14 13 14 11 9 10 9 9 8 8 7 7 7 6 5 4 3 2 1 1 0 0 -0 -2 -1 -1 -1
22 21 21 21 20 20 20 19 18 17 16 16 15 15 15 14 14 13 10 10 9 9 8 7 7 6 6 6 5 4 4 3 2 1 0 -0 -1 -1 -1 -2 -2 -2 -2
22 21 21 20 20 20 20 18 17 16 16 15 14 13 12 12 11 10 9 9 8 7 7 6 5 5 5 5 4 3 2 1 1 0 -0 -1 -1 -1 -2 -2 -2 -2 -3
21 21 21 20 19 19 17 16 15 14 13 12 12 11 10 10 9 9 8 8 7 6 5 5 5 5 4 4 3 1 1 0 -1 -1 -1 -1 -2 -3 -3 -2 -2 -2 -3
21 21 21 21 19 17 16 15 14 13 12 11 10 9 9 9 8 7 7 6 5 5 4 4 4 3 3 1 1 -0 -1 -1 -1 -1 -2 -3 -4 -3 -3 -3 -3 -3 -3
20 20 20 19 17 16 16 14 13 11 11 11 10 9 8 8 8 7 7 6 5 4 3 3 2 1 1 -0 -1 -2 -2 -2 -2 -3 -3 -3 -4 -4 -4 -3 -3 -3 -4
19 19 19 18 16 15 14 13 12 11 11 10 9 9 8 8 8 7 6 5 4 3 2 1 0 -0 -1 -1 -1 -2 -2 -2 -3 -3 -4 -4 -4 -3 -3 -4 -5 -6 -7
19 18 18 16 14 13 13 12 11 10 10 9 9 8 7 7 6 5 4 3 2 2 1 -1 -1 -1 -1 -2 -2 -2 -3 -3 -4 -4 -4 -4 -4 -5 -5 -6 -7 -7 -8
18 17 16 13 12 12 11 11 10 9 8 8 7 6 5 4 3 3 2 1 0 0 -0 -1 -1 -2 -2 -2 -3 -3 -4 -4 -4 -4 -5 -5 -5 -6 -7 -8 -8 -9 -9
16 15 13 12 10 10 9 9 9 7 7 6 5 4 3 2 1 1 1 1 0 -0 -1 -1 -2 -2 -3 -3 -4 -4 -4 -5 -5 -5 -6 -6 -7 -8 -8 -9 -10 -10 -11
13 12 11 10 9 9 8 7 7 6 5 4 3 2 2 1 0 -0 -1 -1 -1 -2 -2 -3 -3 -3 -4 -4 -5 -5 -5 -6 -6 -6 -7 -8 -9 -9 -10 -11 -11 -11 -11
11 10 10 9 8 7 6 6 5 5 4 3 2 1 0 -0 -0 -1 -2 -2 -3 -3 -4 -4 -5 -5 -5 -6 -6 -6 -6 -7 -7 -8 -9 -10 -11 -12 -12 -12 -12 -12 -12

GFSMW_850_temp_045.txt.gz
Temp
12 10 10 9 9 8 8 9 9 9 8 8 9 9 10 10 11 11 11 11 11 12 11 11 12 12 11 11 11 11 10 11 10 10 10 9 9 9 9 9 9 9 9
12 12 11 10 9 9 9 8 8 8 8 8 9 9 10 11 11 11 12 12 12 12 12 11 11 11 11 11 11 11 11 10 10 10 10 9 9 9 9 9 9 9 8
13 13 12 12 11 10 9 8 8 8 8 8 9 9 9 10 11 11 11 12 12 12 12 11 11 11 11 11 11 11 11 11 10 10 10 9 9 9 9 9 9 8 7
14 14 13 12 14 12 11 10 8 8 8 8 8 9 9 10 10 11 11 12 12 12 12 11 11 11 11 11 11 11 11 11 11 10 10 9 9 9 8 9 9 8 8
16 16 15 15 15 14 13 11 10 9 8 8 8 9 9 9 10 11 11 11 11 12 12 11 11 11 11 11 11 11 10 10 10 10 10 10 9 8 8 8 8 8 7
16 16 16 14 14 14 13 12 12 11 10 10 9 9 10 10 10 10 10 11 11 12 12 11 11 11 11 11 11 11 11 10 9 10 10 10 10 9 9 8 8 7 7
16 16 16 15 15 14 13 13 13 12 11 10 10 10 10 10 10 11 11 11 11 12 13 12 12 12 12 11 11 11 11 11 11 10 10 10 9 9 8 7 6 6 6
16 16 17 17 16 16 15 14 14 14 12 11 11 11 11 10 10 11 11 12 12 13 12 12 12 12 12 10 11 10 11 11 11 9 10 9 9 8 7 6 5 5 5
16 17 16 16 16 16 16 16 15 15 14 14 13 13 12 12 12 11 12 12 12 12 12 12 12 12 10 10 10 10 11 10 9 9 9 9 8 7 7 5 5 5 3
18 18 16 16 17 17 16 15 15 16 16 15 14 14 13 13 12 12 12 11 11 11 11 11 11 10 10 10 10 11 11 11 9 9 8 8 7 7 5 6 4 4 3
18 18 19 17 17 17 16 16 15 15 14 14 14 13 13 12 11 11 11 12 11 11 11 10 10 11 9 9 9 9 10 9 9 8 7 7 7 6 4 4 4 3 2
20 19 18 19 17 16 15 15 16 15 15 14 13 12 12 12 12 12 12 12 11 11 10 9 9 11 9 8 8 9 9 9 8 8 7 7 5 5 4 4 3 2 2
21 20 19 19 18 17 16 15 16 17 16 14 13 11 12 12 13 13 13 13 11 11 10 11 9 10 10 10 9 9 9 9 8 7 6 5 5 4 3 3 2 1 1
22 21 21 21 20 19 19 17 18 18 17 14 13 12 12 12 13 12 12 12 12 11 12 11 11 10 10 9 9 8 8 7 6 6 5 4 3 3 2 1 1 1 -0
21 21 21 22 22 20 20 19 19 18 17 16 14 14 13 12 12 12 12 12 10 11 11 11 10 10 9 9 8 8 7 6 6 6 5 3 2 1 1 1 0 -0 -1
22 21 21 21 21 20 20 20 19 19 18 18 17 14 13 12 12 12 12 11 10 10 10 9 9 9 9 8 7 7 7 6 5 4 3 2 1 1 -0 -0 -1 -2 -2
21 22 21 20 20 20 20 20 20 19 18 18 17 15 13 13 12 12 12 11 10 10 10 9 9 8 8 7 7 6 5 5 4 3 2 1 0 -0 -1 -1 -2 -2 -3
21 20 22 22 20 20 19 20 19 19 18 17 16 15 13 12 12 11 10 10 9 9 9 8 7 7 6 6 5 5 4 3 2 1 0 -0 -0 -1 -2 -3 -2 -3 -3
22 22 22 22 21 20 19 19 18 17 17 16 15 15 14 11 10 10 10 9 9 8 7 6 5 5 5 5 4 3 2 1 0 0 -1 -1 -1 -3 -3 -3 -3 -3 -3
22 22 22 21 21 19 18 17 16 17 15 14 14 13 12 10 10 10 9 8 7 6 5 4 4 3 3 2 1 0 0 -0 -1 -1 -1 -2 -4 -4 -4 -4 -3 -3 -3
22 22 20 20 20 18 17 16 15 14 13 12 11 10 10 9 9 8 7 6 5 4 4 3 2 1 1 0 -1 -1 -1 -2 -2 -3 -4 -4 -4 -4 -4 -4 -4 -5 -5
21 19 18 18 18 17 16 14 13 12 11 10 9 9 8 7 6 6 5 4 4 3 2 2 1 -0 -1 -1 -1 -2 -2 -3 -3 -3 -4 -4 -4 -4 -4 -5 -6 -7 -7
20 19 18 18 17 15 14 13 11 10 10 8 7 6 5 5 4 4 3 3 2 2 1 0 -0 -1 -2 -2 -2 -3 -3 -3 -4 -4 -4 -4 -5 -5 -6 -8 -8 -8 -8
18 18 17 16 15 12 11 10 10 9 8 7 5 4 4 3 2 1 1 1 0 0 -0 -1 -2 -2 -3 -3 -3 -4 -4 -4 -4 -5 -5 -6 -6 -7 -8 -9 -9 -9 -9
12 13 13 13 12 10 10 9 9 8 6 5 4 3 2 1 1 0 -0 -1 -1 -1 -1 -2 -2 -2 -3 -4 -4 -5 -5 -5 -6 -6 -7 -8 -8 -9 -9 -10 -10 -10 -11
11 10 10 11 10 8 8 7 7 6 5 4 3 2 1 0 -0 -1 -1 -2 -2 -3 -3 -4 -4 -4 -5 -5 -6 -6 -6 -7 -7 -8 -9 -10 -10 -11 -11 -11 -11 -12 -12

GFSMW_850_temp_051.txt.gz
Temp
10 12 11 9 9 9 9 9 9 9 9 9 9 8 8 9 9 10 10 11 11 11 11 12 11 11 11 11 11 11 11 11 11 10 10 10 10 10 10 10 9 9 9
11 11 12 11 8 9 10 9 9 9 9 9 9 9 9 9 9 10 10 10 11 11 11 11 11 11 11 11 11 11 11 10 10 10 10 9 10 10 10 10 10 10 9
12 11 12 12 11 9 9 9 9 9 9 9 8 8 9 9 9 10 10 11 11 11 11 11 11 11 12 11 11 11 11 11 10 10 10 10 10 10 11 11 10 10 10
13 13 13 13 12 11 8 8 8 9 9 9 9 9 10 10 10 11 11 11 11 11 11 11 11 11 11 11 11 11 11 11 10 10 10 10 10 10 10 10 10 10 10
14 14 15 15 13 12 11 9 8 8 9 9 9 9 9 10 10 11 11 11 11 11 11 11 11 11 12 11 11 11 12 11 10 10 10 10 10 10 9 8 9 10 10
15 15 15 15 14 13 12 11 10 9 9 9 9 9 9 10 9 10 10 10 10 11 11 11 11 11 11 11 11 11 12 11 11 10 10 9 9 9 9 8 8 9 9
15 15 15 14 15 14 13 12 11 10 10 10 10 9 9 10 10 10 10 10 10 10 10 10 11 11 11 11 11 11 11 11 11 10 10 10 9 8 8 7 8 8 8
18 16 17 16 16 16 15 14 13 12 11 10 10 10 10 9 9 9 10 10 10 10 10 11 11 11 11 11 11 11 11 11 10 10 10 10 9 8 9 8 7 7 7
17 17 16 17 16 17 17 16 15 14 13 13 12 11 10 10 10 9 10 10 10 11 11 11 11 11 11 11 11 11 11 11 11 10 9 10 9 9 8 9 8 7 6
19 17 16 17 17 17 17 16 16 16 16 15 14 13 13 12 10 10 11 11 11 11 11 11 11 11 11 11 11 11 11 11 10 9 9 9 9 9 9 9 8 7 6
20 19 18 18 17 17 17 16 16 16 15 15 15 14 14 13 12 13 14 14 13 13 13 13 12 12 11 11 11 11 11 10 9 9 8 8 8 8 8 8 8 7 6
21 20 18 18 17 17 17 17 16 16 16 15 15 15 15 14 14 14 13 12 12 13 13 12 13 12 11 11 12 11 11 9 9 8 8 8 9 9 8 8 7 6 6
22 20 20 19 19 17 17 18 18 18 16 15 15 14 14 14 15 15 14 14 13 13 12 12 13 12 12 11 11 10 10 9 9 8 9 9 8 8 8 7 6 6 5
21 21 21 21 20 19 18 19 19 17 16 16 15 15 15 15 15 15 14 14 14 13 13 13 14 13 11 12 11 10 9 9 9 9 9 9 8 7 7 6 5 4 3
19 21 21 21 21 21 19 19 19 19 18 16 16 17 16 15 14 13 14 14 14 14 13 13 13 13 12 12 11 9 9 9 9 8 9 8 7 6 5 5 4 3 3
20 20 21 21 21 21 21 21 21 21 20 19 19 17 17 16 15 14 13 12 12 12 12 12 12 11 11 11 10 9 9 9 9 8 8 7 6 5 5 4 3 2 1
19 20 21 21 21 22 22 22 22 21 20 20 19 18 17 17 16 15 12 12 11 10 11 10 10 10 10 10 9 9 9 8 8 8 6 6 5 4 3 2 1 0 -0
20 20 21 21 21 21 22 21 21 21 21 20 20 19 18 18 17 15 13 11 10 9 9 9 9 9 10 9 9 8 8 7 7 6 5 5 4 3 2 1 0 -0 -1
15 17 19 21 20 21 21 21 20 20 20 20 19 18 17 16 15 14 13 10 9 10 10 9 9 9 9 9 8 8 7 6 5 4 4 3 3 2 1 -1 -1 -2 -2
16 17 19 19 19 20 20 20 20 19 19 19 18 16 15 14 14 12 10 9 10 9 9 9 9 8 7 7 6 6 5 5 4 4 3 1 1 -0 -1 -2 -2 -3 -3
15 17 17 18 18 19 19 18 17 16 17 16 15 15 14 13 11 10 9 9 9 8 8 7 7 6 5 5 4 4 4 3 3 2 0 -1 -1 -2 -3 -3 -4 -4 -4
12 12 14 17 17 18 18 17 15 15 14 13 13 11 10 9 9 9 9 8 8 7 6 5 4 3 3 3 2 2 1 1 1 -1 -1 -2 -2 -3 -3 -4 -4 -4 -4
10 9 9 14 14 16 14 14 13 11 11 10 9 10 9 9 9 8 8 7 6 4 4 3 3 2 1 1 -0 -1 -1 -1 -2 -2 -3 -3 -4 -4 -5 -5 -5 -5 -6
7 7 7 8 10 10 10 10 11 9 9 9 9 9 8 8 7 6 5 4 4 3 3 2 1 1 -0 -1 -1 -2 -2 -2 -3 -3 -4 -4 -5 -6 -6 -7 -7 -8 -8
5 6 6 7 7 7 8 8 8 8 8 8 8 7 6 6 5 4 3 2 2 1 1 0 -0 -1 -1 -2 -2 -3 -3 -4 -4 -5 -6 -6 -6 -7 -7 -8 -9 -9 -10
3 5 5 5 6 6 7 6 6 7 8 7 6 4 4 3 2 2 1 0 0 -0 -1 -1 -2 -2 -3 -3 -3 -4 -5 -5 -6 -8 -7 -7 -8 -9 -10 -11 -12 -12 -12

GFSMW_850_temp_054.txt.gz
Temp
15 13 10 10 9 9 10 10 10 9 9 9 9 9 9 8 9 9 10 9 10 11 12 11 12 11 10 10 11 10 11 10 10 10 10 10 11 10 9 9 9 9 9
15 13 11 10 10 9 9 9 9 9 9 10 9 8 9 9 9 9 10 10 10 11 11 10 11 11 10 10 11 11 11 10 11 10 11 11 10 9 10 10 10 10 10
16 14 12 11 9 9 9 9 9 9 9 9 9 9 8 8 8 9 8 9 10 10 10 11 10 10 10 11 11 11 10 10 9 10 11 12 12 13 11 11 9 9 10
17 15 13 12 11 10 9 9 9 9 9 9 9 9 9 8 9 10 10 9 9 10 9 11 11 11 11 11 10 11 11 10 10 9 10 10 11 13 12 10 9 10 11
18 16 14 13 12 11 9 9 9 9 9 9 9 9 9 9 9 9 9 9 10 11 11 11 11 11 11 11 10 11 11 10 10 10 10 9 10 10 10 11 11 9 10
18 17 15 14 13 11 10 9 8 9 9 9 9 9 9 8 9 9 9 10 10 11 11 11 11 10 11 11 11 11 11 11 10 11 10 10 10 10 9 10 10 9 9
18 17 16 14 13 12 10 9 9 8 9 9 9 9 9 9 9 10 10 10 10 10 11 11 11 11 11 11 11 11 11 11 10 11 10 9 9 9 10 9 8 7 9
18 17 17 15 14 13 12 12 9 9 8 9 9 9 8 9 9 9 10 10 11 11 11 11 11 11 11 11 11 11 11 10 11 11 11 9 9 10 10 9 8 7 7
19 18 17 16 14 13 15 16 13 11 10 9 9 9 9 9 9 10 10 10 11 10 10 11 11 11 11 11 11 11 10 9 9 11 11 10 10 10 10 9 8 8 7
21 19 18 16 15 13 13 16 14 11 11 10 9 9 9 9 9 9 9 10 10 10 10 11 11 10 11 11 11 11 10 9 9 9 9 11 10 10 9 9 8 8 8
21 19 18 16 15 14 13 15 15 11 11 10 10 9 9 9 9 9 9 9 9 10 10 10 11 11 11 11 10 9 10 10 10 9 11 11 10 9 8 7 8 7 8
20 20 18 16 15 14 14 13 14 12 12 11 10 10 9 9 9 11 12 11 11 9 9 9 10 10 9 9 9 9 9 9 8 10 11 10 10 8 7 8 8 8 8
21 20 18 17 16 15 14 14 14 17 13 11 11 12 11 10 12 13 13 11 10 9 9 9 9 9 9 9 10 11 10 9 10 10 10 10 9 10 9 8 8 8 7
20 21 20 18 17 16 15 14 14 15 14 12 11 12 14 16 16 15 13 13 13 12 12 11 11 10 11 10 10 11 10 8 11 11 10 9 9 9 8 8 8 7 7
19 20 20 20 18 16 15 15 14 13 15 12 11 15 17 15 14 14 14 13 13 13 12 11 10 10 9 9 8 9 10 11 11 10 9 9 9 9 8 8 7 7 5
19 19 20 19 19 19 16 15 15 15 14 15 16 13 12 14 15 14 12 11 13 13 11 10 9 9 9 11 11 10 10 10 10 9 9 9 8 9 8 7 6 5 4
16 17 18 18 18 19 20 19 18 14 15 17 15 14 14 14 14 13 13 12 10 9 9 9 9 9 9 8 9 10 10 10 9 9 9 9 8 7 7 5 4 4 3
13 13 15 16 17 18 17 18 16 15 15 17 15 13 14 14 12 12 11 9 9 9 9 9 9 9 9 9 9 9 9 9 9 8 8 8 7 6 5 4 3 2 2
11 12 13 14 15 16 16 18 16 16 15 16 18 17 14 12 11 11 11 9 9 9 9 9 9 9 9 9 9 9 9 9 8 7 7 5 5 4 4 3 2 1 -0
11 10 10 11 13 15 15 16 18 16 15 16 14 14 14 12 11 11 11 13 11 9 9 9 9 9 9 9 8 8 8 7 6 5 4 3 3 3 1 -0 -0 -1 -2
9 9 9 9 11 12 13 16 17 16 14 13 14 13 11 11 11 12 11 11 10 9 9 9 8 8 8 7 6 6 5 5 5 4 3 1 0 -1 -1 -2 -2 -3 -4
8 8 7 7 7 8 10 12 13 13 13 13 13 13 12 11 11 10 10 9 9 9 8 8 7 6 5 4 3 3 3 3 3 2 0 -1 -2 -2 -3 -3 -4 -4 -7
6 4 4 4 5 7 7 8 11 11 10 11 10 10 9 9 9 9 9 8 8 7 7 5 4 3 2 2 1 1 1 0 0 -1 -2 -3 -3 -3 -4 -4 -7 -7 -6
5 2 3 3 4 5 6 6 7 7 8 8 9 9 9 8 8 8 8 7 6 5 4 3 3 2 1 0 -0 -1 -1 -2 -2 -3 -3 -3 -4 -6 -7 -9 -8 -8 -8
5 3 1 2 2 2 4 5 6 6 7 8 7 7 7 7 5 5 4 3 2 2 2 1 1 0 -1 -2 -2 -2 -3 -3 -4 -4 -5 -7 -8 -9 -10 -9 -9 -9 -10
3 1 -2 1 1 0 2 4 4 4 5 5 4 3 3 3 3 2 1 -0 -0 -0 -1 -1 -1 -2 -2 -3 -4 -4 -4 -5 -6 -6 -7 -9 -10 -10 -10 -11 -12 -13 -14

GFSMW_850_temp_057.txt.gz
Temp
20 17 14 13 12 11 10 10 10 10 9 9 9 9 9 9 8 9 9 10 10 10 12 12 11 11 11 11 11 11 11 11 12 12 12 11 10 10 10 10 10 10 9
20 17 15 13 12 10 10 10 10 9 9 9 9 9 9 8 9 10 10 10 11 11 11 11 11 11 11 11 10 10 11 11 11 12 12 12 11 10 10 10 10 10 10
21 18 16 13 11 11 10 10 10 10 9 9 9 9 8 8 8 8 9 10 11 9 11 10 10 11 11 11 10 10 11 11 11 11 12 13 14 13 12 12 10 10 9
21 20 17 15 12 12 10 10 9 10 9 9 9 9 9 8 9 8 9 9 11 11 11 10 10 11 11 11 10 10 10 11 12 10 11 12 12 13 12 11 11 10 10
22 21 18 16 14 13 10 9 9 9 10 9 9 9 9 9 9 9 9 9 9 10 9 10 10 10 10 10 11 10 10 10 11 12 11 10 11 11 11 12 11 10 10
22 21 19 17 15 14 12 10 10 10 10 9 9 9 9 9 9 9 9 9 9 10 9 10 10 10 10 10 10 10 10 10 11 11 11 10 10 11 11 11 11 11 10
23 21 20 18 16 14 13 10 9 9 10 9 10 9 9 9 9 9 10 9 9 9 10 10 10 10 10 11 11 11 10 11 11 11 10 11 11 10 11 11 11 11 10
23 22 20 18 17 15 13 12 10 10 9 9 9 9 9 9 8 9 9 10 11 11 11 10 10 11 11 11 11 11 10 10 11 11 10 10 11 10 11 10 10 9 8
23 22 21 19 18 16 14 13 12 11 10 9 9 9 10 9 9 9 9 9 10 11 11 11 11 11 11 11 11 11 10 10 10 11 11 11 11 10 10 10 9 9 8
24 23 21 20 19 17 16 13 13 13 12 10 10 9 10 10 10 9 10 10 10 10 10 11 11 11 11 11 11 11 11 10 10 10 10 10 10 10 10 9 9 9 9
22 23 22 21 20 18 16 14 13 14 13 12 10 9 9 10 10 10 10 10 10 10 10 10 10 10 10 10 10 10 10 10 10 10 10 10 9 10 10 9 9 9 7
23 22 22 21 20 18 17 15 13 13 14 13 12 11 11 10 10 10 10 10 10 10 10 10 11 10 10 10 10 10 9 9 9 10 9 9 10 9 9 9 10 9 9
22 22 22 21 19 18 17 16 14 13 14 13 13 12 11 11 11 11 11 10 10 10 10 10 10 10 9 9 9 9 9 9 9 9 9 9 9 9 9 9 9 9 10
21 22 22 22 20 19 18 17 16 14 14 14 13 12 12 13 13 12 11 11 11 10 10 10 10 10 9 9 9 9 10 10 9 9 9 9 9 10 9 9 9 9 9
19 19 20 21 21 21 19 18 17 16 15 14 14 13 14 13 11 11 11 11 10 10 10 10 10 10 9 10 9 9 9 10 9 9 9 9 9 9 9 9 9 9 8
17 16 16 17 18 20 20 19 18 17 16 14 14 14 13 12 11 11 11 10 10 10 10 10 10 9 9 10 10 9 9 9 9 9 9 8 8 9 9 9 8 7 8
15 14 14 15 15 17 18 18 19 17 16 15 14 14 13 12 12 11 11 11 10 10 10 10 10 10 9 9 10 9 9 9 9 9 9 9 9 9 8 8 8 7 7
14 14 14 13 13 14 16 17 18 18 17 16 15 14 14 13 12 12 11 11 11 10 10 10 9 10 10 9 9 9 9 8 8 8 8 8 9 8 8 7 6 4 4
13 12 12 12 12 12 13 15 17 17 18 17 16 15 14 13 13 12 12 11 11 11 10 10 10 10 9 9 9 9 9 9 9 8 8 7 7 7 7 5 4 3 2
12 11 10 10 10 10 11 13 16 17 17 18 17 16 15 14 13 13 12 11 10 10 10 9 9 9 9 9 9 9 9 9 8 8 7 6 5 5 4 3 2 2 0
11 9 8 7 6 6 5 8 11 14 16 16 17 16 15 14 13 12 12 11 10 9 9 9 9 9 9 9 8 8 8 7 6 5 4 2 1 1 1 0 -0 -1 -2
9 8 6 4 6 6 6 6 7 10 12 14 14 15 14 14 13 12 12 11 10 10 9 8 8 8 7 8 6 4 4 4 4 2 0 -1 -1 -1 -2 -3 -3 -3 -3
5 4 3 3 6 5 4 4 6 6 8 8 11 12 12 11 11 10 10 10 9 9 8 7 6 6 4 4 4 2 2 1 1 -0 -1 -2 -3 -3 -3 -3 -4 -4 -5
2 1 2 3 4 6 3 1 2 4 5 7 7 8 8 8 9 8 8 8 7 6 6 5 4 3 1 1 1 0 0 -1 -1 -2 -3 -3 -3 -4 -4 -5 -6 -6 -8
-2 -2 1 -2 2 4 1 -0 -1 0 2 4 4 5 5 5 4 5 4 4 3 4 3 1 1 -0 -2 -2 -3 -2 -3 -3 -3 -4 -4 -5 -6 -7 -8 -8 -9 -10 -10
-3 -2 -2 -1 -2 2 -0 -2 -1 -2 -1 0 -0 0 1 0 -1 -1 -2 -2 -1 -0 -0 -1 -2 -3 -4 -4 -4 -4 -4 -5 -6 -6 -7 -7 -8 -9 -10 -11 -12 -12 -13

GFSMW_850_temp_060.txt.gz
Temp
21 19 17 15 14 12 11 10 11 11 11 11 9 9 9 9 9 8 9 9 10 11 11 11 12 12 12 12 12 12 12 12 12 12 12 11 11 11 11 10 10 10 10
21 19 16 15 13 12 10 10 10 11 11 9 9 9 9 9 8 8 9 9 10 10 11 11 11 11 11 11 11 11 11 12 12 12 12 11 11 11 11 10 10 10 10
22 19 16 14 13 12 10 10 10 11 10 9 9 9 9 9 9 8 9 10 10 10 10 11 11 11 11 11 11 11 11 11 11 12 12 12 11 11 11 11 10 10 10
23 20 17 15 13 12 11 10 10 10 10 9 9 9 9 9 8 9 10 9 10 10 10 10 11 12 11 11 10 11 11 11 11 11 12 12 12 12 11 11 11 10 10
24 21 18 16 14 12 11 10 10 9 10 9 9 9 9 9 9 9 9 9 9 10 10 10 11 12 12 11 11 11 11 11 11 11 12 12 12 11 11 11 11 11 11
24 22 20 17 15 13 12 10 10 10 9 10 9 9 9 9 8 9 9 9 10 10 11 11 11 10 11 11 10 11 11 11 11 11 11 11 12 12 12 11 11 11 11
24 23 20 18 16 14 13 11 10 10 10 10 10 9 9 9 9 10 10 9 10 10 11 10 10 11 11 10 11 11 11 11 11 11 11 11 11 12 11 11 11 11 11
24 23 21 19 17 15 14 13 10 9 10 9 9 9 9 9 9 9 9 9 9 9 10 10 11 11 10 10 10 11 11 11 11 11 11 11 11 11 11 11 11 10 10
24 23 22 20 18 16 14 13 11 10 9 9 9 9 9 9 9 9 9 9 10 10 9 10 11 11 11 10 10 11 11 11 11 11 12 11 11 11 11 11 11 11 10
24 23 22 21 19 18 16 14 13 11 10 10 9 9 9 9 9 9 9 9 10 10 10 10 11 11 10 10 10 11 11 11 11 11 11 11 11 11 11 11 10 10 10
23 23 23 22 20 19 17 15 14 13 12 11 10 10 10 10 9 9 9 10 10 10 10 10 10 10 10 10 10 10 11 11 11 10 10 10 10 10 10 10 10 10 10
23 23 22 22 21 20 18 16 15 14 13 12 12 11 11 10 10 11 11 10 10 10 11 11 10 10 11 11 11 10 10 10 10 10 10 10 10 9 10 9 9 10 10
21 21 21 21 21 20 19 18 16 15 14 13 13 12 12 11 12 12 11 11 10 10 10 10 10 10 11 11 11 10 10 10 10 10 10 10 10 10 10 10 10 9 10
20 18 18 17 18 20 19 19 18 16 15 14 14 13 12 13 14 14 12 11 11 11 10 10 10 11 10 10 10 10 10 10 10 10 10 10 10 10 10 9 9 9 9
17 16 16 16 16 16 17 18 18 17 16 15 14 14 13 12 11 11 12 12 11 10 10 10 10 10 10 10 10 10 10 10 9 9 9 9 10 10 10 10 9 9 9
15 15 15 15 14 14 15 15 16 18 17 16 15 15 14 13 12 11 11 11 11 11 10 10 10 10 10 10 10 10 10 10 9 9 10 10 10 10 10 9 8 8 8
14 14 13 13 13 12 13 14 15 16 17 17 17 15 14 14 13 12 11 11 11 11 10 10 10 10 10 10 10 10 10 9 9 9 9 9 9 9 9 9 9 8 8
13 12 12 11 11 11 11 12 14 15 16 17 17 16 15 15 14 13 12 12 11 11 10 10 10 10 10 10 10 10 9 9 9 9 9 9 8 8 9 9 9 8 7
12 11 10 9 8 8 9 10 13 14 15 16 17 18 17 15 14 14 13 12 11 11 11 10 10 10 10 10 10 10 9 10 9 9 9 8 9 9 8 8 8 6 5
10 9 8 7 6 7 8 8 9 10 11 12 13 15 17 17 15 14 14 13 12 11 11 11 10 10 10 10 10 10 9 9 9 9 8 8 8 8 7 6 4 4 1
8 7 6 5 3 5 6 5 5 7 9 10 12 14 16 16 16 15 14 13 12 12 11 11 10 10 10 10 9 9 9 9 9 8 7 6 6 4 3 2 1 -0 -3
6 4 3 3 4 5 4 3 4 4 6 7 7 10 12 14 15 15 14 13 13 12 11 10 9 9 9 9 9 9 8 8 7 6 4 1 0 0 -1 -2 -2 -3 -4
2 1 0 0 2 3 3 2 1 3 4 5 5 6 7 10 11 13 13 13 12 11 10 9 8 8 5 6 5 4 3 2 3 1 -1 -1 -3 -3 -3 -3 -4 -4 -4
-2 -3 -2 -2 -1 -1 0 -0 -1 -1 1 3 2 3 4 6 7 8 8 8 9 9 8 7 5 3 2 0 -1 -1 -1 -1 -1 -3 -5 -4 -4 -4 -5 -5 -5 -6 -6
-3 -3 -3 -4 -3 -3 -2 -2 -2 -2 -1 -0 -1 -1 -1 -0 1 3 3 5 3 4 4 2 -0 -1 -3 -3 -3 -3 -4 -4 -4 -4 -4 -4 -5 -6 -6 -7 -7 -8 -8
-5 -4 -4 -4 -5 -5 -4 -4 -3 -4 -4 -2 -3 -4 -5 -5 -7 -5 -4 -5 -2 -2 -3 -3 -3 -4 -4 -5 -5 -4 -4 -5 -5 -5 -6 -7 -8 -8 -9 -10 -11 -11 -11

GFSMW_850_temp_063.txt.gz
Temp
20 19 18 17 15 14 13 10 11 11 10 10 11 11 10 10 10 10 10 10 10 10 10 11 11 11 12 12 11 11 12 11 11 11 11 10 11 11 10 10 10 10 10
20 18 18 17 16 14 13 10 10 11 10 10 10 9 9 9 10 10 10 10 9 10 10 11 11 11 11 11 12 12 11 12 12 11 11 11 11 11 11 11 10 10 10
20 18 18 17 16 14 13 10 9 10 10 9 9 9 9 9 9 9 9 10 10 10 10 10 11 11 10 10 11 12 11 12 11 12 11 11 11 11 11 10 11 10 10
20 19 18 17 16 14 13 10 10 10 10 9 9 9 9 9 9 9 8 10 10 9 10 9 10 10 10 12 12 11 11 10 11 12 11 12 12 11 11 11 11 11 10
21 20 19 18 17 15 13 12 9 10 9 9 9 9 9 9 9 9 9 9 10 10 11 11 11 11 12 12 11 11 11 11 11 11 12 12 12 11 11 11 12 11 10
20 21 20 18 17 16 14 12 10 10 10 9 9 9 10 10 10 10 9 9 10 10 10 10 11 11 11 11 11 12 12 12 11 11 11 12 12 12 11 11 11 12 12
20 19 18 17 16 16 15 13 11 9 9 9 9 9 10 10 10 10 10 9 9 9 10 10 11 11 11 11 11 11 12 12 11 11 11 11 11 11 11 11 11 11 11
20 19 19 19 17 17 16 14 12 10 9 9 9 9 9 9 10 9 10 10 10 10 10 11 11 11 11 10 11 11 11 11 11 11 11 11 11 11 11 11 11 11 11
21 21 19 19 18 17 17 16 14 13 9 9 9 9 9 9 9 9 9 10 10 10 10 10 10 10 11 10 10 10 10 10 10 11 12 11 11 11 12 11 11 11 10
22 20 20 20 19 19 18 17 16 15 14 9 9 9 9 9 9 9 10 10 11 10 10 10 10 10 10 11 10 10 11 11 11 11 11 11 11 11 11 11 11 11 11
22 21 20 20 20 19 18 16 16 15 14 13 9 9 9 9 9 9 9 10 10 10 10 10 11 11 11 11 10 10 11 11 11 11 11 11 11 11 11 11 11 11 11
18 18 17 17 17 19 17 17 16 16 15 15 13 10 9 9 9 9 9 9 9 10 10 10 10 10 11 11 11 10 11 11 11 11 11 11 11 11 11 11 11 11 10
16 16 16 15 15 15 15 17 16 16 15 15 14 13 11 10 9 9 9 9 9 10 10 10 10 10 10 10 10 11 11 11 11 10 11 11 11 11 11 11 10 10 10
15 15 14 14 14 14 14 14 13 14 16 14 14 14 14 13 12 10 10 10 9 9 10 10 11 11 11 11 11 11 11 11 10 10 10 11 11 11 11 10 10 10 9
14 13 12 13 13 13 14 13 13 13 13 14 15 15 15 14 14 13 12 10 9 10 9 10 10 10 11 11 11 11 11 10 10 10 10 11 10 10 10 10 10 9 9
13 12 13 13 11 12 12 12 13 13 13 13 13 14 15 14 14 14 13 13 12 12 9 10 9 9 10 11 11 10 10 10 10 10 10 10 10 10 9 9 9 9 9
11 10 10 11 11 11 11 12 12 12 12 12 12 13 13 14 15 14 13 13 13 12 12 11 10 10 10 10 10 10 10 10 10 10 10 10 10 10 9 9 9 9 9
9 9 8 9 10 10 11 12 12 12 12 12 12 13 12 12 13 14 13 13 13 12 12 12 11 10 10 10 10 10 10 10 10 10 10 10 10 10 9 9 9 9 9
8 8 7 7 8 8 8 9 10 11 11 12 12 11 11 13 13 12 14 14 13 12 11 12 11 10 10 10 10 10 10 10 10 10 9 9 9 9 9 9 9 8 8
7 6 5 5 6 6 6 7 8 9 10 9 10 10 10 11 12 12 12 13 14 14 12 11 11 11 10 10 10 10 10 10 10 9 9 9 9 9 9 9 9 7 3
6 6 4 3 2 2 3 3 3 5 6 7 8 8 9 9 10 11 13 13 13 14 12 11 11 10 10 10 10 10 10 10 9 9 9 8 8 8 8 7 3 2 -0
7 7 6 5 4 3 2 2 1 0 0 3 5 5 6 7 8 8 10 11 12 13 12 11 11 10 10 10 10 9 9 9 9 8 6 5 3 2 1 0 -1 -2 -3
3 3 2 1 1 1 2 2 2 2 0 -1 -1 -0 2 4 5 5 6 7 8 9 9 9 9 8 7 6 7 8 8 7 5 3 0 -2 -3 -4 -3 -3 -5 -4 -4
-1 -1 -0 0 0 -0 -1 -1 -0 -1 -3 -3 -3 -2 -1 -0 2 3 3 3 4 5 4 3 5 3 3 -0 -2 -0 0 1 -1 -3 -5 -5 -4 -4 -5 -6 -5 -5 -5
-1 -1 -1 -2 -2 -2 -2 -2 -2 -3 -4 -4 -4 -4 -4 -4 -2 -2 -2 -2 -2 -2 -2 -3 -5 -3 -4 -5 -4 -4 -4 -4 -4 -4 -4 -4 -6 -5 -6 -6 -7 -8 -8
-4 -4 -4 -5 -5 -5 -6 -5 -5 -5 -5 -5 -6 -6 -6 -7 -7 -6 -5 -6 -6 -5 -5 -5 -6 -7 -7 -6 -6 -6 -5 -5 -5 -5 -6 -7 -8 -9 -9 -10 -9 -10 -10

GFSMW_850_temp_069.txt.gz
Temp
21 19 18 17 16 15 15 15 15 13 11 11 11 10 10 11 11 11 11 11 11 11 11 11 11 12 12 12 12 11 11 11 10 10 10 10 10 10 10 10 11 11 10
18 18 18 17 16 16 15 15 14 13 11 12 12 11 10 10 10 11 11 11 11 10 11 11 11 11 12 12 12 11 11 11 10 10 10 9 9 9 10 10 10 10 10
18 18 18 17 16 15 16 15 14 14 11 11 11 11 10 10 10 10 10 10 10 10 10 10 10 11 12 12 12 11 11 11 10 10 10 9 9 9 9 9 10 10 10
18 18 18 17 16 16 15 14 14 13 11 10 10 10 10 10 10 10 10 10 10 10 10 10 10 10 11 11 11 11 11 11 11 10 10 11 11 10 9 10 10 10 10
20 18 19 19 17 16 15 14 13 12 12 10 11 10 9 9 9 10 10 9 10 10 10 9 9 9 10 11 11 11 11 11 11 11 10 11 11 11 11 10 11 10 10
18 18 16 17 16 15 15 14 13 12 11 11 10 10 10 9 9 9 8 9 9 10 9 9 9 9 10 10 10 11 11 11 11 11 11 11 11 11 11 10 11 12 12
18 16 16 16 16 16 15 13 13 12 11 10 10 10 10 9 9 9 9 9 9 9 9 9 9 9 10 10 10 9 10 10 11 11 11 11 11 12 11 10 11 11 11
19 18 18 18 18 16 15 14 13 12 11 9 9 9 9 9 8 9 8 9 9 10 10 9 9 9 9 10 10 10 10 9 10 11 11 11 11 12 11 11 11 11 11
17 16 16 17 18 17 16 15 14 12 12 11 9 9 9 9 10 9 9 9 9 9 9 9 9 9 9 9 10 9 9 9 9 10 10 11 12 11 11 11 11 11 10
14 14 15 17 17 16 15 14 13 12 12 11 10 9 8 8 10 10 10 9 9 9 9 9 9 10 9 9 9 9 9 9 9 10 10 11 11 11 11 11 11 11 11
13 13 12 13 14 14 13 13 12 11 10 10 10 9 8 8 9 10 10 10 9 9 9 10 9 9 9 9 10 10 10 10 10 10 11 11 11 11 11 11 11 11 11
13 13 13 12 13 13 13 13 12 12 11 11 10 10 10 8 8 9 10 10 10 10 10 9 9 9 9 9 9 9 10 10 10 11 10 11 11 11 11 11 11 11 11
8 9 10 10 10 10 10 10 10 11 10 10 10 10 10 9 9 8 8 9 9 9 9 9 9 9 9 9 10 10 10 10 11 10 10 10 11 11 11 11 11 11 11
7 7 8 8 9 9 9 9 10 10 10 10 10 10 10 10 10 9 9 9 9 8 8 8 8 9 9 9 9 9 10 10 10 10 10 10 10 11 11 10 10 10 10
6 7 7 8 9 9 9 9 10 10 10 10 9 9 9 10 10 9 9 9 9 9 9 8 9 9 8 9 9 9 9 9 10 10 10 10 10 10 11 10 10 10 9
6 6 8 8 9 9 9 9 10 10 9 9 9 9 9 9 9 9 9 10 9 9 9 9 9 8 8 8 8 8 9 9 9 9 10 10 10 10 10 10 9 9 8
4 5 8 8 7 8 8 9 9 9 10 10 9 9 9 9 9 9 9 9 9 9 9 9 9 10 10 10 10 9 8 8 8 9 9 10 10 10 10 10 10 9 9
5 4 6 8 8 8 8 8 10 10 10 10 10 10 9 10 9 9 9 9 8 8 8 8 9 9 10 10 10 10 9 8 9 8 9 9 9 9 9 10 9 9 9
3 5 6 6 8 8 8 8 8 8 9 10 10 10 10 9 9 9 9 9 9 9 9 8 8 8 8 9 9 9 9 9 9 9 9 9 9 9 9 9 9 10 9
2 4 4 5 6 6 6 6 7 7 7 7 8 8 7 7 8 8 8 8 7 7 7 8 8 8 9 9 9 9 9 9 9 9 9 8 8 9 9 8 9 9 8
2 3 3 4 4 4 4 5 5 6 5 5 5 6 6 7 7 6 5 4 3 4 4 4 4 5 6 7 9 9 9 9 8 8 9 8 9 8 8 8 7 7 6
0 -0 1 1 2 2 2 2 2 1 2 2 2 3 3 4 4 4 4 2 1 2 3 3 2 2 2 2 4 6 8 8 8 6 5 5 4 8 7 6 4 2 -2
-3 -3 -1 -1 -2 -2 -1 -1 -2 -2 -1 -1 -1 -1 -0 1 1 1 1 1 0 0 -1 -1 -2 -2 -2 -2 -1 -1 1 3 3 -0 -1 -4 -3 -1 -2 -2 -1 -3 -3
-3 -2 -2 -2 -3 -3 -3 -3 -4 -3 -3 -3 -3 -3 -2 -3 -2 -2 -3 -3 -3 -3 -4 -5 -5 -5 -5 -5 -5 -4 -4 -3 -3 -4 -4 -4 -4 -4 -4 -5 -5 -4 -5
-4 -3 -3 -4 -4 -4 -4 -3 -4 -3 -3 -3 -4 -4 -4 -4 -5 -5 -6 -6 -7 -5 -5 -6 -6 -7 -8 -8 -7 -6 -6 -5 -5 -6 -5 -5 -5 -6 -6 -7 -7 -7 -7
-6 -5 -5 -5 -5 -5 -5 -5 -5 -5 -5 -5 -5 -5 -5 -6 -6 -7 -7 -7 -7 -7 -7 -7 -5 -5 -7 -6 -6 -6 -6 -6 -6 -6 -6 -7 -7 -8 -8 -8 -9 -9 -9

GFSMW_850_temp_072.txt.gz
Temp
22 20 19 18 17 16 15 15 15 13 10 12 11 12 10 11 10 10 11 10 10 10 11 11 11 12 11 11 10 10 10 10 10 11 10 10 9 10 9 9 9 9 9
19 19 18 18 17 16 16 15 15 14 11 11 11 12 12 11 10 11 10 11 10 10 10 11 11 11 11 11 10 10 10 10 10 10 10 8 8 9 9 9 9 10 9
18 18 18 18 17 16 16 15 15 14 11 11 11 11 11 10 10 10 10 10 10 11 11 11 11 11 11 12 11 11 10 10 10 10 11 9 9 9 9 9 10 10 10
17 18 17 18 18 17 16 15 15 14 12 11 11 11 11 10 10 10 10 10 10 10 10 10 10 10 11 11 11 11 10 10 10 10 10 11 11 10 9 10 9 9 9
19 18 18 19 18 17 16 15 14 14 13 11 10 10 10 10 10 10 10 10 10 10 10 9 9 10 10 10 11 11 10 10 11 11 10 10 11 11 11 11 11 10 10
19 17 16 16 17 17 16 15 14 14 13 11 10 9 10 10 10 10 10 9 10 10 10 10 9 9 10 10 11 11 11 11 11 11 11 10 10 10 11 11 11 11 11
21 19 16 15 16 17 16 15 15 15 14 12 9 10 9 9 9 9 9 9 9 9 9 10 10 9 10 9 10 10 11 11 11 11 11 11 10 11 11 11 11 11 11
19 19 18 17 17 16 16 16 15 15 14 12 9 9 9 9 8 8 9 8 8 8 9 9 9 9 9 9 9 10 10 9 10 10 10 10 11 11 11 11 10 11 11
17 18 16 15 16 16 16 15 15 14 13 13 11 9 9 9 8 8 8 8 8 9 9 9 9 9 9 9 9 9 9 9 9 10 9 9 10 11 11 10 11 11 10
14 13 12 11 11 12 13 14 14 14 14 13 12 10 9 9 8 8 8 8 8 9 9 9 9 9 8 9 9 9 9 9 9 9 9 9 9 9 10 10 10 11 10
11 11 10 10 10 10 10 12 13 13 13 12 11 11 10 9 9 8 8 8 9 9 9 9 9 9 8 9 9 9 9 9 10 9 9 8 9 9 9 10 10 10 10
8 9 10 10 10 10 10 11 13 12 12 12 11 11 10 10 9 9 9 9 8 8 8 9 9 9 9 9 9 9 9 9 9 9 9 9 10 10 10 10 10 10 11
5 7 8 8 9 9 9 10 10 10 10 10 10 10 11 10 10 10 10 10 10 10 9 8 8 9 9 8 8 9 9 9 9 9 9 9 9 9 10 10 10 11 11
4 5 6 6 8 9 9 9 9 9 9 10 10 10 10 10 10 10 9 9 10 9 9 9 9 9 9 8 8 8 8 9 9 9 9 9 9 10 10 10 10 10 10
4 4 5 6 6 7 7 8 9 9 10 9 8 9 9 9 9 9 9 9 9 9 9 9 9 8 8 8 8 8 8 8 8 8 9 9 9 10 10 10 10 10 10
2 2 4 5 6 7 7 8 8 7 8 8 8 8 8 8 8 9 9 9 9 9 9 9 9 9 9 9 9 8 8 8 8 8 9 9 9 9 10 10 10 10 8
2 1 2 3 5 6 6 7 7 6 7 8 8 8 8 8 8 8 8 8 8 8 8 8 8 8 8 9 9 9 9 8 8 8 8 8 8 9 9 9 9 8 8
3 3 2 2 4 5 5 6 6 6 6 7 7 8 8 8 8 8 8 8 8 8 8 8 8 8 8 8 8 8 8 8 8 8 8 8 8 8 8 8 8 8 9
3 3 3 4 2 5 4 4 5 5 6 6 7 8 8 7 8 7 7 8 7 7 7 7 7 7 7 8 8 8 8 8 8 8 8 8 8 9 8 8 8 8 7
1 2 2 2 3 5 4 4 5 5 6 5 5 5 6 6 7 7 7 6 6 4 4 4 3 3 4 5 6 7 6 7 7 7 7 7 7 8 8 8 7 8 7
-0 -1 1 3 3 3 2 3 3 3 2 2 2 3 3 4 4 3 3 1 1 1 1 1 1 1 2 2 3 4 5 5 5 6 5 6 6 7 7 7 7 6 5
-1 -1 1 1 1 1 1 2 3 1 0 0 1 1 2 2 1 1 -0 -1 -2 -1 -1 -0 -0 -1 -1 -1 0 2 3 3 3 2 1 -0 -1 0 2 3 3 3 2
-3 -3 -1 -1 -1 -1 -0 -1 -2 -1 -1 -0 0 -0 -1 -0 -0 0 -0 -1 -2 -2 -3 -3 -2 -3 -3 -3 -3 -2 -2 -2 -1 -3 -4 -3 -3 -3 -2 -3 -4 -4 -4
-5 -5 -5 -4 -4 -3 -3 -3 -3 -2 -1 -1 -1 -1 -0 -1 -1 -1 -1 -2 -3 -3 -4 -5 -5 -5 -5 -5 -5 -5 -5 -5 -5 -5 -5 -5 -6 -6 -6 -6 -6 -6 -6
-6 -5 -6 -5 -5 -5 -5 -4 -5 -4 -4 -4 -3 -3 -3 -3 -3 -4 -5 -5 -6 -6 -6 -6 -6 -6 -6 -7 -6 -6 -6 -5 -5 -5 -5 -5 -6 -6 -7 -8 -8 -8 -8
-7 -7 -7 -7 -6 -5 -5 -5 -5 -5 -5 -5 -6 -6 -6 -6 -6 -6 -7 -7 -7 -7 -7 -7 -7 -8 -8 -7 -7 -6 -6 -6 -6 -5 -6 -6 -6 -7 -7 -8 -8 -8 -9

GFSMW_850_temp_075.txt.gz
Temp
21 20 21 19 18 17 16 16 15 14 12 11 11 11 11 10 10 10 11 11 10 10 10 10 10 10 10 11 11 10 10 10 10 10 10 9 9 10 9 9 9 9 9
20 20 20 19 18 18 17 16 16 14 12 12 10 11 11 10 10 10 10 11 10 10 10 10 10 10 10 10 10 10 10 10 10 10 8 8 8 8 9 9 9 9 10
20 20 20 19 17 18 18 17 16 15 13 10 10 10 11 10 10 10 10 11 10 10 10 10 10 10 11 11 10 10 10 9 10 10 10 8 10 9 9 9 9 9 10
20 20 19 18 18 17 17 16 16 15 12 10 10 10 10 10 10 10 10 10 10 10 10 10 10 11 11 11 11 10 10 10 10 10 10 11 11 10 9 10 10 9 10
20 20 19 17 17 16 17 15 16 15 13 10 10 10 10 10 10 10 10 10 10 10 10 10 11 11 11 11 11 11 10 10 10 10 10 11 11 11 11 10 10 10 10
19 19 17 16 16 15 16 15 15 14 13 10 9 10 10 10 10 10 10 10 10 10 10 10 10 10 10 11 11 11 10 10 10 10 10 11 11 11 11 11 11 11 11
17 18 16 16 15 16 16 15 15 14 13 11 9 9 9 10 10 10 10 10 10 9 10 10 9 10 9 9 10 10 10 10 10 10 10 11 11 11 11 11 11 11 11
16 17 16 15 15 14 15 14 15 14 13 12 9 9 9 9 9 9 9 9 9 9 9 10 10 9 9 9 9 9 10 10 10 10 10 10 10 11 11 11 11 11 11
15 16 14 13 13 11 11 12 14 14 13 12 11 9 9 9 9 8 8 8 9 9 9 9 9 10 9 9 9 9 9 9 10 10 10 10 10 10 10 10 10 11 10
11 13 11 11 10 9 11 11 12 14 13 12 11 10 9 9 8 8 8 8 8 8 8 8 9 9 9 9 9 8 8 9 9 9 9 9 9 9 10 9 9 10 9
9 9 9 9 9 10 10 10 11 13 13 12 11 10 10 9 8 8 8 8 8 8 8 9 9 9 9 9 9 9 9 8 9 9 9 9 10 9 10 9 9 9 9
7 9 9 9 9 9 9 10 10 11 12 12 11 11 10 9 9 8 8 8 8 8 8 9 8 9 9 9 9 9 9 9 9 9 9 9 9 9 8 9 9 8 9
4 7 8 8 8 8 9 9 9 9 9 10 10 10 10 10 9 9 9 8 8 8 8 8 8 9 9 9 9 9 9 9 9 9 9 9 9 9 9 9 9 9 9
2 3 5 6 7 7 8 8 9 9 9 9 9 9 9 9 9 9 9 9 8 8 8 9 9 9 9 9 9 9 9 9 9 9 9 9 9 9 9 9 9 9 9
1 1 2 3 5 6 7 8 8 9 10 9 9 9 9 9 9 9 9 9 9 9 9 8 8 9 9 9 8 8 8 8 8 8 8 8 8 9 9 9 9 9 8
0 -0 1 2 2 3 4 6 8 8 8 8 8 8 8 8 9 9 9 9 9 9 9 8 8 9 8 8 8 8 8 8 8 8 8 8 8 9 9 8 8 8 7
0 1 2 2 3 3 4 5 5 5 7 9 8 8 7 7 8 8 8 8 8 8 8 8 8 8 8 8 8 8 8 8 8 8 8 8 8 8 8 8 8 7 8
1 1 2 3 1 0 2 3 6 7 9 8 7 7 7 7 7 7 7 7 7 7 7 7 7 7 7 8 8 8 8 8 8 8 8 7 7 7 7 8 8 8 8
-2 -0 0 1 2 3 4 6 6 5 4 4 5 6 6 6 7 6 6 6 6 6 6 6 6 6 6 7 7 7 7 7 7 7 7 7 7 7 7 7 7 7 7
-1 -1 -0 1 1 1 1 1 2 1 4 3 2 2 4 5 5 5 5 3 2 1 1 1 1 1 1 2 3 5 5 5 5 5 5 5 6 6 7 7 7 6 6
-2 -2 -2 -1 -1 -1 -0 1 -0 0 -1 0 1 2 3 3 3 1 2 1 -1 -1 -1 -1 -1 -1 -1 1 2 3 3 3 2 2 2 2 2 2 4 5 5 5 4
-3 -3 -3 -3 -3 -3 -3 -2 -2 -3 -2 -1 -0 0 0 1 1 1 0 -1 -2 -2 -2 -2 -2 -2 -2 -1 -1 -2 -3 -2 -1 -1 -2 -2 -2 -1 0 1 2 1 -1
-4 -4 -4 -4 -4 -3 -3 -3 -4 -3 -3 -2 -1 -1 -1 -1 -2 -2 -2 -2 -2 -2 -3 -3 -3 -4 -4 -3 -3 -3 -3 -4 -3 -4 -4 -5 -5 -5 -5 -6 -5 -5 -5
-4 -5 -5 -5 -4 -4 -4 -5 -5 -4 -3 -2 -2 -3 -2 -2 -2 -2 -3 -3 -4 -4 -4 -5 -5 -6 -5 -5 -5 -5 -5 -5 -5 -5 -5 -5 -5 -5 -5 -6 -6 -6 -6
-4 -4 -5 -5 -6 -5 -5 -4 -5 -5 -4 -4 -4 -3 -3 -3 -3 -3 -4 -4 -5 -5 -5 -6 -6 -5 -6 -6 -6 -6 -6 -6 -6 -6 -6 -5 -5 -6 -6 -6 -6 -7 -8
-6 -5 -6 -6 -6 -5 -5 -5 -5 -5 -4 -4 -4 -4 -4 -4 -4 -5 -5 -5 -5 -5 -5 -6 -6 -7 -7 -7 -6 -6 -6 -6 -6 -5 -5 -6 -6 -7 -8 -8 -8 -8 -7

GFSMW_850_temp_078.txt.gz
Temp
21 21 20 17 16 15 14 17 17 16 15 14 12 11 11 11 11 11 11 11 11 11 10 10 11 10 10 10 10 10 10 10 10 10 10 9 9 9 9 8 9 9 9
21 21 20 17 16 15 14 17 17 16 15 14 12 11 11 11 11 11 11 11 11 11 11 11 11 10 10 9 10 10 10 10 10 11 10 9 8 8 9 9 9 9 9
21 21 19 17 16 15 14 15 15 14 15 12 11 11 11 11 10 10 10 11 11 10 10 10 10 10 10 10 10 10 10 10 10 11 11 11 11 10 9 8 8 8 8
21 21 21 17 16 15 14 13 12 12 12 11 11 12 11 10 11 11 11 11 11 10 10 10 10 10 10 10 10 9 10 10 10 10 11 12 13 12 10 9 8 9 9
21 21 21 19 16 15 13 13 12 12 11 11 10 10 11 10 10 10 10 10 11 10 10 10 10 10 10 10 10 9 9 10 10 10 10 10 11 12 12 11 9 9 10
19 20 19 17 16 15 13 12 11 12 11 11 10 11 11 10 10 10 10 10 10 10 10 10 10 9 9 10 10 10 10 10 9 9 10 10 11 11 12 12 12 11 10
18 19 17 16 15 14 12 12 11 11 12 11 10 10 10 10 10 10 10 10 10 10 10 10 9 10 10 10 10 11 11 10 9 9 10 10 10 11 11 12 12 11 11
17 18 17 16 15 13 11 11 11 11 13 10 10 10 10 10 10 10 10 10 10 10 10 9 10 9 10 10 10 10 10 10 10 9 9 9 10 10 10 11 11 11 11
15 17 16 15 14 13 11 11 10 11 13 13 9 9 10 10 10 10 10 10 10 9 9 9 9 10 9 9 9 10 10 10 9 9 10 10 10 10 9 10 10 10 11
12 14 14 13 13 11 11 11 10 11 13 12 10 10 9 9 10 9 9 9 9 9 9 9 9 9 10 10 9 9 9 9 9 10 10 10 9 9 9 9 10 10 9
7 12 12 12 11 9 9 9 10 10 12 12 10 10 9 9 9 9 9 9 9 9 9 9 9 9 9 9 10 10 10 10 9 9 9 9 9 9 9 10 10 9 9
4 9 9 9 9 9 9 9 10 10 9 10 9 9 9 9 9 8 9 8 8 9 9 9 9 9 9 9 9 9 9 9 9 8 9 9 9 9 9 9 9 9 9
2 5 8 7 8 9 9 9 9 9 10 10 9 9 9 9 9 9 8 9 8 8 8 8 9 9 9 9 9 9 9 9 9 9 8 8 9 9 9 9 9 8 8
1 2 4 4 6 7 8 8 8 9 9 9 9 9 9 9 9 9 8 8 9 8 8 8 9 8 8 8 9 9 9 9 9 9 9 9 8 8 8 8 8 8 8
-0 -0 1 2 3 5 7 8 8 8 8 9 9 9 9 9 9 9 8 8 8 8 8 8 8 8 8 8 8 8 8 8 9 9 9 9 9 8 8 8 8 8 8
-1 -2 -1 0 1 1 3 5 6 7 7 8 8 8 9 9 9 9 9 9 9 9 8 8 8 9 8 8 8 8 8 8 8 8 8 8 8 8 8 8 8 8 8
-1 -2 -2 -1 -1 -0 1 2 4 5 5 7 7 6 7 8 8 8 8 8 8 8 8 8 8 8 8 8 8 8 8 8 8 7 7 7 7 8 8 8 8 8 8
-2 -2 -3 -3 -1 1 2 2 4 5 5 6 6 4 5 8 7 6 6 7 7 7 7 7 7 7 7 7 7 8 7 7 7 7 7 7 7 7 7 7 7 7 7
-3 -2 -4 -2 0 0 1 2 2 1 2 2 2 5 8 7 4 4 4 5 5 5 5 5 5 5 5 6 6 7 6 6 6 6 6 6 6 6 6 6 6 6 6
-3 -2 -3 -2 -0 1 1 1 2 3 6 6 5 7 5 3 3 2 1 0 1 1 1 1 1 1 2 3 4 4 4 4 3 3 2 2 3 3 4 4 5 4 4
-2 -1 -2 -3 -3 -1 1 3 3 4 2 2 1 2 2 2 1 -0 -2 -2 -1 -1 -1 -1 -1 -0 1 1 2 3 2 0 1 1 1 1 1 2 3 3 2 2 1
-4 -4 -2 -2 -3 -4 -3 -3 -2 -2 -1 -2 -4 -2 -1 -2 -2 -2 -3 -3 -2 -2 -3 -3 -2 -2 -1 -1 -1 -1 -1 -1 -1 -1 -1 -1 -2 -1 -1 -1 -4 -4 -4
-5 -6 -5 -5 -5 -6 -5 -3 -3 -2 -2 -2 -3 -3 -3 -3 -4 -5 -6 -6 -6 -5 -5 -5 -4 -4 -4 -4 -3 -3 -3 -2 -2 -3 -4 -5 -5 -4 -5 -5 -5 -4 -5
-6 -6 -6 -6 -6 -6 -7 -7 -7 -7 -6 -6 -4 -4 -5 -6 -6 -5 -4 -4 -5 -5 -5 -5 -4 -4 -4 -4 -4 -4 -4 -4 -4 -5 -5 -5 -5 -5 -5 -5 -5 -5 -5
-6 -5 -7 -8 -8 -6 -5 -6 -7 -7 -6 -7 -8 -8 -7 -5 -5 -5 -6 -5 -4 -4 -5 -5 -5 -6 -5 -5 -6 -5 -5 -6 -6 -6 -6 -6 -6 -6 -6 -6 -6 -7 -8
-5 -5 -7 -6 -6 -6 -6 -6 -6 -7 -7 -6 -6 -7 -8 -9 -9 -7 -6 -6 -6 -6 -5 -5 -5 -6 -6 -7 -6 -6 -7 -7 -7 -6 -7 -8 -8 -8 -9 -9 -9 -8 -9

GFSMW_850_temp_081.txt.gz
Temp
23 23 23 22 21 21 18 16 14 13 13 16 16 16 14 11 12 12 12 12 12 11 11 11 11 11 11 10 10 10 11 12 12 12 11 11 10 11 11 11 11 11 10
22 22 23 22 20 20 18 16 14 13 14 14 15 16 12 11 11 11 12 12 12 12 11 11 11 11 10 10 10 10 10 11 11 11 10 9 9 10 10 10 11 11 10
22 22 23 22 19 19 18 16 14 13 14 13 14 13 12 11 11 11 11 11 11 11 11 11 11 11 11 10 10 10 10 11 11 11 11 10 11 10 10 9 10 10 10
22 22 23 22 19 19 18 17 15 13 13 13 14 12 11 10 11 10 11 12 11 11 11 10 10 11 10 10 10 10 10 11 11 11 12 12 13 12 11 10 10 10 10
22 22 22 23 20 19 17 16 15 14 13 13 13 12 12 11 11 11 11 11 11 11 11 10 10 10 10 10 10 10 10 10 11 11 12 12 12 13 13 11 10 10 10
22 22 23 23 21 19 17 15 15 14 14 13 13 12 12 11 11 10 11 11 11 11 11 10 10 10 10 10 10 10 10 10 10 11 11 12 12 12 13 14 12 11 11
20 21 22 22 21 19 17 15 15 14 14 13 12 12 12 11 12 10 11 11 10 10 10 9 10 10 10 10 10 9 10 10 10 10 11 11 11 11 12 13 13 12 12
17 20 21 21 20 18 16 15 15 13 14 13 12 12 12 11 11 11 10 11 11 10 10 10 10 10 10 9 10 9 10 10 10 10 10 10 11 11 11 10 11 12 12
13 17 20 19 19 17 13 13 14 12 12 13 13 12 11 10 10 10 10 10 10 10 10 10 10 10 9 9 9 10 9 9 10 10 10 10 10 9 10 10 11 11 11
7 10 18 18 17 15 11 12 13 11 12 12 12 10 10 10 10 10 10 11 10 10 10 10 10 9 9 9 9 9 9 10 10 10 9 9 9 8 9 9 10 10 10
4 6 12 15 14 11 10 10 11 11 11 11 11 10 10 10 10 10 9 10 10 10 9 9 9 9 9 9 9 9 9 10 9 9 9 9 8 8 8 8 8 9 9
2 4 7 9 10 10 10 10 10 10 10 11 10 9 9 10 9 9 9 9 9 9 9 9 9 9 9 9 9 9 9 9 9 9 8 8 7 8 8 9 9 8 9
1 2 4 7 8 9 9 10 10 10 10 9 9 9 9 9 9 10 10 10 9 9 9 9 9 9 9 9 9 9 9 9 9 9 9 9 8 8 8 9 9 9 9
0 0 1 2 6 7 9 9 9 9 9 9 9 8 9 9 9 9 9 9 9 9 9 9 9 9 9 9 9 9 9 9 9 9 9 9 9 9 8 8 9 9 9
1 -1 -1 0 2 4 7 8 8 9 9 9 9 8 8 9 9 8 9 9 9 9 9 8 8 8 8 8 8 9 9 9 9 9 9 9 8 8 8 8 8 8 8
-1 -0 -2 -1 -1 1 3 5 6 7 8 8 8 8 8 8 8 8 8 8 8 9 8 9 9 9 8 8 9 9 9 9 9 9 8 8 8 8 8 8 8 8 8
-2 0 -2 -3 -2 -2 -0 2 3 3 5 6 6 6 7 7 7 8 8 8 8 8 8 8 8 8 8 8 8 8 8 8 8 8 8 8 8 8 8 8 8 8 8
-2 -1 -1 -3 -3 -3 -2 -1 1 1 1 2 3 3 5 5 4 5 7 6 6 6 6 7 7 7 7 7 8 7 7 7 7 7 7 7 7 7 7 7 7 7 7
-3 -3 -1 -0 -3 -3 -2 -2 1 -1 1 2 1 1 3 6 4 2 6 5 4 4 4 4 4 5 5 5 5 6 6 5 5 5 4 5 5 4 5 5 5 5 5
-3 -3 -3 -2 -2 -2 -2 0 1 -1 1 1 1 -2 1 1 1 2 3 1 1 1 2 2 2 2 3 4 4 4 4 3 2 2 2 2 2 2 3 3 3 3 2
-4 -4 -4 -4 -3 -3 -2 -0 -1 -1 -2 -2 -3 -3 -1 -0 1 2 2 -2 -2 -1 0 0 0 1 1 1 1 2 0 -0 0 0 0 0 0 1 1 1 -0 -1 -2
-5 -5 -5 -5 -4 -4 -3 -3 -2 -3 -2 -1 -1 -1 -1 -1 -1 -2 -2 -1 -4 -4 -3 -2 -2 -2 -2 -1 -0 -0 0 -0 0 -0 -1 -1 -1 -1 -1 -1 -3 -4 -4
-5 -4 -5 -5 -5 -5 -5 -5 -5 -5 -5 -3 -2 -1 -1 -1 -2 -3 -5 -6 -6 -6 -6 -6 -5 -4 -4 -4 -3 -3 -2 -2 -2 -2 -2 -3 -3 -3 -2 -3 -3 -3 -4
-6 -5 -5 -6 -7 -6 -6 -6 -6 -6 -7 -7 -6 -7 -7 -7 -7 -5 -5 -6 -6 -6 -7 -7 -7 -5 -4 -4 -4 -4 -4 -4 -4 -5 -4 -4 -4 -4 -4 -4 -4 -5 -5
-7 -7 -7 -7 -7 -7 -7 -7 -7 -7 -7 -7 -7 -7 -6 -5 -4 -3 -4 -4 -5 -4 -5 -4 -4 -4 -4 -4 -5 -5 -5 -5 -5 -5 -6 -6 -6 -6 -6 -6 -6 -6 -6
-8 -8 -9 -9 -9 -8 -6 -7 -7 -7 -7 -8 -8 -8 -8 -8 -7 -5 -5 -5 -5 -5 -5 -4 -4 -5 -5 -6 -6 -6 -6 -7 -7 -7 -8 -10 -11 -11 -11 -11 -12 -10 -10

GFSMW_850_temp_084.txt.gz
Temp
22 22 23 23 24 23 21 19 19 17 15 13 16 17 18 15 14 11 11 12 12 12 12 11 12 12 12 12 11 11 10 11 11 12 12 12 11 11 11 11 11 11 10
21 22 23 23 23 22 21 19 18 16 14 14 16 16 15 14 12 13 12 12 12 12 11 11 11 11 11 11 11 10 10 10 11 12 12 11 11 11 11 11 11 11 10
21 22 23 23 22 22 20 18 17 15 14 14 14 14 12 12 12 11 11 12 12 12 11 11 10 11 11 10 11 10 10 10 10 12 11 10 10 11 11 11 11 11 11
22 22 22 23 22 21 19 18 16 14 14 13 13 14 15 13 12 12 12 11 11 11 11 11 12 11 11 10 10 10 10 10 10 11 12 12 12 11 10 10 10 11 10
22 22 22 23 21 21 19 18 16 14 14 13 13 13 14 12 12 12 11 10 11 11 10 11 11 11 11 11 10 10 9 10 10 11 11 12 12 12 12 10 10 10 10
21 22 22 22 21 20 19 18 16 14 14 13 13 14 13 12 12 11 11 11 11 11 11 11 10 10 10 10 10 10 10 9 10 11 11 12 12 12 12 12 11 11 10
14 16 18 22 23 20 19 17 16 15 14 13 13 13 13 12 12 12 11 11 11 11 11 12 11 10 10 10 10 9 9 9 10 10 11 11 12 12 12 11 12 11 11
11 11 13 18 22 19 18 17 16 15 14 14 13 13 13 12 11 11 11 11 12 11 11 11 10 10 10 10 10 10 9 9 10 10 11 11 11 12 12 12 12 12 11
8 8 11 17 21 19 17 16 16 15 14 14 13 12 12 12 11 11 11 11 11 11 11 11 10 9 10 10 10 10 9 9 9 10 11 11 12 11 11 11 11 10 10
5 6 8 12 17 18 17 16 16 15 14 14 13 12 12 11 11 10 11 11 10 10 10 10 10 9 9 9 10 9 9 9 9 10 10 10 10 10 10 10 10 9 9
3 6 7 9 11 13 15 15 14 13 14 13 13 12 11 10 10 11 10 11 10 10 10 10 10 10 9 9 9 9 9 9 9 9 9 10 9 9 9 9 9 9 9
3 4 5 7 10 10 11 11 12 12 13 11 12 11 10 10 10 10 10 10 10 10 10 9 9 9 9 9 9 9 9 9 9 9 9 8 8 9 8 8 8 8 8
3 3 4 5 7 8 10 10 10 11 11 10 10 9 9 9 10 10 9 9 10 10 9 9 9 9 9 9 9 9 9 9 9 9 8 9 8 8 8 8 7 8 8
1 2 2 2 3 6 8 9 10 10 10 10 9 9 9 9 9 10 9 9 9 9 9 8 9 9 9 9 9 9 9 9 9 9 9 9 9 9 8 8 8 8 7
-1 -0 1 0 1 3 4 7 8 9 9 9 9 9 9 9 9 9 9 9 9 9 8 8 8 8 9 9 8 9 8 9 9 9 9 9 9 9 8 8 8 8 7
-1 -1 -1 1 -0 0 1 2 4 7 8 9 9 9 8 8 8 8 9 9 9 9 9 8 8 8 8 8 8 8 9 9 9 9 8 9 9 8 8 8 8 8 8
-2 -2 -2 -2 -1 -2 -1 -0 1 3 5 6 7 7 7 8 8 8 8 8 9 8 8 8 8 8 8 8 8 8 9 9 8 8 8 8 8 8 8 7 8 8 8
-3 -3 -3 -1 -1 -2 -2 -1 -0 1 2 2 3 3 5 5 5 6 7 6 7 7 7 7 7 7 7 8 8 8 8 8 8 7 7 7 7 7 7 6 6 6 6
-3 -3 -3 -3 -1 0 -2 -1 -1 -0 -0 -0 0 -0 1 2 2 3 3 4 4 5 4 3 4 4 5 5 6 6 6 6 6 5 5 5 5 5 5 5 5 4 4
-3 -3 -3 -3 -3 -2 -1 -0 -1 -1 -1 -2 -1 -1 -0 1 -2 -1 -1 0 2 2 3 2 2 2 2 2 3 4 3 3 3 2 2 3 3 3 3 3 2 1 0
-4 -4 -4 -4 -4 -3 -3 -3 -2 -1 -2 -1 -1 -1 -2 -0 0 -2 -3 -1 -0 1 2 -1 -1 -0 -1 -1 1 0 -0 -0 -0 -0 0 0 0 1 1 0 -1 -1 -2
-5 -5 -4 -5 -5 -5 -5 -5 -4 -4 -3 -2 -1 -2 -3 -4 -2 -2 -3 -3 -1 -1 -2 -3 -3 -3 -3 -2 -2 -1 -1 -1 -0 -1 -1 -2 -2 -2 -1 -1 -2 -3 -3
-5 -5 -5 -5 -5 -5 -5 -6 -6 -6 -6 -5 -4 -4 -4 -3 -3 -2 -3 -3 -4 -4 -4 -4 -3 -4 -4 -3 -3 -2 -2 -2 -1 -2 -3 -3 -3 -2 -2 -3 -4 -4 -4
-6 -6 -6 -6 -6 -6 -6 -6 -6 -7 -6 -5 -5 -6 -4 -4 -4 -4 -4 -3 -4 -4 -4 -4 -4 -4 -4 -4 -4 -4 -3 -4 -4 -4 -4 -4 -4 -3 -4 -5 -5 -5 -6
-7 -7 -7 -7 -7 -6 -6 -6 -6 -6 -6 -6 -5 -5 -4 -3 -3 -3 -4 -4 -5 -4 -5 -5 -5 -5 -5 -5 -5 -5 -5 -5 -6 -6 -6 -6 -6 -6 -7 -6 -6 -7 -7
-8 -8 -8 -8 -8 -7 -7 -7 -7 -7 -7 -7 -7 -7 -7 -6 -6 -6 -6 -6 -6 -6 -5 -5 -5 -5 -5 -6 -6 -6 -7 -7 -7 -7 -7 -8 -8 -8 -8 -8 -8 -8 -8

GFSMW_850_temp_087.txt.gz
Temp
20 21 21 22 22 22 22 20 20 19 19 19 18 18 15 15 16 15 14 13 12 12 12 12 12 12 12 12 12 12 11 10 10 10 10 12 12 11 11 11 11 10 10
20 21 21 21 22 22 20 20 20 19 19 20 18 18 15 15 16 15 14 12 11 11 12 12 12 12 12 12 12 11 10 10 10 10 10 11 11 11 11 11 11 10 10
21 21 21 21 22 22 21 20 20 20 19 18 17 16 13 13 13 13 13 14 11 11 12 12 12 12 11 12 11 11 11 11 10 10 11 10 11 11 11 11 11 11 10
21 21 21 21 22 21 21 20 20 18 19 17 17 16 14 14 15 14 13 12 11 11 11 11 12 11 11 11 11 11 10 10 10 10 11 12 12 11 11 11 11 11 11
20 20 20 21 22 21 20 20 20 18 18 18 17 14 13 13 13 13 12 11 11 11 11 11 12 11 11 10 10 10 10 10 10 10 11 12 12 11 11 11 11 11 11
14 15 16 17 19 21 20 20 20 19 18 17 16 13 13 13 13 12 12 11 11 10 11 10 10 11 11 10 10 10 10 10 10 11 10 11 12 11 12 12 11 11 11
10 13 15 16 18 17 19 19 19 18 16 16 14 13 13 13 12 12 11 11 11 10 11 11 11 10 10 10 10 10 10 10 10 10 10 11 12 12 12 12 12 11 11
8 9 11 14 16 19 19 18 18 17 16 15 13 13 13 12 12 12 11 11 11 11 11 11 11 11 10 10 10 10 10 9 9 9 10 10 11 11 12 12 12 10 10
6 8 9 11 14 17 18 19 18 17 15 14 13 13 12 12 12 11 11 12 11 11 11 11 11 11 10 10 10 10 10 10 9 9 9 10 10 10 11 12 11 11 10
4 7 8 9 11 13 15 17 17 17 16 14 14 13 12 12 12 12 11 12 11 11 11 11 10 10 9 9 10 10 10 9 9 9 9 9 9 11 11 11 11 11 10
2 4 6 8 9 10 14 14 15 15 15 14 14 13 12 11 11 11 11 12 11 11 11 10 10 10 10 10 9 9 10 9 9 9 9 9 9 10 11 11 10 10 9
1 3 5 7 9 9 10 12 12 12 13 13 12 12 12 11 11 11 11 11 11 10 10 10 10 9 10 9 9 9 9 9 9 9 9 9 9 10 10 10 11 11 9
1 1 4 5 6 7 9 11 11 11 11 12 11 11 10 11 10 10 10 10 10 10 10 9 9 9 9 9 9 9 9 9 9 9 9 9 9 9 10 9 9 8 7
-1 -0 2 3 4 5 7 9 10 11 10 11 10 10 9 10 9 9 9 9 9 9 9 9 9 9 8 9 9 9 9 9 9 9 9 8 8 8 8 8 8 8 7
-2 -2 -1 1 2 3 4 6 7 9 9 10 10 9 9 9 9 9 9 9 9 9 9 8 9 9 9 9 9 9 9 9 9 8 8 8 8 8 8 8 8 8 8
-2 -3 -2 -1 0 1 1 3 4 6 7 9 9 9 9 9 9 9 9 9 9 9 8 8 8 9 9 9 9 9 9 9 9 8 8 8 8 8 8 8 8 8 7
-3 -3 -3 -3 -1 0 1 1 2 3 4 5 7 8 8 8 8 8 8 9 9 8 8 8 8 8 8 8 8 8 8 8 8 8 8 8 7 7 8 8 8 8 8
-3 -3 -3 -3 -2 -1 -0 1 0 1 2 2 3 4 6 7 7 7 7 7 7 7 7 7 7 8 8 8 8 8 8 8 8 7 7 7 7 7 7 7 6 6 6
-3 -3 -3 -3 -3 -2 -1 0 0 0 1 0 0 -0 1 1 3 4 4 4 4 4 4 4 4 6 6 6 5 5 6 7 7 6 6 6 5 5 4 5 4 4 3
-4 -4 -3 -3 -3 -3 -2 -1 0 0 -0 -0 -0 -0 0 -0 -0 -0 0 0 0 1 1 1 2 3 4 1 2 2 3 4 3 3 3 3 3 3 3 2 1 -0 -0
-4 -4 -4 -4 -4 -3 -3 -2 -2 -3 -2 -1 -1 -1 -1 -1 0 -2 -0 0 -1 -2 -1 -1 -1 -0 3 1 -0 0 1 1 1 1 1 1 1 1 0 -1 -2 -1 -2
-5 -5 -5 -5 -5 -5 -4 -4 -4 -4 -3 -3 -2 -2 -3 -2 -3 -1 -2 -2 -1 -1 -4 -3 -2 -3 -2 -0 -1 1 -0 -2 -0 -0 -1 -2 -1 -1 -1 -1 -2 -2 -3
-5 -6 -6 -6 -6 -6 -5 -5 -5 -4 -4 -3 -3 -3 -4 -3 -3 -3 -3 -4 -3 -4 -2 -3 -4 -3 -4 -4 -4 -4 -3 -2 -2 -2 -2 -3 -4 -3 -2 -3 -3 -3 -3
-6 -6 -6 -6 -6 -6 -6 -6 -6 -6 -5 -5 -5 -5 -4 -4 -4 -5 -5 -4 -4 -4 -4 -5 -5 -5 -6 -5 -5 -4 -4 -4 -3 -4 -4 -4 -3 -3 -3 -4 -4 -4 -4
-6 -6 -6 -6 -7 -6 -7 -6 -6 -6 -6 -6 -6 -5 -5 -5 -5 -5 -5 -5 -6 -6 -5 -5 -5 -6 -5 -6 -6 -5 -5 -5 -5 -6 -6 -5 -5 -5 -5 -6 -6 -7 -7
-7 -7 -7 -7 -7 -7 -7 -7 -7 -6 -7 -7 -7 -7 -7 -7 -6 -5 -5 -6 -6 -6 -5 -6 -5 -5 -6 -6 -6 -7 -6 -6 -7 -6 -6 -6 -7 -7 -7 -7 -8 -8 -8

GFSMW_850_temp_090.txt.gz
Temp
20 20 20 20 21 21 21 21 20 20 20 19 18 18 17 16 16 14 14 14 13 13 12 12 12 12 12 13 12 12 11 11 11 11 10 10 11 11 11 12 11 11 10
18 19 20 20 21 21 21 21 21 21 20 19 19 19 18 17 17 16 13 13 13 12 12 12 12 12 12 12 12 12 12 11 11 10 10 8 9 9 11 11 11 11 10
17 19 19 20 21 20 21 20 21 21 20 20 19 17 17 16 16 15 13 13 12 12 11 12 12 12 12 12 12 12 11 11 10 10 9 8 9 9 10 11 11 11 10
12 17 18 18 20 20 21 20 21 21 20 20 19 18 19 18 17 17 14 13 12 11 11 11 11 12 12 12 12 12 11 11 10 10 10 10 11 10 9 10 11 11 10
8 9 13 16 19 20 20 19 20 20 20 19 19 17 17 17 18 16 14 13 12 11 11 11 11 11 11 11 11 11 11 11 10 10 10 10 10 11 11 10 10 10 10
8 7 8 13 17 18 16 17 18 20 18 19 18 17 17 16 16 14 13 13 11 11 11 11 11 11 10 11 11 11 10 11 10 10 10 10 10 10 11 11 10 10 10
6 6 6 11 14 14 15 15 16 17 19 18 18 16 15 15 16 14 12 13 11 11 11 11 11 10 11 11 10 10 10 10 10 10 10 10 10 11 11 10 11 11 10
4 5 5 8 11 15 16 18 18 19 19 17 16 14 14 14 14 13 13 12 12 12 11 10 10 11 11 10 10 10 10 10 10 10 10 10 10 11 11 12 11 11 10
3 3 6 8 9 12 15 16 17 18 18 17 15 14 14 14 13 13 12 11 11 11 11 10 10 11 11 10 10 10 10 10 10 10 10 9 9 11 10 11 11 12 10
2 3 5 7 8 9 11 13 15 16 18 18 16 14 13 13 13 12 11 11 11 11 11 11 11 10 10 10 9 9 10 10 10 9 9 9 9 10 10 10 11 11 12
0 2 4 5 7 8 10 11 14 15 15 16 16 13 13 13 12 12 11 11 11 11 11 10 10 11 10 9 9 10 10 10 10 9 9 9 9 9 9 9 10 10 10
-0 0 2 4 6 7 9 13 13 11 12 13 14 13 13 12 12 11 11 11 11 11 11 10 10 10 9 10 9 9 9 10 9 9 9 9 9 9 9 9 9 10 10
-1 -0 2 3 4 6 7 9 9 11 10 11 12 12 12 11 11 11 11 10 10 10 10 10 9 9 9 9 9 9 9 9 9 9 9 9 9 9 9 9 9 9 10
-2 -2 -1 0 1 3 5 7 8 10 10 10 11 11 11 11 10 10 10 10 9 9 10 9 9 9 9 9 9 9 9 9 9 9 8 8 9 9 9 9 9 9 9
-3 -3 -2 -2 -0 1 2 4 6 8 9 10 10 10 11 10 10 10 10 9 9 9 9 9 9 9 9 9 9 9 9 9 9 8 8 8 9 9 8 8 8 8 8
-3 -3 -3 -2 -1 -0 0 2 3 5 7 8 9 9 10 9 10 10 9 9 9 9 9 9 9 9 8 9 9 9 9 9 9 9 9 8 8 8 8 8 8 8 8
-3 -3 -3 -3 -2 -2 -0 1 1 3 4 5 6 8 9 9 9 9 9 9 8 8 8 8 8 9 9 8 9 8 9 9 8 8 8 8 8 8 8 8 8 8 8
-4 -3 -3 -2 -2 -2 -1 -0 0 2 2 2 3 4 6 7 7 8 8 8 8 8 7 7 8 8 8 8 8 8 8 8 8 8 8 7 7 7 7 7 7 7 7
-4 -4 -4 -3 -2 -1 -2 -1 -0 0 2 1 1 2 1 1 2 4 4 4 5 5 6 6 6 6 7 6 6 7 7 7 7 6 6 6 6 6 6 6 5 5 5
-4 -4 -4 -3 -2 -2 -2 -2 -2 -1 -1 -1 -0 0 1 1 1 -0 0 1 2 2 1 3 2 1 2 2 3 4 5 5 5 4 3 3 3 3 3 3 3 3 2
-5 -5 -5 -4 -5 -4 -3 -2 -3 -3 -3 -2 -2 -1 -0 -0 0 0 -1 -0 -1 -0 -1 -1 -1 -1 -1 -0 1 1 2 2 2 1 -0 0 -0 1 0 -1 -1 -1 -2
-6 -6 -6 -6 -6 -5 -4 -4 -4 -4 -3 -3 -3 -2 -2 -1 -2 -1 -1 -2 -1 -1 -1 -1 -1 -2 -2 -2 -1 -1 -0 0 1 -1 -2 -3 -2 -2 -0 -2 -1 -2 -2
-6 -6 -6 -6 -6 -6 -6 -5 -6 -5 -4 -4 -4 -3 -3 -3 -4 -3 -3 -4 -3 -3 -4 -3 -3 -4 -3 -3 -3 -3 -3 -3 -2 -3 -4 -4 -3 -3 -2 -3 -3 -3 -4
-6 -6 -6 -6 -6 -6 -6 -6 -6 -5 -5 -5 -5 -4 -4 -4 -4 -4 -4 -4 -4 -4 -4 -4 -4 -5 -5 -5 -4 -3 -4 -4 -4 -5 -5 -5 -5 -5 -6 -6 -5 -5 -5
-6 -7 -7 -6 -6 -6 -6 -6 -7 -6 -6 -6 -6 -6 -5 -5 -5 -5 -5 -5 -5 -5 -5 -5 -5 -5 -5 -6 -6 -5 -6 -5 -5 -4 -4 -5 -6 -7 -7 -6 -6 -6 -6
-7 -7 -7 -7 -7 -7 -7 -7 -7 -6 -6 -7 -7 -7 -6 -6 -5 -5 -5 -6 -6 -6 -6 -7 -6 -6 -7 -8 -7 -6 -6 -7 -8 -6 -6 -6 -7 -6 -7 -7 -7 -7 -7

GFSMW_850_temp_096.txt.gz
Temp
12 12 13 15 15 16 18 18 17 19 19 18 18 19 18 18 18 17 17 16 16 15 15 14 14 13 13 12 12 12 12 11 11 11 10 10 10 11 11 11 11 12 12
11 12 12 12 14 15 16 17 18 17 19 19 19 18 19 18 18 17 15 17 16 15 15 14 13 13 12 12 12 12 11 11 11 10 10 10 10 11 10 11 11 11 11
7 9 10 9 12 12 13 16 17 17 18 18 18 18 18 17 17 18 17 16 16 16 14 13 13 13 12 11 11 11 11 11 11 11 11 10 10 10 10 10 10 10 10
7 6 8 8 8 11 12 14 16 18 16 17 17 18 19 19 19 19 17 14 13 16 14 13 12 12 11 11 11 11 10 10 11 11 10 11 11 10 9 9 10 9 10
6 6 5 6 6 8 9 12 15 17 15 16 17 18 18 19 19 17 17 15 14 14 14 12 12 12 11 11 11 11 10 10 10 11 11 11 10 11 11 9 9 9 9
5 5 5 4 6 7 8 10 12 16 15 15 17 17 18 17 16 17 17 18 15 14 13 12 11 12 12 11 11 11 10 10 10 11 11 10 10 10 10 11 9 9 9
3 5 4 3 4 7 8 9 11 12 12 14 14 16 15 16 16 18 18 16 14 13 13 12 12 11 11 11 11 11 10 10 10 10 10 10 11 11 11 10 10 9 8
1 7 3 3 3 6 7 8 10 12 13 13 13 12 12 14 15 17 18 18 16 16 14 12 11 11 11 11 10 11 10 10 9 10 10 10 10 10 10 10 9 8 8
0 4 4 3 3 4 6 7 9 11 12 12 12 12 13 13 15 16 15 14 16 16 14 12 12 11 11 10 10 10 10 10 10 10 10 10 10 10 9 9 9 10 9
0 2 2 2 3 4 6 7 9 11 12 13 12 12 12 13 14 14 14 14 15 14 13 12 11 11 11 10 10 10 10 9 10 10 10 10 10 9 8 9 9 9 10
-1 -0 0 1 2 3 4 6 8 10 11 12 14 14 12 13 13 14 13 13 13 12 12 11 11 10 10 10 10 9 9 9 9 10 10 10 10 9 9 9 8 8 9
-1 -0 -1 -0 2 2 3 4 7 8 10 11 12 13 13 13 14 12 11 11 12 11 11 10 10 10 10 10 10 9 9 9 9 9 9 10 9 9 9 8 8 9 8
0 -0 -1 -1 -0 1 2 2 4 7 9 9 10 11 13 13 13 11 11 11 11 10 10 10 10 10 10 10 10 9 9 9 9 10 9 9 9 9 9 8 9 9 8
-1 -1 -1 -2 -1 -1 0 1 3 5 7 9 10 9 10 11 11 10 11 11 10 10 10 10 9 9 9 11 9 9 9 9 9 9 9 9 9 9 8 8 9 8 8
-3 -2 -2 -2 -2 -1 -0 1 1 3 4 6 8 9 10 10 10 10 11 11 10 11 10 10 10 10 11 10 9 9 9 9 9 9 9 9 9 9 9 9 8 8 9
-4 -3 -2 -2 -2 -2 -2 -1 1 2 3 4 5 6 8 8 9 10 10 10 10 9 10 10 10 10 9 9 9 9 9 9 9 9 9 9 9 9 9 8 8 8 8
-5 -4 -4 -3 -3 -3 -2 -2 -1 1 2 3 3 3 5 6 6 8 9 10 9 9 9 9 10 10 10 10 9 8 8 8 9 9 9 8 8 9 9 9 8 8 8
-5 -5 -5 -4 -3 -3 -2 -2 -1 -1 0 1 2 3 4 3 6 1 6 8 8 8 8 8 9 9 10 9 9 8 8 8 8 8 8 8 8 8 8 8 8 8 8
-5 -5 -5 -5 -4 -3 -3 -2 -1 -1 -1 -1 -0 0 2 2 2 2 1 2 5 6 7 6 6 7 8 8 8 7 7 7 7 7 7 7 7 7 7 7 7 7 7
-5 -5 -5 -5 -4 -4 -3 -3 -2 -2 -3 -2 -2 -1 -1 0 3 1 0 1 1 1 2 3 4 3 5 6 6 5 6 6 6 5 5 4 4 4 5 5 5 6 5
-6 -5 -5 -5 -5 -5 -4 -4 -4 -4 -4 -3 -3 -2 -1 -2 -2 -1 -0 -1 0 0 0 0 0 0 1 1 1 2 3 4 3 2 1 1 0 1 1 2 2 3 2
-6 -6 -6 -6 -6 -5 -5 -5 -5 -5 -4 -3 -3 -3 -3 -2 -3 -2 -3 -2 -1 -1 -2 -2 -1 -1 -1 -1 -1 -0 1 0 1 0 -1 -1 -1 -1 -1 0 -0 0 -1
-7 -7 -6 -6 -6 -5 -5 -5 -6 -5 -5 -4 -3 -3 -3 -3 -3 -3 -3 -2 -2 -3 -3 -3 -4 -4 -3 -3 -3 -2 -2 -1 -1 -2 -3 -3 -2 -2 -2 -2 -3 -3 -3
-7 -7 -7 -7 -7 -7 -6 -6 -6 -6 -5 -5 -5 -5 -4 -4 -4 -4 -4 -4 -4 -4 -5 -5 -5 -5 -4 -4 -4 -4 -4 -4 -3 -4 -4 -4 -4 -4 -4 -4 -5 -5 -5
-8 -7 -7 -7 -8 -7 -7 -7 -7 -6 -5 -6 -6 -6 -5 -5 -5 -4 -5 -5 -5 -5 -5 -6 -6 -5 -5 -6 -5 -5 -5 -5 -5 -5 -5 -5 -5 -5 -5 -6 -6 -6 -5
-8 -8 -8 -8 -8 -7 -7 -7 -7 -7 -6 -6 -6 -6 -6 -6 -6 -6 -6 -6 -6 -7 -6 -7 -6 -6 -6 -6 -6 -6 -6 -6 -6 -6 -5 -6 -6 -6 -7 -7 -7 -7 -7

GFSMW_850_temp_102.txt.gz
Temp
13 13 12 11 10 10 9 9 13 14 14 13 13 14 14 14 18 15 14 18 19 18 18 17 16 16 15 15 14 13 12 12 12 11 11 12 11 11 12 11 12 11 11
13 12 11 10 10 9 8 7 8 10 10 9 10 13 15 14 13 13 14 18 17 18 18 17 16 16 15 14 13 13 12 12 11 11 11 11 11 11 11 10 10 10 10
12 11 10 9 8 8 7 6 6 6 9 8 9 11 13 14 13 12 14 17 16 17 17 17 16 15 14 13 12 12 12 11 11 11 11 10 11 11 10 10 11 11 11
10 10 9 8 6 6 4 7 7 6 7 8 7 9 12 14 14 13 15 16 15 16 17 17 16 15 14 14 14 12 11 11 12 11 11 11 11 10 10 11 11 10 11
9 8 7 6 6 4 5 7 7 7 7 7 7 7 10 13 15 13 12 13 14 18 17 17 17 14 15 15 14 12 12 12 11 11 11 11 10 11 11 10 10 10 10
8 7 7 6 5 4 3 5 7 7 7 7 8 8 9 12 14 14 12 12 13 15 17 17 16 15 16 17 16 14 12 12 11 11 11 11 11 10 11 11 11 11 11
7 7 6 5 4 2 3 5 6 6 7 7 8 9 9 11 13 13 13 12 13 14 15 17 16 15 16 16 15 15 12 11 11 11 11 11 11 10 11 11 10 10 10
6 6 4 3 2 1 1 5 6 6 7 8 9 10 10 11 12 12 12 12 13 13 12 15 16 15 14 16 14 14 12 11 11 11 10 10 11 10 10 10 10 10 10
5 4 3 2 1 1 2 3 5 5 6 7 9 11 12 12 12 12 12 12 12 12 12 14 13 14 10 14 14 13 11 12 11 10 11 10 10 10 10 10 10 10 9
4 3 2 1 0 0 2 3 4 3 5 7 9 11 12 12 12 12 12 12 12 12 11 11 13 12 10 11 13 12 12 11 11 10 10 10 10 10 10 10 10 10 10
3 2 1 1 -0 -1 1 3 5 4 6 7 9 10 10 11 11 11 11 11 12 12 13 13 13 12 11 11 13 11 11 11 10 10 10 10 10 10 10 10 10 10 9
2 1 1 0 -1 -1 1 2 3 4 4 5 7 9 10 10 11 11 11 11 11 11 11 14 14 13 11 11 11 11 11 11 10 10 10 10 10 10 10 10 10 9 9
1 1 0 -1 -1 -2 -1 2 2 2 3 4 6 8 9 10 10 10 10 11 11 10 12 12 15 14 11 10 11 11 10 10 10 10 10 10 10 10 9 10 9 9 10
-0 -1 -1 -1 -2 -3 -2 1 1 0 1 1 4 6 8 9 10 10 10 10 10 12 12 12 14 13 11 10 10 10 10 10 10 10 10 9 9 9 9 9 9 9 9
-2 -2 -2 -3 -3 -3 -2 -1 -0 -0 -1 1 5 5 6 9 7 10 10 10 10 10 10 11 11 11 11 10 10 10 9 9 9 9 9 9 10 10 9 9 8 9 9
-3 -3 -3 -4 -4 -4 -2 -2 -1 -2 -1 -0 -0 1 4 5 6 7 9 9 9 9 10 10 10 10 10 10 9 9 9 9 9 9 9 9 10 9 9 9 9 9 8
-4 -5 -5 -5 -5 -4 -3 -3 -2 -2 -2 -1 -1 0 1 1 3 4 5 4 7 7 8 9 9 10 9 9 9 8 8 8 8 9 9 9 9 9 9 9 8 8 8
-6 -6 -6 -6 -5 -4 -3 -3 -3 -3 -3 -2 -1 -1 0 1 1 1 2 2 2 4 4 6 8 9 8 9 8 8 8 8 8 8 9 8 8 9 8 8 8 8 8
-6 -7 -6 -6 -5 -4 -4 -4 -3 -4 -3 -3 -3 -2 -2 -1 -1 0 0 1 1 1 1 2 2 7 7 7 7 8 7 7 7 8 8 8 8 8 7 7 8 8 8
-7 -7 -7 -6 -5 -5 -4 -4 -4 -4 -4 -4 -4 -3 -3 -2 -2 -2 -1 -1 0 1 0 0 -2 2 3 4 6 5 6 6 5 5 6 6 6 6 6 5 6 7 7
-7 -7 -7 -7 -7 -6 -5 -5 -5 -5 -5 -4 -4 -3 -3 -4 -3 -3 -3 -2 -2 -1 -0 0 -1 -1 0 0 1 2 3 3 2 2 3 3 3 4 4 4 5 5 5
-8 -7 -8 -8 -8 -8 -7 -6 -6 -5 -5 -5 -4 -4 -4 -4 -4 -4 -4 -3 -3 -3 -3 -2 -2 -3 -3 -2 -1 -0 0 -0 0 -1 -1 -0 0 1 2 2 2 2 1
-8 -8 -8 -8 -8 -8 -8 -8 -8 -7 -5 -4 -5 -5 -4 -4 -4 -4 -4 -5 -4 -4 -5 -4 -5 -4 -4 -4 -3 -3 -3 -2 -2 -2 -2 -2 -2 -1 -1 -1 -1 -1 -1
-9 -9 -8 -9 -9 -9 -9 -9 -8 -7 -8 -7 -6 -5 -5 -5 -4 -4 -4 -4 -4 -5 -6 -6 -6 -5 -5 -5 -4 -4 -4 -3 -4 -4 -4 -4 -3 -2 -3 -3 -3 -4 -3
-9 -9 -10 -10 -10 -10 -9 -9 -9 -8 -8 -8 -8 -8 -8 -8 -8 -6 -6 -6 -6 -5 -5 -6 -6 -6 -6 -6 -5 -5 -5 -5 -5 -5 -5 -5 -5 -5 -5 -5 -5 -6 -6
-9 -8 -8 -9 -9 -9 -8 -7 -8 -8 -9 -8 -8 -8 -9 -9 -9 -9 -9 -8 -7 -7 -6 -6 -5 -6 -6 -6 -5 -6 -6 -6 -6 -6 -6 -6 -6 -6 -6 -6 -7 -7 -7

GFSMW_850_temp_105.txt.gz
Temp
17 16 14 13 13 12 12 11 11 11 11 11 12 14 15 16 16 15 16 16 14 14 14 14 14 16 16 14 14 13 14 12 12 13 12 12 12 12 12 11 12 12 11
16 15 14 13 11 11 10 9 9 9 9 9 10 11 12 14 16 16 15 15 14 14 14 13 13 16 17 13 12 14 13 13 12 12 11 11 11 12 11 11 12 12 11
15 14 13 12 11 10 8 7 7 8 8 7 8 9 10 12 15 15 15 14 14 14 15 16 13 17 17 15 14 13 12 12 12 12 12 11 11 11 11 11 11 12 12
14 13 12 11 10 9 7 6 5 6 6 6 6 6 8 12 14 15 16 14 14 14 13 14 13 13 16 15 15 14 12 12 13 12 12 12 13 12 11 11 11 12 12
12 12 11 10 9 8 7 5 4 4 4 4 6 7 6 8 11 14 16 16 14 13 14 13 13 15 13 14 13 12 12 12 12 13 11 11 12 11 12 10 11 11 11
12 11 10 9 8 7 5 4 3 3 3 6 7 7 7 7 9 12 15 15 14 13 13 13 13 14 14 15 15 15 12 13 13 12 11 11 11 11 11 12 11 12 12
11 10 9 8 7 5 4 3 2 2 4 6 6 6 6 8 7 9 13 15 14 13 13 12 13 13 14 15 16 18 12 12 12 14 12 12 11 11 11 11 11 11 10
10 9 8 6 5 4 3 1 1 3 4 5 7 7 8 8 8 9 12 13 13 14 13 12 12 12 12 13 14 16 12 12 12 12 12 12 12 11 11 11 11 10 10
9 8 7 5 4 3 2 0 0 2 5 5 7 7 9 9 10 11 12 13 13 13 14 12 12 12 13 12 12 12 11 12 12 12 11 12 12 11 12 11 10 11 10
8 7 6 5 3 2 1 -0 -0 2 4 5 6 7 10 11 12 12 12 13 13 12 13 12 12 12 12 12 11 11 11 11 12 12 12 12 11 11 11 11 10 10 10
6 6 5 4 3 2 1 -1 -1 1 4 6 6 8 10 11 11 11 12 12 12 13 13 12 12 11 11 11 13 14 10 11 12 12 13 12 11 10 11 10 10 10 10
5 5 4 3 2 1 -0 -1 -1 1 1 3 6 7 8 9 10 12 11 12 13 13 12 12 11 11 11 12 12 13 13 10 11 11 12 11 11 10 10 10 10 10 10
4 3 3 2 1 -0 -1 -2 -1 1 1 2 4 7 6 7 9 10 11 11 11 11 12 12 11 11 13 14 13 14 10 11 11 11 11 11 11 10 10 10 10 10 10
2 1 1 1 -0 -1 -2 -2 -3 -1 0 2 2 6 5 4 7 8 9 11 11 11 11 11 11 10 10 10 12 11 11 10 10 11 10 10 10 10 10 10 10 10 10
1 -0 -1 -1 -2 -3 -3 -3 -4 -2 -1 0 1 1 1 2 4 7 7 9 10 10 10 10 10 10 10 10 13 13 11 10 10 10 10 10 10 10 9 9 9 9 9
-1 -2 -3 -3 -4 -4 -4 -4 -5 -4 -2 -1 -0 -0 0 2 4 4 5 8 7 9 9 9 9 10 10 11 13 12 11 10 9 9 10 10 10 9 9 9 9 9 9
-3 -4 -4 -5 -5 -5 -5 -5 -5 -4 -2 -2 -2 -1 -1 0 1 1 3 6 4 6 8 8 9 9 9 10 10 10 10 9 9 9 9 9 9 9 9 9 9 9 9
-5 -6 -6 -6 -5 -5 -6 -6 -6 -4 -3 -2 -2 -2 -2 -2 -1 -1 -0 0 1 1 2 3 4 5 9 9 9 9 9 9 8 9 8 8 8 8 9 9 10 9 9
-6 -6 -6 -6 -6 -6 -6 -6 -5 -4 -3 -4 -4 -4 -3 -3 -2 -2 -1 -1 0 0 -0 1 0 -1 4 5 7 8 8 8 8 8 7 8 8 8 8 8 8 8 8
-6 -6 -6 -6 -6 -6 -6 -5 -5 -5 -5 -5 -5 -4 -4 -4 -4 -4 -3 -3 -2 -3 -1 -1 0 -1 0 0 1 6 7 7 6 7 6 7 6 6 6 6 7 7 7
-6 -6 -7 -7 -7 -6 -6 -6 -6 -6 -6 -5 -4 -4 -5 -5 -5 -5 -4 -4 -4 -3 -3 -3 -2 -2 -1 -1 -0 0 2 3 3 3 3 3 3 4 4 4 4 5 5
-7 -7 -7 -7 -7 -7 -7 -7 -6 -6 -6 -5 -5 -5 -4 -4 -5 -4 -5 -4 -4 -4 -5 -5 -4 -4 -3 -3 -3 -2 -1 -1 -0 0 -1 -1 0 2 2 2 3 3 3
-7 -7 -7 -7 -8 -8 -8 -7 -6 -6 -7 -7 -7 -6 -5 -4 -4 -4 -4 -4 -5 -5 -5 -5 -5 -5 -5 -5 -4 -3 -3 -3 -3 -3 -3 -2 -2 -2 -1 -1 -2 -1 -0
-8 -8 -7 -8 -8 -8 -8 -8 -7 -6 -6 -7 -7 -7 -8 -6 -6 -5 -5 -5 -5 -5 -5 -5 -5 -5 -5 -5 -5 -4 -4 -5 -4 -6 -5 -4 -4 -3 -3 -3 -3 -4 -3
-10 -9 -9 -9 -9 -9 -9 -9 -8 -7 -7 -7 -8 -7 -8 -8 -8 -7 -8 -8 -8 -7 -6 -7 -6 -5 -5 -6 -6 -5 -5 -5 -5 -5 -6 -5 -5 -5 -5 -5 -5 -5 -6
-10 -10 -11 -10 -10 -9 -8 -10 -10 -9 -9 -8 -8 -9 -8 -8 -8 -9 -8 -9 -9 -8 -7 -7 -7 -7 -7 -6 -5 -5 -6 -6 -6 -6 -6 -6 -6 -7 -7 -7 -7 -7 -7

GFSMW_850_temp_108.txt.gz
Temp
18 16 15 14 13 12 11 11 10 11 11 11 11 11 12 13 14 15 15 16 16 16 15 15 15 14 14 16 15 15 14 14 14 13 13 13 13 12 12 12 12 12 12
18 16 14 13 12 11 10 10 9 11 11 11 11 11 11 12 13 15 15 16 16 15 15 14 15 14 14 14 15 16 15 13 13 13 13 13 13 12 12 11 11 12 12
17 15 14 12 11 10 9 8 8 8 9 8 9 8 9 10 11 14 15 16 15 16 15 15 15 14 14 12 13 13 15 13 12 12 12 12 12 12 12 11 11 11 12
15 14 13 11 11 9 8 7 6 7 6 7 8 7 6 6 10 11 13 14 15 15 15 15 15 14 14 14 14 13 13 12 12 12 12 13 13 11 11 11 11 11 11
14 13 11 10 9 8 6 5 6 7 8 7 7 7 7 7 7 9 12 13 14 15 15 15 15 14 14 13 15 13 12 12 12 12 12 12 12 12 13 11 11 11 11
12 11 10 9 8 6 5 5 6 6 5 5 6 6 6 8 7 7 8 12 13 14 15 14 15 14 13 14 14 15 13 13 13 14 12 12 12 12 12 12 12 12 11
11 10 9 7 6 5 4 3 4 4 2 4 5 5 6 6 6 7 7 9 13 12 12 13 14 14 14 13 13 13 12 13 14 15 16 15 12 11 12 12 12 11 10
10 9 8 6 5 4 3 2 2 2 2 4 4 5 5 5 6 7 8 8 11 11 12 11 14 14 14 12 12 12 12 14 13 13 13 12 15 11 11 12 12 11 10
9 8 7 6 4 3 2 1 1 1 2 3 3 5 5 5 6 8 8 9 11 12 12 12 13 13 13 13 12 12 13 14 13 13 17 12 13 11 11 11 11 11 10
8 7 6 5 3 2 1 0 -1 -0 1 2 2 3 5 6 7 9 10 11 11 11 12 13 13 13 13 12 12 12 13 12 12 13 13 12 12 12 11 11 11 11 11
6 6 5 4 2 1 -0 -1 -1 -0 1 1 2 3 4 7 7 9 10 11 11 11 12 13 13 12 12 12 12 12 12 12 13 13 12 12 12 11 10 11 10 10 10
5 4 4 3 1 -0 -1 -2 -2 -1 -1 0 1 2 4 6 6 8 9 10 11 13 12 12 12 12 12 12 11 12 12 13 12 13 12 11 11 11 10 10 10 11 10
4 2 2 1 -0 -1 -2 -2 -3 -2 -1 -0 0 1 3 5 6 7 8 9 10 12 12 12 13 13 13 11 11 11 12 12 13 13 9 11 11 10 10 10 11 10 10
2 0 -0 -1 -2 -3 -3 -3 -4 -3 -2 -1 -1 -0 1 2 3 5 7 8 8 10 10 11 11 12 11 11 11 11 11 13 11 13 10 11 10 10 10 10 10 10 10
0 -1 -2 -3 -4 -4 -4 -4 -4 -3 -3 -2 -2 -2 -0 1 2 2 3 5 7 8 8 10 11 11 10 10 10 10 11 12 12 11 12 10 9 10 10 10 10 9 10
-2 -3 -3 -4 -5 -5 -5 -5 -5 -4 -3 -3 -3 -2 -1 0 0 0 1 2 4 7 5 8 10 9 10 10 10 10 10 10 11 13 10 9 10 9 10 10 9 9 9
-4 -5 -5 -5 -6 -6 -5 -6 -6 -4 -4 -4 -4 -3 -2 -1 -1 -1 -0 0 1 2 4 4 6 8 9 10 10 10 10 10 10 9 9 9 9 9 9 9 9 9 9
-5 -6 -6 -6 -6 -6 -5 -5 -5 -5 -5 -5 -4 -3 -3 -3 -3 -2 -2 -2 -1 -0 0 1 1 2 3 7 8 9 10 9 9 9 9 9 9 9 9 9 9 9 9
-6 -6 -6 -6 -6 -6 -6 -6 -6 -5 -5 -5 -4 -4 -4 -4 -4 -4 -4 -4 -3 -2 -2 -1 -0 1 1 1 2 5 7 8 8 8 8 8 8 8 8 8 8 8 8
-6 -6 -6 -6 -6 -6 -6 -6 -6 -6 -6 -5 -4 -4 -5 -4 -5 -5 -5 -4 -4 -4 -3 -3 -2 -2 -0 0 -0 0 1 4 4 5 6 7 7 7 7 8 7 7 7
-6 -6 -6 -7 -7 -6 -6 -6 -6 -6 -6 -5 -5 -5 -4 -5 -4 -4 -4 -5 -5 -4 -4 -3 -3 -3 -3 -3 -1 -1 -0 -1 -0 -0 2 4 4 5 4 5 5 5 5
-6 -6 -7 -7 -7 -7 -7 -6 -6 -6 -6 -6 -6 -6 -5 -5 -4 -4 -4 -4 -4 -4 -5 -4 -4 -4 -4 -4 -4 -3 -2 -2 -1 -2 -2 -1 -1 0 0 1 2 2 3
-7 -7 -7 -7 -8 -8 -8 -7 -6 -6 -7 -7 -7 -7 -6 -6 -5 -5 -5 -4 -4 -4 -5 -5 -5 -5 -5 -5 -4 -4 -4 -3 -4 -5 -4 -4 -3 -3 -2 -3 -3 -2 -1
-8 -8 -8 -8 -9 -9 -8 -8 -7 -6 -7 -7 -7 -8 -8 -7 -7 -7 -6 -6 -6 -5 -5 -5 -5 -6 -5 -6 -6 -6 -5 -5 -5 -5 -5 -5 -4 -3 -4 -4 -4 -4 -3
-9 -9 -9 -9 -9 -8 -8 -9 -9 -8 -8 -8 -8 -8 -8 -8 -9 -8 -9 -9 -9 -9 -8 -7 -6 -5 -6 -8 -7 -6 -6 -6 -6 -6 -5 -5 -5 -5 -5 -5 -5 -6 -6
-10 -9 -8 -8 -8 -8 -7 -7 -8 -8 -8 -8 -9 -9 -9 -9 -9 -9 -9 -9 -10 -10 -9 -9 -9 -9 -9 -8 -7 -6 -7 -6 -6 -5 -6 -7 -7 -7 -7 -7 -7 -7 -7

GFSMW_850_temp_111.txt.gz
Temp
16 15 14 14 14 14 13 12 12 11 11 11 12 13 14 15 16 16 16 15 15 14 15 15 15 16 16 16 15 15 16 15 15 14 13 13 14 13 13 13 13 12 12
14 14 13 13 12 11 11 11 10 10 10 11 11 10 11 12 13 15 15 15 15 15 14 14 15 15 15 15 15 14 15 14 14 14 13 13 13 13 13 13 12 12 12
13 12 12 11 10 10 9 9 9 9 10 10 11 11 11 10 10 11 12 14 15 15 14 14 14 15 14 15 15 14 13 13 13 14 14 12 13 13 13 13 12 12 11
12 11 10 9 9 9 9 8 7 8 8 9 10 9 8 9 10 9 11 11 13 14 14 14 13 14 14 14 15 14 13 13 12 12 13 13 13 12 12 12 12 11 11
11 10 9 9 8 9 8 6 7 7 8 8 8 8 8 8 8 8 8 10 11 12 13 13 13 13 13 14 14 14 14 13 13 15 12 12 12 13 13 10 11 11 11
9 8 8 8 7 7 7 6 7 7 8 8 7 7 7 8 8 9 8 7 8 11 12 12 12 13 12 13 14 14 14 13 13 14 11 13 12 12 12 12 12 12 12
8 7 6 5 6 4 4 4 6 6 7 7 7 6 6 7 7 8 8 8 7 8 10 11 12 13 12 12 12 13 13 13 13 13 14 14 14 13 13 12 12 11 10
7 6 5 4 3 3 2 3 4 4 4 5 6 5 6 7 7 6 7 6 7 8 9 10 12 13 12 13 12 12 13 13 12 13 14 14 14 14 14 14 12 11 11
6 5 4 4 3 2 1 1 1 2 3 4 4 5 5 6 6 6 6 6 7 8 10 10 12 11 12 15 12 11 13 13 13 13 12 13 14 13 12 12 12 12 10
5 4 3 2 2 1 -0 0 0 0 0 2 3 4 4 4 5 5 6 6 8 9 9 10 11 11 13 13 12 11 13 13 13 11 13 11 12 13 13 13 12 12 11
3 2 1 1 -0 -1 -2 -3 -1 -1 -0 0 2 3 3 4 4 5 5 6 7 8 10 10 11 11 12 12 12 13 12 12 12 11 11 10 12 12 13 15 12 12 11
2 1 -0 -1 -2 -3 -3 -3 -3 -2 -1 -0 1 1 1 1 3 3 4 6 7 8 9 10 12 13 12 12 11 14 12 12 11 12 11 11 12 11 13 13 12 12 11
-0 -1 -2 -3 -3 -3 -4 -4 -3 -2 -1 -1 -0 0 0 0 1 2 4 4 6 8 8 9 11 12 12 11 11 12 11 11 12 12 12 12 11 12 12 12 12 12 11
-2 -2 -3 -4 -4 -4 -4 -4 -3 -2 -2 -1 -1 -1 -1 -1 -1 1 2 3 4 6 8 8 10 11 10 10 10 11 11 11 11 12 12 12 12 12 11 10 11 11 10
-3 -3 -4 -5 -5 -5 -5 -5 -4 -3 -3 -2 -2 -2 -3 -3 -1 -0 0 1 2 3 4 5 6 8 9 9 9 10 10 11 11 10 10 11 11 12 10 10 10 10 10
-4 -5 -5 -6 -6 -6 -6 -5 -4 -4 -3 -3 -3 -3 -4 -4 -3 -2 -1 0 0 0 1 2 5 6 7 9 10 10 10 10 10 10 10 10 10 10 10 10 10 9 9
-5 -6 -6 -6 -6 -6 -6 -5 -5 -5 -4 -4 -4 -4 -4 -4 -4 -3 -2 -3 -2 -2 -0 -0 1 3 5 8 9 9 10 10 9 9 9 9 10 10 9 10 9 9 9
-6 -6 -6 -6 -6 -6 -5 -5 -5 -5 -5 -4 -4 -5 -4 -4 -4 -4 -3 -3 -4 -4 -2 -2 -1 0 1 2 7 4 8 7 8 8 8 8 9 9 9 9 9 9 9
-6 -6 -6 -6 -6 -6 -6 -6 -5 -6 -5 -5 -5 -4 -4 -4 -4 -4 -4 -4 -4 -4 -4 -3 -3 -2 -1 -0 1 2 3 -1 4 4 7 8 8 8 8 8 8 8 8
-6 -6 -6 -6 -6 -6 -6 -6 -6 -6 -6 -6 -5 -5 -4 -4 -4 -4 -4 -5 -4 -4 -4 -4 -4 -4 -3 -2 -1 0 1 1 -0 -2 -0 2 5 7 8 8 7 8 7
-6 -6 -7 -7 -7 -6 -6 -6 -7 -7 -7 -6 -6 -5 -5 -4 -4 -4 -4 -4 -4 -4 -4 -4 -4 -5 -5 -4 -3 -2 -1 -1 -0 -2 -2 -2 -1 1 3 6 6 5 5
-7 -7 -7 -8 -8 -7 -7 -7 -7 -7 -7 -7 -7 -7 -6 -5 -5 -4 -4 -4 -4 -4 -4 -4 -4 -5 -5 -6 -5 -5 -4 -3 -2 -3 -4 -3 -4 -3 0 1 2 2 2
-7 -8 -8 -8 -7 -7 -7 -7 -7 -8 -7 -7 -8 -8 -7 -7 -7 -6 -5 -5 -5 -4 -5 -5 -5 -5 -5 -6 -6 -6 -5 -5 -5 -5 -5 -4 -3 -4 -2 -3 -2 -1 -1
-8 -8 -7 -7 -7 -8 -8 -8 -7 -8 -8 -7 -7 -8 -8 -8 -8 -9 -9 -8 -8 -7 -6 -7 -7 -7 -6 -6 -6 -6 -6 -6 -6 -5 -5 -5 -5 -4 -4 -3 -4 -3 -3
-8 -7 -7 -8 -8 -8 -7 -7 -7 -8 -8 -8 -8 -8 -8 -9 -9 -10 -10 -10 -11 -10 -10 -11 -10 -9 -10 -11 -9 -8 -7 -7 -7 -6 -5 -5 -5 -6 -6 -6 -5 -6 -5
-7 -7 -7 -7 -7 -7 -8 -7 -8 -9 -9 -9 -9 -9 -9 -10 -10 -10 -10 -11 -11 -11 -11 -11 -11 -12 -12 -11 -11 -9 -8 -7 -7 -5 -6 -7 -7 -7 -8 -8 -7 -7 -7

GFSMW_850_temp_114.txt.gz
Temp
11 11 12 12 13 13 14 15 15 15 14 14 14 15 15 15 15 15 15 14 14 14 14 15 15 14 15 15 15 16 15 15 15 15 14 14 14 13 13 13 13 13 13
10 11 11 12 13 12 12 13 13 13 13 13 12 11 12 13 13 14 14 15 14 14 14 14 14 14 14 14 14 15 15 15 15 14 14 13 13 13 13 13 13 13 13
11 9 10 10 11 12 11 12 12 12 12 12 11 10 11 11 12 12 13 13 13 14 14 14 13 13 13 14 14 14 15 15 14 13 13 12 13 13 13 13 13 13 13
7 9 9 9 9 9 9 10 10 11 11 11 11 10 10 10 10 10 11 12 12 12 12 13 13 13 12 13 13 13 14 15 14 13 14 11 11 12 12 12 12 13 12
6 6 7 8 6 7 8 7 8 11 10 9 10 9 8 8 9 9 9 9 10 10 10 11 12 12 12 12 12 13 13 14 14 13 13 14 12 12 13 12 13 12 12
5 5 5 5 5 6 7 6 7 10 8 8 7 8 7 7 8 8 9 9 9 9 9 9 10 11 12 12 13 12 12 13 13 14 13 13 12 11 12 11 14 12 13
3 3 4 4 4 4 6 6 8 8 7 7 7 6 6 6 6 7 8 8 8 9 9 9 9 10 11 12 12 12 12 12 12 13 13 14 12 13 14 12 12 13 12
2 2 2 2 2 4 5 4 5 6 6 6 6 5 5 5 6 6 6 7 7 7 9 9 8 9 10 11 11 11 12 12 11 12 11 12 11 13 13 14 12 12 12
0 0 1 1 1 2 1 1 3 4 4 4 4 4 4 5 4 5 5 6 8 8 8 9 9 9 9 9 11 11 12 12 12 12 13 11 11 13 13 13 13 13 10
-0 -1 -0 0 0 -1 0 0 -1 0 0 1 2 2 3 3 4 4 4 5 7 8 8 7 8 9 9 10 11 11 12 12 12 12 12 11 12 13 13 13 13 13 13
-1 -2 -2 -2 -2 -2 -2 -2 -0 0 1 1 1 2 1 2 2 3 4 4 6 6 7 7 7 8 8 11 10 11 12 11 11 12 13 13 12 13 13 13 13 12 12
-1 -1 -1 -2 -3 -4 -3 -3 -1 -0 0 1 -0 -0 -0 1 1 2 3 4 4 4 5 6 7 8 9 10 10 12 12 11 12 12 13 13 13 13 13 13 12 12 12
-3 -3 -4 -4 -4 -4 -4 -3 -2 -1 -1 -0 -1 -1 -1 -1 -0 0 1 2 3 3 4 5 6 7 8 10 11 11 11 11 12 12 12 13 12 12 11 11 12 11 11
-3 -4 -5 -5 -5 -5 -5 -4 -3 -2 -2 -2 -2 -2 -2 -2 -2 -2 -0 0 0 1 2 3 4 5 6 8 10 11 11 11 10 11 11 12 11 12 13 13 11 11 9
-4 -5 -6 -6 -6 -6 -5 -4 -4 -4 -3 -3 -3 -3 -3 -3 -2 -2 -2 -2 -1 -1 -0 1 2 4 4 6 9 9 10 11 9 10 11 10 11 10 10 11 10 9 10
-5 -6 -6 -6 -6 -6 -5 -5 -4 -4 -4 -4 -3 -3 -3 -3 -3 -3 -3 -3 -2 -2 -2 -1 -0 1 3 3 6 7 8 8 8 10 11 10 10 9 10 11 10 9 10
-6 -6 -6 -7 -6 -6 -6 -5 -5 -4 -4 -4 -4 -4 -4 -3 -3 -3 -3 -4 -3 -3 -3 -3 -3 -2 -1 1 3 4 7 8 8 9 9 9 9 10 11 11 10 10 10
-6 -7 -7 -6 -6 -6 -6 -6 -5 -5 -4 -4 -4 -4 -4 -4 -4 -3 -3 -3 -4 -4 -4 -4 -4 -4 -3 -1 0 1 3 4 6 6 6 8 9 9 9 9 9 10 9
-7 -6 -6 -6 -6 -6 -6 -6 -5 -5 -5 -5 -5 -5 -5 -4 -4 -4 -4 -3 -3 -4 -5 -5 -4 -5 -5 -3 -1 0 0 1 1 1 0 4 5 8 7 8 9 9 9
-7 -7 -7 -6 -6 -6 -6 -7 -7 -7 -7 -7 -6 -5 -5 -5 -4 -4 -5 -4 -4 -5 -5 -4 -5 -5 -5 -5 -3 -2 -1 -0 -1 0 1 1 0 3 4 5 6 7 8
-7 -7 -7 -6 -7 -6 -7 -7 -7 -7 -7 -8 -6 -6 -6 -5 -5 -5 -4 -4 -3 -4 -4 -5 -5 -6 -6 -6 -5 -4 -3 -3 -3 -2 -1 -1 -1 0 0 1 2 4 4
-8 -7 -7 -6 -7 -7 -6 -7 -8 -8 -7 -7 -7 -7 -6 -6 -6 -5 -5 -4 -4 -4 -5 -5 -5 -6 -6 -6 -6 -6 -5 -4 -4 -4 -4 -3 -3 -1 -1 -1 -2 0 -1
-7 -7 -7 -7 -7 -7 -7 -6 -7 -7 -7 -7 -7 -7 -8 -7 -7 -6 -6 -6 -6 -6 -7 -7 -8 -8 -7 -6 -6 -6 -6 -6 -5 -5 -5 -4 -4 -3 -3 -3 -3 -2 -2
-7 -8 -7 -7 -8 -7 -7 -7 -8 -8 -7 -7 -8 -8 -8 -9 -9 -9 -9 -10 -10 -10 -10 -10 -9 -10 -10 -9 -7 -7 -6 -6 -6 -6 -5 -5 -5 -5 -4 -4 -4 -4 -3
-8 -7 -7 -7 -7 -7 -8 -8 -8 -8 -8 -8 -9 -10 -10 -10 -10 -11 -11 -11 -11 -11 -12 -12 -12 -12 -12 -12 -12 -9 -8 -8 -8 -6 -5 -5 -5 -6 -6 -6 -6 -6 -6
-7 -7 -7 -7 -8 -8 -8 -9 -8 -8 -9 -10 -10 -10 -10 -10 -10 -10 -11 -12 -12 -12 -12 -12 -13 -13 -14 -13 -12 -10 -9 -8 -8 -6 -7 -8 -9 -9 -9 -8 -8 -8 -7

GFSMW_850_temp_117.txt.gz
Temp
9 10 10 9 9 9 11 12 13 14 14 15 15 15 16 15 14 14 14 14 14 14 14 14 14 14 15 15 14 14 14 15 13 15 15 15 15 14 14 14 14 13 13
8 8 8 9 9 9 9 11 13 13 14 14 14 15 15 15 14 14 14 14 13 13 14 14 14 14 13 14 13 13 14 14 14 14 14 13 13 14 14 14 14 14 13
7 7 7 7 7 8 9 10 11 12 13 14 14 13 13 13 13 13 13 12 12 12 12 13 13 14 13 13 13 13 13 13 14 14 14 13 12 13 13 13 12 13 13
4 3 4 4 5 4 6 8 10 11 13 13 13 13 13 13 12 12 13 13 12 11 11 11 11 12 12 12 12 12 12 12 13 13 13 13 14 12 11 12 13 11 13
2 2 2 3 4 4 3 6 7 10 11 11 12 11 11 10 10 10 10 11 11 10 10 9 10 10 11 11 11 11 11 12 13 13 12 12 13 13 13 13 13 12 13
1 0 0 2 3 4 3 5 5 7 8 8 9 9 10 9 9 9 9 9 9 9 9 9 9 9 9 9 10 10 11 10 12 13 13 12 12 12 13 13 14 15 13
0 -1 -1 -1 0 2 4 3 4 4 5 6 7 8 7 7 7 7 7 7 8 8 8 8 8 9 7 8 8 9 10 9 11 11 13 13 13 13 13 14 12 12 12
-1 0 -1 -2 -1 -1 -1 1 2 3 4 5 4 4 4 4 5 5 6 6 6 7 7 7 7 8 8 8 8 9 9 9 10 11 11 13 13 13 12 13 11 10 10
0 -0 -0 -1 -2 -1 -1 1 1 1 3 3 3 2 3 3 3 4 4 5 5 5 7 7 7 7 6 7 7 8 9 9 9 10 11 12 13 13 12 12 11 11 10
-1 -1 -1 -1 -1 -1 -1 0 -0 1 1 1 1 1 1 1 2 2 3 4 4 5 6 7 7 7 7 7 7 8 9 9 8 10 10 11 12 13 11 10 10 10 12
-2 -2 -2 -3 -3 -3 -3 -2 -2 -1 -0 -0 -0 -1 0 0 1 1 2 3 3 3 5 5 5 5 6 6 8 8 9 9 9 9 10 11 11 12 11 11 11 12 12
-3 -3 -4 -4 -5 -4 -2 -2 -2 -1 -2 -2 -1 -0 -0 -1 -0 -0 0 1 1 1 1 2 3 5 5 6 7 8 9 9 9 10 11 11 11 10 11 11 12 12 12
-3 -4 -5 -5 -5 -5 -4 -3 -3 -3 -2 -2 -2 -2 -2 -2 -1 -2 -1 -1 0 -0 0 1 2 3 6 5 6 7 9 10 10 10 11 11 11 11 10 10 10 12 12
-4 -5 -6 -5 -5 -3 -3 -3 -3 -3 -3 -2 -2 -2 -2 -2 -2 -2 -2 -2 -1 -1 -1 -1 -0 1 2 4 5 7 8 9 9 10 10 10 10 10 9 9 10 11 12
-5 -6 -6 -6 -6 -6 -6 -5 -4 -4 -3 -2 -3 -3 -3 -3 -3 -3 -3 -2 -2 -2 -2 -2 -2 -1 -1 -0 3 5 6 7 8 8 9 9 9 9 10 10 10 10 11
-5 -6 -6 -6 -7 -6 -6 -5 -5 -4 -4 -4 -4 -4 -3 -3 -3 -3 -3 -3 -2 -2 -2 -2 -3 -3 -3 -2 -0 2 2 3 6 8 8 9 10 10 9 9 9 10 11
-6 -6 -6 -6 -7 -7 -6 -6 -6 -5 -4 -4 -4 -4 -3 -3 -3 -3 -3 -3 -3 -2 -2 -2 -2 -3 -3 -2 -1 -0 -0 0 1 3 5 6 7 8 9 8 8 9 10
-7 -6 -7 -6 -6 -6 -7 -6 -6 -6 -6 -6 -5 -4 -4 -3 -3 -3 -3 -4 -4 -4 -3 -3 -3 -3 -3 -3 -2 -2 -2 -2 -2 0 1 2 4 5 7 8 9 10 9
-7 -7 -6 -6 -6 -6 -7 -7 -6 -6 -6 -5 -5 -5 -4 -4 -4 -4 -4 -4 -4 -4 -4 -3 -3 -3 -4 -4 -3 -2 -2 -3 -3 -2 -0 1 1 1 6 5 8 8 8
-7 -7 -7 -6 -6 -7 -7 -7 -7 -7 -7 -6 -6 -6 -5 -5 -4 -5 -5 -5 -4 -4 -4 -4 -4 -4 -4 -4 -4 -4 -4 -3 -3 -3 -3 -3 -1 1 2 1 4 3 5
-7 -7 -7 -6 -7 -7 -7 -7 -7 -7 -7 -7 -7 -6 -6 -6 -5 -5 -5 -4 -4 -4 -4 -4 -4 -4 -5 -4 -5 -5 -5 -5 -5 -5 -5 -4 -4 -2 -1 -1 2 1 0
-7 -7 -7 -7 -7 -7 -7 -7 -8 -8 -7 -7 -6 -6 -7 -7 -6 -6 -6 -6 -5 -5 -5 -5 -5 -4 -5 -6 -6 -6 -7 -7 -5 -6 -5 -5 -4 -4 -3 -3 -2 -1 -0
-8 -8 -7 -8 -7 -7 -7 -7 -8 -8 -7 -7 -7 -8 -8 -8 -7 -7 -7 -7 -7 -7 -8 -8 -8 -8 -7 -6 -6 -6 -6 -7 -7 -7 -6 -5 -4 -4 -4 -4 -4 -3 -3
-8 -8 -8 -8 -7 -7 -8 -8 -8 -7 -7 -8 -9 -9 -9 -9 -10 -10 -10 -10 -10 -10 -12 -11 -10 -10 -10 -11 -10 -8 -7 -7 -6 -7 -6 -6 -6 -6 -6 -6 -6 -6 -6
-7 -7 -7 -7 -8 -8 -8 -7 -8 -8 -8 -9 -9 -10 -10 -10 -11 -11 -11 -11 -12 -12 -13 -14 -13 -13 -13 -14 -14 -12 -10 -9 -8 -7 -6 -5 -5 -6 -6 -7 -7 -7 -7
-7 -7 -7 -8 -9 -8 -8 -8 -8 -8 -9 -9 -10 -10 -10 -10 -10 -11 -12 -12 -13 -13 -13 -15 -15 -14 -14 -12 -11 -11 -11 -10 -9 -7 -8 -9 -10 -10 -10 -9 -9 -9 -9

GFSMW_850_temp_120.txt.gz
Temp
6 7 7 7 7 8 9 10 11 11 12 12 13 14 14 14 14 14 14 14 13 13 13 13 13 13 13 13 14 15 15 14 13 12 13 14 14 15 13 14 13 14 14
5 5 5 6 7 7 7 8 10 10 11 11 12 13 14 14 13 13 13 13 13 13 13 13 13 14 13 13 13 13 13 13 13 12 12 11 13 14 14 14 14 13 13
3 4 4 3 4 4 5 5 6 8 8 10 10 12 12 13 13 13 13 12 12 12 12 12 12 12 13 13 13 12 12 12 12 12 12 12 12 12 13 14 15 13 14
1 1 2 2 2 2 2 3 4 7 4 6 7 10 11 13 14 14 13 12 11 11 11 11 11 11 11 12 12 12 11 11 11 12 12 13 13 13 12 13 13 14 14
-0 -0 -1 -0 -0 0 2 3 3 5 5 5 4 7 7 11 10 11 10 11 10 10 10 10 10 10 10 10 10 11 10 10 10 11 11 11 12 12 13 13 13 12 13
0 0 0 0 -0 -0 2 3 3 4 6 6 4 5 6 8 9 9 10 10 10 9 9 8 8 8 9 9 8 8 8 9 9 9 10 10 11 11 12 13 13 14 14
2 2 1 1 1 0 1 3 3 3 3 5 3 3 3 5 5 6 8 7 8 8 8 8 8 8 8 8 7 7 7 8 8 9 9 9 11 11 12 12 12 13 13
-0 0 1 2 2 3 2 2 3 3 2 3 2 0 2 3 4 5 5 5 5 5 6 6 6 7 7 6 6 6 6 7 8 8 8 10 10 10 11 12 12 11 12
-1 -1 -1 -1 -1 -0 -0 0 1 1 -0 -0 -0 -0 0 1 3 4 3 3 4 4 4 3 4 5 6 5 6 6 7 7 7 8 8 9 10 9 10 11 12 12 11
-2 -1 -1 -1 -2 -2 -2 -2 -1 -0 -2 -1 -1 -1 -0 1 1 2 2 2 2 2 2 2 2 3 4 4 4 5 7 7 8 8 8 8 9 10 10 10 11 12 12
-2 -3 -3 -3 -3 -3 -3 -2 -2 -2 -2 -3 -3 -3 -2 -1 -1 -1 -1 -1 -0 -0 0 0 0 1 2 3 3 4 5 7 8 9 8 8 9 9 10 10 10 10 11
-3 -4 -4 -4 -4 -4 -3 -3 -2 -2 -2 -3 -2 -2 -2 -2 -2 -2 -2 -2 -2 -2 -1 -1 -0 0 1 2 2 3 5 6 7 8 7 8 8 9 9 10 9 9 9
-4 -4 -4 -5 -6 -5 -5 -5 -4 -3 -3 -3 -2 -2 -2 -2 -2 -3 -3 -2 -2 -2 -1 -1 -1 -1 0 1 2 3 4 5 6 7 7 8 9 9 10 9 9 9 10
-4 -5 -6 -6 -6 -6 -5 -4 -4 -4 -3 -3 -3 -3 -3 -3 -3 -3 -3 -3 -3 -3 -3 -2 -3 -3 -1 -1 1 1 3 4 5 6 7 8 8 9 9 9 9 9 9
-5 -6 -6 -6 -6 -6 -5 -5 -5 -4 -4 -3 -3 -3 -3 -3 -3 -3 -4 -4 -4 -4 -3 -3 -3 -4 -2 -2 -1 0 1 2 3 4 5 6 7 8 9 9 9 9 9
-5 -6 -6 -6 -7 -7 -6 -5 -5 -4 -4 -4 -4 -4 -3 -3 -3 -3 -3 -3 -3 -3 -3 -3 -3 -4 -4 -3 -2 -1 -0 0 1 1 2 3 4 7 8 8 8 9 9
-6 -6 -6 -6 -7 -7 -6 -6 -6 -5 -5 -5 -5 -4 -4 -4 -4 -3 -3 -3 -3 -3 -3 -3 -3 -3 -3 -3 -3 -2 -2 -2 -2 -1 -1 0 1 3 4 6 7 9 9
-7 -7 -7 -7 -7 -7 -7 -7 -6 -6 -6 -6 -5 -4 -4 -4 -4 -4 -4 -4 -4 -4 -3 -4 -4 -4 -4 -3 -3 -3 -3 -3 -2 -2 -2 -2 -2 -0 1 2 3 7 8
-7 -7 -6 -6 -7 -6 -6 -6 -7 -7 -6 -6 -5 -5 -5 -5 -4 -4 -4 -5 -4 -4 -4 -4 -4 -5 -5 -4 -4 -3 -3 -3 -3 -3 -4 -3 -2 -2 -1 -1 1 1 5
-6 -6 -6 -6 -6 -6 -7 -7 -7 -7 -7 -7 -7 -6 -6 -5 -5 -6 -5 -5 -5 -5 -5 -5 -5 -6 -6 -6 -5 -4 -3 -4 -4 -4 -4 -5 -4 -3 -2 -1 0 0 1
-7 -7 -7 -7 -7 -7 -7 -7 -7 -8 -8 -8 -7 -7 -7 -6 -6 -6 -5 -5 -5 -6 -5 -6 -6 -6 -6 -6 -6 -6 -5 -6 -6 -5 -5 -6 -6 -4 -4 -4 -4 -4 -2
-7 -7 -7 -7 -7 -8 -7 -7 -8 -9 -9 -8 -8 -8 -7 -6 -7 -7 -6 -7 -6 -6 -6 -6 -6 -6 -6 -7 -7 -7 -7 -7 -6 -7 -7 -7 -6 -5 -5 -5 -4 -4 -3
-7 -8 -8 -7 -8 -8 -8 -8 -8 -9 -8 -8 -8 -8 -8 -8 -8 -7 -8 -8 -8 -8 -8 -8 -7 -8 -8 -7 -7 -7 -7 -7 -7 -7 -7 -7 -6 -6 -5 -6 -5 -5 -5
-8 -8 -8 -8 -8 -8 -8 -8 -9 -9 -8 -8 -8 -9 -9 -9 -10 -10 -10 -10 -11 -11 -10 -10 -10 -11 -10 -10 -9 -8 -8 -8 -8 -8 -7 -7 -7 -7 -7 -7 -7 -7 -7
-8 -8 -8 -8 -8 -8 -8 -9 -9 -8 -8 -8 -8 -9 -10 -11 -11 -11 -12 -12 -13 -13 -14 -15 -14 -14 -13 -14 -12 -11 -10 -10 -10 -9 -7 -7 -7 -7 -7 -8 -9 -9 -8
-8 -8 -8 -8 -8 -8 -9 -9 -8 -8 -8 -8 -9 -11 -11 -11 -11 -11 -12 -12 -13 -14 -15 -15 -15 -15 -16 -16 -13 -13 -12 -11 -11 -9 -10 -11 -11 -12 -12 -11 -11 -11 -10

GFSMW_850_temp_123.txt.gz
Temp
2 4 5 5 5 6 7 8 8 9 9 10 10 10 10 10 11 12 12 13 13 13 13 14 14 13 13 13 13 13 13 13 13 13 13 13 13 14 14 15 16 15 16
2 3 4 5 5 5 6 6 7 7 7 7 9 9 9 9 10 10 10 11 11 12 12 13 13 13 13 13 13 13 13 12 12 13 12 12 11 12 14 13 15 15 15
1 1 2 3 3 4 5 5 5 6 7 7 7 7 7 8 7 8 9 10 10 10 11 11 12 11 11 12 11 12 12 12 12 12 12 11 11 13 15 13 14 15 14
1 1 2 2 2 3 3 4 4 5 5 6 7 8 8 8 5 6 8 8 8 8 9 10 11 11 10 10 11 10 10 11 11 11 12 12 13 12 13 13 15 14 13
1 2 3 3 3 3 3 3 3 3 4 5 6 6 7 8 3 3 5 7 7 6 8 8 9 9 8 8 9 9 9 9 9 10 10 11 12 12 12 12 14 15 15
-0 0 0 1 2 2 3 3 4 4 4 4 5 5 4 5 5 5 5 7 7 6 7 6 7 8 7 7 7 6 6 6 7 8 9 9 10 11 12 11 11 13 14
-0 -1 -1 -0 -0 0 1 2 3 3 4 3 4 3 4 5 4 2 5 5 4 5 5 5 6 7 6 6 6 6 6 6 6 6 7 8 9 10 10 11 11 12 12
-1 -1 -1 -1 -1 -1 0 0 0 1 2 2 3 4 1 1 2 3 3 2 1 2 2 3 4 5 5 5 5 6 6 6 6 6 6 7 7 8 9 10 10 11 11
-1 -2 -1 -1 -2 -1 -1 -0 -0 0 -0 0 0 2 2 1 1 2 1 -0 -1 -0 0 0 1 1 2 2 3 4 5 6 6 6 6 6 7 8 8 9 10 10 11
-2 -3 -2 -2 -2 -2 -2 -2 -2 -2 -2 -3 -3 -3 -2 -1 -1 -1 -1 -2 -1 -1 -1 -0 -0 0 1 1 2 3 3 4 5 6 7 7 8 8 8 10 9 9 9
-2 -2 -3 -3 -3 -3 -2 -2 -3 -3 -3 -2 -2 -2 -2 -0 -1 -2 -2 -2 -2 -1 -1 -1 -1 -1 0 1 2 2 3 3 5 6 6 7 7 7 8 9 9 9 9
-2 -2 -3 -4 -5 -4 -3 -4 -3 -3 -4 -4 -3 -3 -3 -3 -2 -2 -2 -2 -2 -2 -2 -3 -3 -2 -2 -1 0 1 1 3 4 5 5 6 7 8 8 9 9 9 9
-3 -3 -5 -5 -6 -6 -6 -4 -4 -4 -4 -4 -3 -3 -3 -3 -2 -3 -3 -3 -3 -3 -3 -3 -4 -4 -3 -2 -2 -1 0 1 2 2 4 5 6 7 8 8 9 9 9
-4 -5 -5 -6 -6 -6 -6 -5 -5 -4 -4 -4 -4 -3 -3 -4 -3 -3 -3 -3 -3 -3 -4 -3 -3 -4 -4 -3 -3 -2 -1 -0 0 1 2 2 4 5 7 8 8 9 8
-5 -5 -6 -6 -7 -7 -6 -5 -5 -5 -5 -5 -4 -4 -4 -4 -4 -3 -3 -3 -3 -3 -3 -3 -3 -4 -4 -4 -3 -3 -4 -2 -1 -1 0 0 1 2 3 5 7 8 9
-5 -6 -6 -6 -7 -7 -6 -5 -5 -5 -5 -5 -4 -5 -4 -3 -3 -3 -3 -3 -2 -2 -3 -3 -3 -3 -5 -5 -4 -3 -3 -3 -2 -2 -1 -0 1 2 2 2 3 5 6
-5 -6 -6 -7 -7 -7 -6 -5 -5 -5 -5 -4 -4 -4 -4 -4 -3 -3 -3 -3 -3 -3 -3 -3 -3 -3 -4 -4 -4 -3 -3 -3 -3 -3 -2 -1 -1 0 1 1 1 1 2
-6 -6 -7 -7 -6 -6 -6 -5 -6 -5 -5 -5 -5 -5 -5 -5 -5 -5 -4 -4 -4 -4 -4 -4 -4 -4 -4 -4 -4 -3 -4 -4 -4 -3 -4 -4 -3 -2 -2 -1 -0 0 1
-6 -7 -7 -6 -6 -6 -6 -6 -6 -6 -6 -6 -6 -5 -6 -6 -6 -5 -5 -6 -5 -5 -5 -5 -5 -5 -4 -4 -4 -3 -3 -4 -5 -5 -5 -5 -5 -4 -3 -2 -2 -2 -1
-6 -6 -6 -6 -6 -6 -6 -6 -6 -6 -6 -7 -6 -6 -6 -6 -6 -6 -6 -6 -6 -6 -6 -6 -6 -6 -7 -6 -6 -5 -5 -5 -5 -6 -6 -6 -6 -5 -5 -4 -4 -4 -4
-6 -7 -7 -7 -6 -7 -7 -6 -7 -7 -7 -7 -7 -8 -7 -7 -7 -7 -6 -6 -7 -7 -6 -7 -7 -7 -7 -7 -7 -7 -6 -7 -7 -7 -7 -7 -7 -6 -6 -6 -5 -6 -5
-7 -7 -7 -7 -7 -7 -7 -7 -6 -7 -7 -8 -8 -8 -8 -8 -7 -7 -6 -7 -7 -7 -7 -7 -7 -8 -8 -8 -8 -8 -8 -8 -7 -8 -8 -8 -7 -7 -6 -6 -7 -6 -4
-7 -7 -7 -7 -7 -7 -7 -7 -7 -8 -8 -8 -8 -8 -9 -8 -8 -7 -8 -9 -10 -9 -10 -10 -11 -11 -10 -10 -9 -9 -9 -8 -8 -9 -9 -8 -7 -7 -7 -7 -7 -6 -6
-7 -7 -7 -7 -7 -8 -8 -8 -8 -8 -9 -9 -9 -9 -9 -9 -9 -11 -13 -14 -14 -14 -15 -15 -15 -16 -14 -13 -12 -11 -11 -10 -9 -9 -8 -8 -8 -8 -8 -8 -8 -8 -9
-8 -8 -8 -8 -8 -8 -8 -8 -8 -9 -9 -9 -9 -9 -10 -10 -11 -12 -14 -15 -15 -15 -15 -16 -16 -16 -16 -16 -13 -12 -11 -11 -10 -9 -9 -8 -8 -8 -9 -10 -10 -10 -10
-8 -8 -8 -8 -8 -8 -8 -9 -9 -9 -9 -9 -9 -10 -10 -11 -12 -13 -13 -13 -14 -16 -16 -16 -16 -17 -17 -16 -13 -13 -13 -12 -12 -11 -12 -12 -13 -13 -13 -12 -12 -12 -12

GFSMW_850_temp_126.txt.gz
Temp
4 4 3 3 3 5 7 8 8 9 9 9 9 9 9 7 8 9 10 10 11 11 11 10 11 11 11 10 11 11 11 12 13 13 13 13 14 13 14 13 14 13 12
4 3 3 3 3 3 5 6 7 7 8 9 9 8 8 7 8 8 7 8 9 10 10 10 11 11 11 11 11 11 10 10 11 12 13 13 13 13 14 15 15 13 13
4 3 3 3 2 2 3 4 5 6 6 7 7 6 7 5 7 8 8 8 8 8 9 9 9 9 10 11 10 10 10 8 10 11 12 12 12 14 14 15 15 14 14
3 2 2 1 1 2 3 3 4 4 5 5 5 6 3 3 6 6 8 8 7 8 8 8 8 8 9 9 9 9 8 8 8 9 11 12 14 14 15 14 13 13 12
1 1 0 -1 -1 1 2 2 1 3 4 4 5 4 5 5 4 3 6 7 7 7 7 6 7 7 7 8 6 6 6 6 6 7 8 10 11 12 12 14 14 13 13
1 -0 -1 -1 -1 -1 -1 0 0 1 2 3 4 3 3 4 4 5 3 6 5 5 4 5 4 5 5 6 6 5 5 6 6 6 7 7 8 12 12 12 14 15 14
0 -1 -1 -0 -1 -1 -2 -1 -1 -2 0 2 2 2 3 3 4 5 6 5 6 3 3 2 4 4 5 5 4 5 5 6 5 6 6 6 7 7 8 10 13 14 14
-0 -0 -1 -1 -2 -2 -2 -2 -2 -2 0 1 2 -0 2 -0 1 1 3 3 4 0 1 1 -0 0 1 1 2 2 3 4 4 5 5 6 6 6 7 9 10 11 13
0 -1 -1 -2 -3 -3 -2 -1 -1 -2 -1 -1 0 1 0 -1 -1 -2 -1 -1 0 -0 -1 -1 -1 0 0 1 1 2 2 3 3 4 5 5 6 6 6 7 8 9 11
-0 -1 -1 -2 -3 -4 -3 -2 -2 -1 -2 -2 -1 -2 -1 -1 -2 -3 -2 -2 -2 -2 -2 -2 -2 -1 -0 0 1 2 2 2 3 3 4 5 5 5 6 7 8 9 9
1 0 -1 -2 -3 -4 -4 -4 -3 -3 -3 -2 -2 -3 -3 -2 -3 -4 -3 -3 -4 -3 -3 -3 -3 -2 -1 -1 -0 -0 1 1 1 1 2 3 4 5 6 7 7 8 9
0 0 -1 -2 -3 -4 -5 -5 -4 -3 -2 -3 -2 -3 -2 -3 -5 -4 -4 -4 -5 -5 -3 -3 -3 -2 -2 -2 -2 -2 -2 -1 -1 -1 -0 1 3 4 6 7 7 8 8
0 0 -1 -3 -4 -5 -5 -5 -4 -3 -3 -3 -3 -3 -3 -3 -4 -5 -4 -5 -4 -4 -3 -2 -2 -2 -2 -2 -3 -3 -3 -3 -3 -2 -2 -1 1 3 4 6 7 8 8
0 0 -2 -3 -5 -5 -6 -5 -5 -5 -5 -4 -4 -3 -3 -3 -3 -4 -5 -5 -6 -5 -4 -4 -4 -4 -3 -2 -2 -2 -3 -3 -4 -3 -2 -2 -1 0 2 3 5 6 7
-0 -1 -2 -4 -5 -6 -6 -6 -5 -5 -4 -4 -4 -4 -4 -3 -4 -4 -4 -5 -5 -6 -7 -7 -7 -7 -4 -3 -2 -4 -4 -2 -2 -3 -3 -3 -3 -2 -1 0 2 3 4
-1 -2 -3 -5 -5 -6 -6 -6 -6 -6 -5 -4 -5 -4 -4 -4 -4 -4 -3 -5 -6 -6 -7 -8 -9 -8 -5 -4 -3 -3 -4 -3 -3 -3 -3 -3 -2 -2 -2 -2 -2 -1 1
-2 -3 -4 -5 -6 -6 -6 -6 -6 -7 -6 -6 -5 -5 -4 -4 -4 -5 -5 -5 -5 -5 -6 -6 -8 -7 -5 -4 -4 -3 -4 -4 -4 -4 -3 -3 -3 -2 -2 -2 -2 -2 -1
-3 -4 -5 -6 -6 -6 -6 -7 -7 -7 -7 -5 -5 -5 -5 -5 -5 -5 -5 -5 -6 -5 -5 -6 -7 -6 -5 -5 -4 -4 -5 -5 -5 -5 -5 -4 -4 -4 -3 -2 -2 -3 -2
-5 -5 -6 -6 -6 -6 -7 -7 -6 -7 -6 -5 -5 -6 -5 -5 -5 -5 -5 -6 -6 -7 -6 -6 -6 -6 -6 -5 -5 -4 -5 -6 -6 -6 -6 -5 -5 -4 -4 -3 -3 -2 -2
-5 -6 -6 -6 -6 -6 -6 -6 -7 -6 -6 -6 -6 -6 -6 -6 -6 -6 -7 -7 -8 -8 -9 -7 -7 -7 -7 -6 -6 -5 -6 -6 -7 -7 -7 -7 -6 -6 -5 -4 -4 -3 -4
-6 -6 -6 -6 -6 -6 -6 -6 -7 -6 -8 -7 -7 -7 -7 -7 -7 -8 -8 -9 -8 -8 -10 -11 -9 -8 -8 -7 -7 -7 -7 -7 -7 -8 -8 -8 -8 -7 -7 -6 -6 -6 -5
-7 -7 -7 -7 -8 -8 -7 -6 -6 -7 -7 -7 -7 -7 -7 -8 -8 -9 -10 -10 -11 -12 -12 -13 -12 -13 -10 -9 -9 -9 -9 -8 -8 -8 -8 -8 -8 -8 -7 -7 -7 -6 -5
-8 -8 -8 -8 -8 -8 -8 -8 -9 -9 -8 -7 -7 -8 -8 -9 -11 -12 -12 -12 -12 -12 -13 -12 -13 -13 -14 -13 -10 -10 -10 -10 -9 -10 -9 -9 -9 -8 -8 -8 -8 -8 -7
-7 -7 -7 -7 -8 -8 -8 -9 -9 -9 -9 -10 -10 -11 -10 -11 -12 -12 -12 -12 -13 -12 -13 -13 -14 -14 -15 -15 -14 -13 -12 -11 -11 -12 -11 -10 -10 -10 -10 -9 -9 -10 -11
-8 -7 -7 -8 -8 -9 -9 -9 -9 -9 -9 -10 -10 -11 -11 -12 -12 -11 -12 -13 -15 -15 -14 -14 -15 -15 -16 -16 -14 -12 -12 -12 -13 -13 -12 -11 -11 -12 -12 -13 -14 -14 -12
-8 -9 -9 -9 -9 -9 -9 -9 -9 -9 -10 -10 -11 -11 -11 -12 -12 -12 -14 -13 -14 -15 -15 -16 -16 -16 -17 -15 -15 -16 -16 -16 -17 -16 -17 -17 -17 -17 -17 -17 -17 -17 -17

GFSMW_850_temp_129.txt.gz
Temp
8 7 6 6 6 5 5 5 8 8 9 9 8 6 8 8 8 8 8 8 10 10 10 11 11 12 12 11 10 9 10 11 11 12 13 14 13 13 13 15 12 14 14
9 8 7 6 5 5 4 4 4 5 7 6 6 6 5 5 6 7 6 7 8 10 10 10 10 11 11 11 11 11 10 10 10 11 12 12 13 13 13 14 14 15 15
9 7 6 5 5 3 3 3 3 3 3 5 4 4 5 5 4 4 6 7 5 8 9 9 9 9 10 10 10 9 9 10 11 10 11 11 13 14 14 14 15 14 15
7 7 5 3 2 2 2 1 1 1 1 3 2 3 3 3 3 3 3 2 5 5 7 8 9 8 8 8 9 8 7 7 8 8 8 9 10 10 13 14 14 15 14
6 5 3 2 2 2 2 1 1 1 0 3 3 3 2 1 1 1 1 1 1 5 6 7 7 8 7 7 8 7 6 5 5 6 6 6 8 9 10 12 13 14 14
4 3 2 2 2 1 1 1 1 1 -0 -1 -1 1 1 2 2 3 3 0 -1 -0 4 6 6 7 6 5 5 5 4 4 4 5 5 5 6 7 8 9 10 12 13
4 3 3 3 2 1 0 0 0 0 -1 -1 -2 -2 -2 -2 -2 -0 0 1 -1 -0 -1 2 4 5 5 2 3 3 3 2 3 4 5 5 6 6 6 7 8 9 11
3 3 3 2 2 1 -1 -1 -1 -1 -2 -2 -2 -2 -1 -2 -3 -2 -1 -0 -1 -1 -1 -0 1 3 1 1 1 2 1 2 2 2 3 3 4 5 5 6 6 7 9
3 2 2 1 1 0 -2 -2 -2 -2 -3 -2 -3 -2 -3 -3 -4 -3 -3 -4 -1 -3 -2 -1 -1 1 0 -0 1 1 0 1 1 2 2 2 3 3 4 5 5 6 7
2 3 3 2 0 -2 -3 -2 -2 -3 -3 -3 -2 -3 -3 -4 -3 -4 -4 -4 -2 -3 -3 -2 -2 -2 -2 -1 -1 -0 -0 -0 0 1 1 1 1 3 4 4 5 6 6
3 3 3 2 0 -1 -2 -3 -3 -3 -3 -3 -2 -2 -3 -4 -3 -3 -2 -4 -3 -3 -3 -3 -3 -3 -3 -3 -2 -2 -2 -2 -1 -1 -1 -1 0 1 3 4 4 5 6
4 4 3 2 0 -1 -3 -3 -4 -4 -4 -4 -3 -4 -4 -4 -4 -4 -3 -3 -3 -3 -3 -5 -6 -6 -4 -4 -4 -4 -3 -3 -2 -3 -2 -1 -0 0 1 3 3 4 6
4 4 3 2 -0 -2 -3 -4 -4 -4 -4 -4 -4 -4 -4 -5 -5 -5 -6 -6 -6 -5 -6 -6 -6 -7 -6 -6 -6 -5 -5 -5 -4 -4 -4 -3 -2 -0 -0 1 2 2 3
4 4 3 1 -1 -3 -3 -3 -4 -4 -4 -4 -4 -5 -5 -5 -5 -6 -6 -6 -6 -6 -6 -6 -6 -7 -6 -3 -5 -6 -6 -5 -5 -5 -5 -4 -3 -3 -2 -1 -0 1 2
4 4 2 0 -2 -3 -3 -4 -4 -4 -4 -5 -5 -5 -6 -6 -6 -6 -7 -7 -7 -7 -8 -7 -7 -8 -5 -4 -4 -7 -7 -7 -6 -4 -3 -3 -3 -3 -4 -3 -2 -1 -0
3 3 2 -1 -2 -3 -3 -4 -4 -4 -5 -5 -6 -6 -6 -6 -5 -6 -7 -8 -8 -9 -9 -8 -9 -8 -6 -4 -3 -7 -7 -7 -6 -4 -3 -2 -2 -2 -3 -4 -3 -3 -2
3 2 0 -2 -3 -4 -4 -4 -4 -4 -5 -6 -7 -6 -5 -4 -5 -6 -7 -8 -8 -10 -10 -10 -10 -7 -5 -4 -4 -6 -8 -8 -7 -5 -4 -4 -3 -3 -2 -3 -3 -3 -4
2 -1 -2 -3 -4 -5 -5 -5 -5 -5 -6 -7 -6 -6 -6 -6 -8 -6 -6 -8 -9 -9 -10 -9 -9 -9 -6 -5 -5 -8 -8 -7 -7 -7 -6 -5 -5 -4 -3 -3 -4 -3 -4
-1 -3 -4 -4 -5 -6 -6 -5 -5 -6 -7 -6 -5 -5 -5 -6 -7 -7 -7 -8 -10 -11 -11 -11 -9 -9 -8 -7 -6 -6 -10 -8 -9 -8 -7 -6 -6 -6 -4 -4 -4 -3 -3
-3 -4 -4 -6 -6 -6 -6 -6 -7 -7 -7 -8 -7 -7 -6 -6 -7 -7 -8 -9 -11 -11 -11 -11 -11 -10 -9 -8 -7 -7 -7 -10 -10 -9 -9 -8 -8 -7 -6 -6 -6 -5 -5
-4 -5 -6 -5 -6 -6 -7 -7 -8 -6 -7 -6 -7 -7 -8 -7 -9 -9 -10 -10 -11 -11 -11 -11 -11 -10 -10 -9 -8 -8 -8 -10 -11 -10 -9 -9 -8 -8 -8 -8 -7 -8 -7
-5 -6 -6 -6 -7 -7 -7 -7 -6 -7 -8 -8 -7 -7 -8 -10 -11 -11 -11 -11 -11 -11 -11 -11 -11 -12 -11 -10 -10 -10 -10 -9 -12 -13 -13 -12 -10 -10 -9 -9 -9 -8 -7
-6 -7 -7 -6 -6 -6 -7 -7 -7 -7 -7 -7 -7 -7 -8 -9 -11 -11 -11 -10 -11 -11 -11 -11 -12 -13 -14 -13 -13 -14 -14 -14 -15 -15 -15 -14 -14 -12 -12 -11 -10 -9 -10
-6 -6 -5 -5 -5 -5 -6 -7 -7 -7 -8 -8 -9 -10 -10 -10 -10 -10 -11 -12 -12 -12 -12 -12 -13 -14 -15 -16 -16 -15 -15 -15 -15 -15 -15 -15 -15 -15 -15 -15 -15 -15 -15
-6 -5 -5 -5 -6 -6 -6 -7 -7 -7 -7 -8 -9 -9 -10 -10 -11 -10 -11 -13 -12 -13 -14 -14 -14 -15 -16 -16 -16 -16 -16 -16 -15 -15 -15 -15 -15 -15 -15 -16 -16 -16 -16
-6 -6 -6 -6 -6 -6 -7 -7 -7 -7 -8 -8 -8 -9 -9 -10 -10 -11 -12 -12 -13 -13 -14 -14 -16 -16 -16 -16 -16 -16 -16 -15 -15 -14 -15 -15 -15 -16 -16 -16 -16 -16 -17

GFSMW_850_temp_132.txt.gz
Temp
10 9 8 7 6 5 5 5 5 6 7 6 7 7 7 6 7 7 8 8 9 10 10 11 11 11 11 11 11 12 13 13 12 11 12 13 13 14 14 14 14 14 14
11 9 8 6 5 4 4 4 4 4 6 6 5 5 5 5 5 5 5 6 7 8 9 9 10 10 10 10 10 11 12 12 11 10 10 11 13 13 13 13 14 14 15
11 9 7 5 4 3 3 3 3 3 5 6 6 6 5 5 5 4 3 3 4 5 7 7 8 8 8 9 9 9 9 10 11 9 6 9 11 11 13 13 12 13 13
9 8 6 4 4 3 3 2 2 2 2 4 5 5 3 3 3 3 4 2 2 3 6 7 6 7 7 8 8 8 8 7 8 8 5 7 6 8 9 11 12 12 13
9 6 4 4 3 3 2 2 3 1 0 1 2 3 3 3 2 3 4 4 3 3 4 5 6 6 6 6 6 7 7 6 4 3 3 4 5 6 7 8 10 11 11
6 5 4 4 3 2 2 2 2 1 0 -1 -1 1 2 1 -0 1 1 3 2 3 2 3 3 4 4 4 4 5 5 4 2 2 3 3 4 5 5 5 6 7 10
6 5 5 4 3 2 2 1 1 0 -0 -1 -0 0 -0 -1 -2 -1 -0 -1 0 -1 -1 1 1 2 2 2 2 2 2 2 1 1 2 2 3 3 3 4 5 5 6
5 5 5 4 3 2 2 2 -0 -1 0 -1 -1 -1 -1 -2 -3 -3 -3 -3 -3 -4 -3 -3 -2 -2 -1 -1 0 -1 -1 0 0 1 1 1 2 2 2 2 3 4 5
5 4 3 3 3 1 2 2 0 -1 -0 -1 -2 -2 -3 -2 -3 -4 -3 -4 -4 -4 -4 -4 -4 -3 -2 -1 -1 -2 -1 0 1 1 1 1 2 2 2 2 2 3 2
5 4 4 3 2 0 1 1 1 -0 -1 -1 -1 -2 -2 -3 -3 -3 -3 -4 -3 -3 -3 -3 -4 -3 -3 -2 -2 -3 -2 -1 -1 -1 -1 -0 0 1 1 2 2 2 2
4 4 4 3 1 -0 -0 0 -1 -1 -1 -1 -2 -3 -3 -3 -4 -3 -3 -3 -3 -3 -4 -5 -4 -3 -3 -3 -4 -5 -5 -4 -4 -3 -2 -1 -1 -1 -0 0 0 1 2
5 5 5 3 1 -0 -1 -1 -2 -3 -3 -3 -3 -4 -4 -4 -5 -5 -5 -5 -5 -4 -5 -5 -5 -3 -2 -3 -5 -5 -5 -5 -5 -5 -4 -3 -3 -3 -2 -1 -1 0 1
6 5 5 3 1 -1 -2 -2 -3 -3 -3 -3 -3 -4 -4 -4 -5 -5 -5 -5 -5 -5 -6 -6 -6 -5 -2 -4 -5 -6 -6 -6 -6 -6 -6 -5 -4 -4 -4 -2 -2 -1 -0
6 6 5 3 1 -1 -2 -3 -3 -3 -3 -4 -4 -5 -5 -5 -5 -6 -6 -6 -6 -5 -6 -7 -6 -5 -4 -5 -6 -7 -7 -7 -7 -7 -8 -5 -5 -5 -6 -5 -3 -2 -2
6 6 5 3 -0 -1 -2 -3 -3 -3 -4 -4 -5 -5 -5 -6 -6 -6 -6 -7 -6 -6 -7 -7 -6 -5 -4 -5 -7 -8 -8 -7 -5 -5 -6 -5 -5 -5 -7 -6 -5 -4 -3
6 6 5 2 -1 -2 -2 -3 -3 -3 -4 -5 -5 -6 -5 -5 -5 -6 -7 -7 -6 -6 -6 -8 -7 -6 -6 -7 -8 -9 -9 -8 -6 -5 -5 -5 -4 -4 -5 -6 -6 -6 -5
6 5 4 1 -1 -2 -3 -3 -3 -4 -5 -5 -6 -5 -5 -5 -5 -5 -6 -6 -6 -6 -6 -7 -8 -7 -6 -7 -8 -10 -8 -8 -8 -7 -6 -5 -5 -4 -5 -5 -5 -5 -6
5 4 2 -0 -2 -3 -3 -3 -4 -5 -6 -6 -6 -6 -5 -6 -6 -5 -6 -7 -7 -7 -7 -8 -8 -7 -7 -6 -6 -9 -9 -10 -9 -8 -7 -7 -6 -6 -5 -5 -5 -5 -6
4 2 0 -1 -3 -4 -4 -4 -4 -5 -6 -5 -5 -5 -5 -5 -6 -6 -7 -8 -9 -9 -9 -9 -9 -8 -8 -7 -7 -7 -8 -10 -10 -9 -10 -10 -10 -10 -6 -5 -5 -5 -5
3 1 -0 -2 -4 -4 -5 -5 -5 -6 -7 -6 -6 -5 -6 -6 -6 -7 -8 -9 -9 -10 -10 -10 -10 -9 -9 -9 -7 -8 -8 -9 -10 -10 -10 -13 -13 -14 -11 -8 -8 -7 -7
1 -0 -2 -3 -4 -5 -5 -6 -6 -5 -6 -7 -8 -7 -7 -8 -8 -9 -9 -9 -10 -10 -11 -11 -11 -10 -9 -9 -10 -9 -9 -11 -12 -12 -12 -13 -14 -14 -14 -12 -11 -12 -10
-2 -2 -3 -4 -5 -6 -6 -6 -6 -7 -7 -6 -6 -7 -8 -9 -9 -10 -10 -10 -10 -10 -11 -11 -12 -11 -11 -10 -12 -14 -14 -14 -14 -14 -14 -14 -14 -15 -15 -14 -14 -11 -10
-3 -4 -4 -5 -6 -7 -7 -6 -6 -6 -6 -6 -6 -7 -8 -9 -9 -10 -10 -10 -11 -11 -11 -12 -13 -12 -11 -12 -12 -14 -15 -14 -14 -14 -15 -15 -15 -15 -14 -15 -16 -13 -13
-4 -5 -5 -6 -6 -6 -7 -7 -7 -7 -7 -7 -9 -9 -10 -10 -10 -10 -9 -9 -10 -11 -12 -13 -13 -13 -13 -13 -14 -14 -14 -14 -14 -14 -14 -15 -15 -15 -16 -16 -16 -16 -16
-5 -5 -5 -5 -5 -5 -6 -7 -7 -7 -7 -8 -9 -9 -9 -8 -9 -9 -9 -10 -10 -11 -11 -12 -13 -13 -14 -15 -16 -15 -15 -15 -15 -15 -15 -15 -16 -16 -16 -16 -17 -17 -17
-5 -5 -5 -5 -5 -5 -6 -6 -6 -7 -7 -8 -8 -9 -9 -9 -10 -10 -10 -11 -12 -12 -12 -12 -13 -15 -16 -16 -16 -15 -15 -15 -15 -15 -15 -16 -16 -16 -17 -17 -17 -17 -18